[[{"header":{"parameterUnit":"m.s-1","parameterCategory":1,"la1":30.6,"la2":29.2853,"lo1":-89.7004,"lo2":-87.6739,"dy":0.0162,"dx":0.0183,"nx":112,"ny":82,"refTime":"2024-06-12T18:00:00:Z","depth":0,"parameterNumber":2,"parameterNumberName":"U-component_of_WINDS"},"data":[0.0,0.0,0.0,0.0,0.0,0.0,0.0,0.0,0.0,0.0,0.0,0.0,0.0,0.0,0.0,0.0,0.0,0.0,0.0,0.0,0.0,0.0,0.0,0.0,0.0,0.0,0.0,0.0,0.0,0.0,0.0,0.0,0.0,0.0,0.0,0.0,0.0,0.0,0.0,0.0,0.0,0.0,0.0,0.0,0.0,0.0,0.0,0.0,0.0,0.0,0.0,0.0,0.0,0.0,0.0,0.0,0.0,0.0,0.0,0.0,0.0,0.0,0.0,0.0,0.0,0.0,0.0,0.0,0.0,0.0,0.0,0.0,0.0,0.0,0.0,0.0,0.0,0.0,0.0,0.0,0.0,0.0,0.0,0.0,0.0,0.0,0.0,0.0,0.0,0.0,-2.9243,-2.9813,-3.0804,-3.141,-3.141,-3.1043,-2.9978,-2.8014,0.0,0.0,0.0,0.0,0.0,0.0,0.0,0.0,0.0,0.0,0.0,0.0,0.0,0.0,0.0,0.0,0.0,0.0,0.0,0.0,0.0,0.0,0.0,0.0,0.0,0.0,0.0,0.0,0.0,0.0,0.0,0.0,0.0,0.0,0.0,0.0,0.0,0.0,0.0,0.0,0.0,0.0,0.0,0.0,0.0,0.0,0.0,0.0,0.0,0.0,0.0,0.0,0.0,0.0,0.0,0.0,0.0,0.0,0.0,0.0,0.0,0.0,0.0,0.0,0.0,0.0,0.0,0.0,0.0,0.0,0.0,0.0,0.0,0.0,0.0,0.0,0.0,0.0,0.0,0.0,0.0,0.0,0.0,0.0,0.0,0.0,0.0,0.0,0.0,0.0,0.0,0.0,0.0,0.0,0.0,0.0,0.0,0.0,0.0,0.0,0.0,0.0,0.0,0.0,-2.9556,-3.0987,-3.13,-3.141,-3.141,-3.1043,-3.0075,-2.8407,0.0,0.0,0.0,0.0,0.0,0.0,0.0,0.0,0.0,0.0,0.0,0.0,0.0,0.0,0.0,0.0,0.0,0.0,0.0,0.0,0.0,0.0,0.0,0.0,0.0,0.0,0.0,0.0,0.0,0.0,0.0,0.0,0.0,0.0,0.0,0.0,0.0,0.0,0.0,0.0,0.0,0.0,0.0,0.0,0.0,0.0,0.0,0.0,0.0,0.0,0.0,0.0,0.0,0.0,0.0,0.0,0.0,0.0,0.0,0.0,0.0,0.0,0.0,0.0,0.0,0.0,0.0,0.0,0.0,0.0,0.0,0.0,0.0,0.0,0.0,0.0,0.0,0.0,0.0,0.0,0.0,0.0,0.0,0.0,0.0,0.0,0.0,0.0,0.0,0.0,0.0,0.0,0.0,0.0,0.0,0.0,0.0,0.0,0.0,0.0,0.0,0.0,0.0,-2.9133,-2.9868,-3.1263,-3.141,-3.141,-3.141,-3.1043,-3.0002,-2.8197,-2.7536,0.0,0.0,0.0,0.0,0.0,0.0,0.0,0.0,0.0,0.0,0.0,0.0,0.0,0.0,0.0,0.0,0.0,0.0,0.0,0.0,0.0,0.0,0.0,0.0,0.0,0.0,0.0,0.0,0.0,0.0,0.0,0.0,0.0,0.0,0.0,0.0,0.0,0.0,0.0,0.0,0.0,0.0,0.0,0.0,0.0,0.0,0.0,0.0,0.0,0.0,0.0,0.0,0.0,0.0,0.0,0.0,0.0,0.0,0.0,0.0,0.0,0.0,0.0,0.0,0.0,0.0,0.0,0.0,0.0,0.0,0.0,0.0,0.0,0.0,0.0,0.0,0.0,0.0,0.0,0.0,0.0,0.0,0.0,0.0,0.0,0.0,0.0,0.0,0.0,0.0,0.0,0.0,0.0,0.0,0.0,0.0,0.0,0.0,0.0,0.0,0.0,0.0,-2.9996,-3.0382,-3.13,-3.141,-3.141,-3.141,-3.0877,-2.9758,-2.7903,-2.7243,0.0,0.0,0.0,0.0,0.0,0.0,0.0,0.0,0.0,0.0,0.0,0.0,0.0,0.0,0.0,0.0,0.0,0.0,0.0,0.0,0.0,0.0,0.0,0.0,0.0,0.0,0.0,0.0,0.0,0.0,0.0,0.0,0.0,0.0,0.0,0.0,0.0,0.0,0.0,0.0,0.0,0.0,0.0,0.0,0.0,0.0,0.0,0.0,0.0,0.0,0.0,0.0,0.0,0.0,0.0,0.0,0.0,0.0,0.0,0.0,0.0,0.0,0.0,0.0,0.0,0.0,0.0,0.0,0.0,0.0,0.0,0.0,0.0,0.0,0.0,0.0,0.0,0.0,0.0,0.0,0.0,0.0,0.0,0.0,0.0,0.0,0.0,0.0,0.0,0.0,0.0,0.0,0.0,0.0,0.0,0.0,0.0,0.0,0.0,0.0,0.0,0.0,-3.0382,-3.1318,-3.1391,-3.141,-3.141,-3.141,-3.0345,-2.9152,-2.7867,-2.671,0.0,0.0,0.0,0.0,0.0,0.0,0.0,0.0,0.0,0.0,0.0,0.0,0.0,0.0,0.0,0.0,0.0,0.0,0.0,0.0,0.0,0.0,0.0,0.0,0.0,0.0,0.0,0.0,0.0,0.0,0.0,0.0,0.0,0.0,0.0,0.0,0.0,0.0,0.0,0.0,0.0,0.0,0.0,0.0,0.0,0.0,0.0,0.0,0.0,0.0,0.0,0.0,0.0,0.0,0.0,0.0,0.0,0.0,0.0,0.0,0.0,0.0,0.0,0.0,0.0,0.0,0.0,0.0,0.0,0.0,0.0,0.0,0.0,0.0,0.0,0.0,0.0,0.0,0.0,0.0,0.0,0.0,0.0,0.0,0.0,0.0,0.0,0.0,0.0,0.0,0.0,0.0,0.0,0.0,0.0,0.0,0.0,0.0,0.0,0.0,0.0,0.0,-2.9947,-3.0827,-3.1355,-3.141,-3.141,-3.141,-3.0767,-2.9629,-2.7903,0.0,0.0,0.0,0.0,0.0,0.0,0.0,0.0,0.0,0.0,0.0,0.0,0.0,0.0,0.0,0.0,0.0,0.0,0.0,0.0,0.0,0.0,0.0,0.0,0.0,0.0,0.0,0.0,0.0,0.0,0.0,0.0,0.0,0.0,0.0,0.0,0.0,0.0,0.0,0.0,0.0,0.0,0.0,0.0,0.0,0.0,0.0,0.0,0.0,0.0,0.0,0.0,0.0,0.0,0.0,0.0,0.0,0.0,0.0,0.0,0.0,0.0,0.0,0.0,0.0,0.0,0.0,0.0,0.0,0.0,0.0,0.0,0.0,0.0,0.0,0.0,0.0,0.0,0.0,0.0,0.0,0.0,0.0,0.0,0.0,0.0,0.0,0.0,0.0,0.0,0.0,0.0,0.0,0.0,0.0,0.0,0.0,0.0,0.0,0.0,0.0,0.0,-2.811,-2.8844,-2.9595,-3.0628,-3.0714,-3.0908,-3.1345,-3.0694,-2.9537,-2.7903,0.0,0.0,0.0,0.0,0.0,0.0,0.0,0.0,0.0,0.0,0.0,0.0,0.0,0.0,0.0,0.0,0.0,0.0,0.0,0.0,0.0,0.0,0.0,0.0,0.0,0.0,0.0,0.0,0.0,0.0,0.0,0.0,0.0,0.0,0.0,0.0,0.0,0.0,0.0,0.0,0.0,0.0,0.0,0.0,0.0,0.0,0.0,0.0,0.0,0.0,0.0,0.0,0.0,0.0,0.0,0.0,0.0,0.0,0.0,0.0,0.0,0.0,0.0,0.0,0.0,0.0,0.0,0.0,0.0,0.0,0.0,0.0,0.0,0.0,0.0,0.0,0.0,0.0,0.0,0.0,0.0,0.0,0.0,0.0,0.0,0.0,0.0,0.0,0.0,0.0,0.0,0.0,0.0,0.0,0.0,0.0,0.0,0.0,0.0,0.0,0.0,0.0,-2.6664,-2.7001,-2.7652,-2.9134,-2.9265,-2.987,-3.1249,-2.991,-2.8645,0.0,0.0,0.0,0.0,0.0,0.0,0.0,0.0,0.0,0.0,0.0,0.0,0.0,0.0,0.0,0.0,0.0,0.0,0.0,0.0,0.0,0.0,0.0,0.0,0.0,0.0,0.0,0.0,0.0,0.0,0.0,0.0,0.0,0.0,0.0,0.0,0.0,0.0,0.0,0.0,0.0,0.0,0.0,0.0,0.0,0.0,0.0,0.0,0.0,0.0,0.0,0.0,0.0,0.0,0.0,0.0,0.0,0.0,0.0,0.0,0.0,0.0,0.0,0.0,0.0,0.0,0.0,0.0,0.0,0.0,0.0,0.0,0.0,0.0,0.0,0.0,0.0,0.0,0.0,0.0,0.0,0.0,0.0,0.0,0.0,0.0,0.0,0.0,0.0,0.0,0.0,0.0,0.0,0.0,0.0,0.0,0.0,0.0,0.0,0.0,0.0,0.0,0.0,-2.6755,-2.7001,-2.7287,-2.7718,-2.7751,-2.8361,-2.9805,-2.8103,-2.72,-2.7771,0.0,0.0,0.0,0.0,0.0,0.0,0.0,0.0,0.0,0.0,0.0,0.0,0.0,0.0,0.0,0.0,0.0,0.0,0.0,0.0,0.0,0.0,0.0,0.0,0.0,0.0,0.0,0.0,0.0,0.0,0.0,0.0,0.0,0.0,0.0,0.0,0.0,0.0,0.0,0.0,0.0,0.0,0.0,0.0,0.0,0.0,0.0,0.0,0.0,0.0,0.0,0.0,0.0,0.0,0.0,0.0,0.0,0.0,0.0,0.0,0.0,0.0,0.0,0.0,0.0,0.0,0.0,0.0,0.0,0.0,0.0,0.0,0.0,0.0,0.0,0.0,0.0,0.0,0.0,0.0,0.0,0.0,0.0,0.0,0.0,0.0,0.0,0.0,0.0,0.0,0.0,0.0,0.0,0.0,0.0,0.0,0.0,0.0,0.0,0.0,0.0,0.0,-2.5144,-2.5359,-2.5678,-2.6338,-2.6421,-2.7026,-2.8494,-2.7294,-2.645,-2.6434,0.0,0.0,0.0,0.0,0.0,0.0,0.0,0.0,0.0,0.0,0.0,0.0,0.0,0.0,0.0,0.0,0.0,0.0,0.0,0.0,0.0,0.0,0.0,0.0,0.0,0.0,0.0,0.0,0.0,0.0,0.0,0.0,0.0,0.0,0.0,0.0,0.0,0.0,0.0,0.0,0.0,0.0,0.0,0.0,0.0,0.0,0.0,0.0,0.0,0.0,0.0,0.0,0.0,0.0,0.0,0.0,0.0,0.0,0.0,0.0,0.0,0.0,0.0,0.0,0.0,0.0,0.0,0.0,0.0,0.0,0.0,0.0,0.0,0.0,0.0,0.0,0.0,0.0,0.0,0.0,0.0,0.0,0.0,0.0,0.0,0.0,0.0,0.0,0.0,0.0,0.0,0.0,0.0,0.0,0.0,0.0,0.0,0.0,0.0,0.0,0.0,0.0,-2.2779,-2.2974,-2.3522,-2.5092,-2.5259,-2.583,-2.727,-2.6907,-2.6017,-2.4555,0.0,0.0,0.0,0.0,0.0,0.0,0.0,0.0,0.0,0.0,0.0,0.0,0.0,0.0,0.0,0.0,0.0,0.0,0.0,0.0,0.0,0.0,0.0,0.0,0.0,0.0,0.0,0.0,0.0,0.0,0.0,0.0,0.0,0.0,0.0,0.0,0.0,0.0,0.0,0.0,0.0,0.0,0.0,0.0,0.0,0.0,0.0,0.0,0.0,0.0,0.0,0.0,0.0,0.0,0.0,0.0,0.0,0.0,0.0,0.0,-2.1568,-2.144,0.0,0.0,0.0,0.0,0.0,0.0,0.0,0.0,0.0,0.0,0.0,0.0,0.0,0.0,0.0,0.0,0.0,0.0,0.0,0.0,0.0,0.0,0.0,0.0,0.0,0.0,0.0,0.0,0.0,0.0,0.0,0.0,0.0,0.0,0.0,0.0,0.0,0.0,0.0,0.0,-2.3464,-2.3396,-2.3445,-2.4059,-2.4156,-2.461,-2.5781,-2.4585,-2.416,-2.5062,-2.3293,0.0,0.0,0.0,0.0,0.0,0.0,0.0,0.0,0.0,0.0,0.0,0.0,0.0,0.0,0.0,0.0,0.0,0.0,0.0,0.0,0.0,0.0,0.0,0.0,0.0,0.0,0.0,0.0,0.0,0.0,0.0,0.0,0.0,0.0,0.0,0.0,0.0,0.0,0.0,0.0,0.0,0.0,0.0,0.0,0.0,0.0,0.0,0.0,0.0,0.0,0.0,0.0,0.0,0.0,0.0,0.0,0.0,0.0,0.0,-2.2606,-2.2328,0.0,0.0,0.0,0.0,0.0,0.0,0.0,0.0,0.0,0.0,0.0,0.0,0.0,0.0,0.0,0.0,0.0,0.0,0.0,0.0,0.0,0.0,0.0,0.0,0.0,0.0,0.0,0.0,0.0,0.0,0.0,0.0,0.0,0.0,0.0,0.0,0.0,0.0,0.0,0.0,-2.2804,-2.3141,-2.35,-2.3928,-2.3981,-2.4223,-2.4791,-2.4039,-2.3632,-2.3891,-2.2652,0.0,0.0,0.0,0.0,0.0,0.0,0.0,0.0,0.0,0.0,0.0,0.0,0.0,0.0,0.0,0.0,0.0,0.0,0.0,0.0,0.0,0.0,0.0,0.0,0.0,0.0,0.0,0.0,0.0,0.0,0.0,0.0,0.0,0.0,0.0,0.0,0.0,0.0,0.0,0.0,0.0,0.0,0.0,0.0,0.0,0.0,0.0,0.0,0.0,0.0,0.0,0.0,0.0,-2.4306,-2.4369,-2.4893,-2.469,-2.4716,-2.4866,-2.3865,-2.3445,-2.3409,-2.3115,0.0,0.0,0.0,0.0,0.0,0.0,0.0,0.0,0.0,0.0,0.0,0.0,0.0,0.0,0.0,0.0,0.0,0.0,0.0,0.0,0.0,0.0,-2.2539,-2.2405,-2.2739,-2.2746,-2.1277,0.0,0.0,0.0,0.0,0.0,0.0,0.0,0.0,0.0,0.0,0.0,-2.2111,-2.2953,-2.3688,-2.4222,-2.4275,-2.4262,-2.4209,-2.4209,-2.3741,-2.2645,-2.2258,-2.1577,0.0,0.0,0.0,0.0,0.0,0.0,0.0,0.0,0.0,0.0,0.0,0.0,0.0,0.0,0.0,0.0,0.0,0.0,0.0,0.0,0.0,0.0,0.0,0.0,0.0,0.0,0.0,0.0,0.0,0.0,0.0,0.0,-2.0742,-2.1154,0.0,0.0,0.0,0.0,0.0,0.0,0.0,0.0,0.0,0.0,0.0,0.0,0.0,-2.4938,-2.4888,-2.5446,-2.5592,-2.5321,-2.5804,-2.608,-2.6159,-2.6119,-2.6119,-2.6146,-2.6,0.0,-2.4339,-2.3572,0.0,0.0,0.0,0.0,0.0,0.0,0.0,0.0,0.0,0.0,0.0,0.0,0.0,0.0,0.0,0.0,0.0,0.0,0.0,0.0,0.0,0.0,-2.3292,-2.3794,-2.3968,-2.4035,-2.4012,-2.2645,-2.1328,-2.0989,-2.0708,-2.0414,0.0,0.0,0.0,0.0,0.0,0.0,-2.3033,-2.3701,-2.4209,-2.4506,-2.4546,-2.4439,-2.4222,-2.4209,-2.3915,-2.3212,-2.2672,-2.2071,-2.1435,-2.0535,0.0,0.0,0.0,0.0,0.0,0.0,0.0,0.0,0.0,0.0,0.0,0.0,0.0,0.0,0.0,0.0,0.0,0.0,0.0,0.0,0.0,0.0,0.0,0.0,0.0,0.0,0.0,0.0,0.0,-2.0935,-2.1388,-2.176,-2.2342,-2.2727,0.0,0.0,0.0,0.0,0.0,0.0,0.0,0.0,0.0,-2.5798,-2.6172,-2.6413,-2.6506,-2.6787,-2.6853,-2.6692,-2.6986,-2.7041,-2.6921,-2.7054,-2.7041,-2.6921,-2.6921,-2.6587,-2.6026,-2.4983,-2.4529,-2.4472,0.0,0.0,0.0,0.0,-2.3207,-2.322,-2.3086,-2.3081,-2.3027,-2.2659,0.0,0.0,0.0,0.0,0.0,0.0,0.0,-2.2653,-2.326,-2.3705,-2.4132,-2.4596,-2.4823,-2.497,-2.5066,-2.4289,-2.3388,-2.2726,-2.2084,-2.151,-2.1056,-2.0842,0.0,0.0,0.0,-2.2498,-2.3198,-2.3834,-2.4315,-2.4572,-2.4599,-2.4546,-2.4412,-2.4412,-2.4262,-2.3848,-2.342,-2.2947,-2.2345,-2.1475,-2.0641,0.0,0.0,0.0,0.0,0.0,0.0,0.0,0.0,0.0,0.0,0.0,0.0,0.0,0.0,0.0,0.0,0.0,0.0,0.0,0.0,0.0,0.0,0.0,0.0,0.0,0.0,0.0,0.0,-2.1878,-2.2239,-2.258,-2.3232,-2.3593,0.0,0.0,0.0,0.0,0.0,0.0,-2.5732,-2.6198,-2.6613,-2.6947,-2.7375,-2.7749,-2.8043,-2.8043,-2.8043,-2.8043,-2.8043,-2.7923,-2.7722,-2.7936,-2.7923,-2.7722,-2.7722,-2.767,-2.7443,-2.6226,-2.5571,-2.5288,-2.4663,-2.4382,-2.4289,-2.4075,-2.4128,-2.4315,-2.4315,-2.4315,-2.4249,-2.3888,-2.3385,-2.2873,-2.2331,0.0,0.0,0.0,0.0,-2.3429,-2.4222,-2.4583,-2.4836,-2.5211,-2.5464,-2.5651,-2.5718,-2.5504,-2.5088,-2.4168,-2.3394,-2.2686,-2.2144,-2.183,0.0,-2.167,-2.2365,-2.306,-2.3559,-2.4182,-2.4596,-2.4693,-2.4719,-2.4679,-2.4613,-2.4599,-2.4479,-2.4222,-2.3995,-2.3643,-2.3041,-2.2305,-2.1609,-2.094,0.0,0.0,0.0,0.0,0.0,0.0,0.0,0.0,0.0,0.0,0.0,0.0,0.0,0.0,0.0,0.0,0.0,0.0,0.0,0.0,0.0,0.0,0.0,0.0,0.0,0.0,0.0,0.0,0.0,-2.4027,-2.4806,0.0,0.0,0.0,0.0,-2.5891,-2.6185,-2.6694,-2.7522,-2.7589,-2.7883,-2.847,-2.8524,-2.8684,-2.8921,-2.8921,-2.8921,-2.8921,-2.8921,-2.8921,-2.8908,-2.8921,-2.8921,-2.8908,-2.8908,-2.8631,-2.8045,-2.6827,-2.6212,-2.5891,-2.5302,-2.4863,-2.4572,-2.4559,-2.4559,-2.4572,-2.4572,-2.4572,-2.4613,-2.4917,-2.4783,-2.4372,-2.3834,-2.3696,0.0,0.0,-2.395,-2.4275,-2.4877,-2.505,-2.5197,-2.581,-2.5957,-2.6051,-2.6279,-2.6158,-2.569,-2.4733,-2.4329,-2.3928,-2.3305,0.0,-2.3185,-2.3185,-2.3692,-2.4222,-2.4492,-2.5039,-2.5344,-2.509,-2.5064,-2.4943,-2.4626,-2.4599,-2.4479,-2.4222,-2.4195,-2.3915,-2.3292,-2.2979,-2.2425,-2.1555,-2.0953,0.0,0.0,0.0,0.0,0.0,0.0,0.0,0.0,0.0,0.0,0.0,0.0,0.0,0.0,0.0,0.0,0.0,0.0,0.0,0.0,0.0,0.0,0.0,0.0,0.0,0.0,0.0,0.0,-2.4938,-2.5675,0.0,-2.6014,-2.6573,-2.6961,-2.7068,-2.7535,-2.803,-2.8494,-2.8925,-2.9312,-2.9726,-2.9913,-3.006,-3.0167,-2.998,-2.9887,-2.9887,-2.9887,-2.9793,-2.9562,-2.9562,-2.9499,-2.9312,-2.9081,-2.8868,-2.8671,-2.807,-2.7415,-2.68,-2.636,-2.6132,-2.5987,-2.5838,-2.5758,-2.5758,-2.5758,-2.5638,-2.5476,-2.5208,-2.501,-2.485,-2.4449,-2.4329,-2.4369,-2.4593,-2.4727,-2.4903,-2.5529,-2.5677,-2.5784,-2.6185,-2.6279,-2.6266,-2.6373,-2.6306,-2.6118,-2.5585,-2.5104,-2.4636,-2.4199,-2.4132,-2.4066,-2.3915,-2.4396,-2.481,-2.4917,-2.5264,-2.5478,-2.5371,-2.5197,-2.5037,-2.493,-2.4706,-2.4479,-2.4222,-2.4022,-2.3741,-2.3305,-2.3033,-2.2653,-2.2124,-2.1569,-2.0762,0.0,0.0,0.0,0.0,0.0,0.0,0.0,0.0,0.0,0.0,0.0,0.0,0.0,0.0,0.0,0.0,0.0,0.0,0.0,0.0,0.0,0.0,0.0,0.0,0.0,-2.4913,-2.5635,-2.5872,-2.6793,-2.7363,-2.7267,-2.7896,-2.8337,-2.8444,-2.8911,-2.9325,-2.9575,-3.0007,-3.0301,-3.0547,-3.0688,-3.0795,-3.0795,-3.0595,-3.0547,-3.0547,-3.0547,-3.0408,-3.0207,-3.0207,-3.0114,-2.9913,-2.9606,-2.9432,-2.9268,-2.9018,-2.843,-2.7724,-2.7281,-2.7054,-2.6947,-2.676,-2.6627,-2.652,-2.6426,-2.6266,-2.6078,-2.569,-2.5556,-2.5464,-2.517,-2.5077,-2.513,-2.5355,-2.5409,-2.5529,-2.6011,-2.6145,-2.6185,-2.6346,-2.6386,-2.6386,-2.6386,-2.6386,-2.6333,-2.6185,-2.5743,-2.5315,-2.4946,-2.4893,-2.4826,-2.4676,-2.5064,-2.5449,-2.5543,-2.5772,-2.5959,-2.5959,-2.5692,-2.5516,-2.5422,-2.501,-2.4743,-2.4649,-2.4275,-2.3968,-2.3745,-2.338,-2.3067,-2.2692,-2.2077,-2.1448,-2.0784,0.0,0.0,0.0,0.0,0.0,0.0,0.0,0.0,0.0,0.0,0.0,0.0,0.0,0.0,0.0,0.0,0.0,0.0,0.0,0.0,0.0,0.0,0.0,-2.517,-2.6119,-2.6854,-2.6894,-2.8134,-2.8845,-2.8312,-2.9048,-2.9646,-2.9927,-3.0207,-3.0547,-3.0795,-3.0808,-3.0808,-3.0822,-3.0822,-3.0822,-3.0822,-3.0822,-3.0822,-3.0822,-3.0822,-3.0822,-3.0822,-3.0808,-3.0808,-3.0795,-3.0547,-3.0207,-2.9913,-2.9619,-2.9152,-2.8577,-2.7963,-2.7549,-2.7336,-2.7336,-2.7108,-2.6814,-2.6507,-2.6413,-2.6413,-2.64,-2.64,-2.6346,-2.6091,-2.6011,-2.6011,-2.6011,-2.6011,-2.6078,-2.6319,-2.64,-2.64,-2.64,-2.6413,-2.6413,-2.6413,-2.6413,-2.6413,-2.64,-2.6212,-2.5931,-2.5585,-2.5545,-2.5545,-2.5545,-2.5798,0.0,-2.6373,-2.6653,-2.6841,-2.6841,-2.6573,-2.6332,-2.6051,-2.5489,-2.5224,-2.5478,-2.4919,-2.4599,-2.4586,-2.4088,-2.3647,-2.3319,-2.2485,-2.2064,-2.205,0.0,0.0,0.0,0.0,0.0,0.0,0.0,0.0,0.0,0.0,0.0,0.0,0.0,0.0,0.0,0.0,0.0,0.0,0.0,0.0,0.0,-2.5527,-2.6162,-2.632,-2.6987,-2.7696,-2.8308,-2.9121,-2.97,-2.9784,-3.0212,-3.0461,-3.0541,-3.0635,-3.0795,-3.1089,-3.1102,-3.1209,-3.1423,-3.1423,-3.1423,-3.1423,-3.1423,-3.1423,-3.1423,-3.1423,-3.1423,-3.1423,-3.1209,-3.1102,-3.1089,-3.0795,-3.0501,-3.0266,-2.9913,-2.9579,-2.9179,-2.8591,-2.8177,-2.7938,-2.7938,-2.775,-2.7388,-2.6881,-2.6841,-2.7001,-2.6533,-2.6533,-2.6653,-2.636,-2.6266,-2.6266,-2.6266,-2.6266,-2.6332,-2.6373,-2.6547,-2.6707,-2.6707,-2.6867,-2.7068,-2.7068,-2.7068,-2.6961,-2.6747,-2.664,-2.6493,-2.6199,-2.6146,-2.6146,-2.6146,-2.64,-2.6613,-2.6694,-2.6961,-2.7148,-2.7148,-2.6881,-2.6667,-2.6587,-2.6052,-2.561,-2.5224,-2.485,-2.4506,-2.4329,-2.4168,-2.4048,-2.3968,-2.3514,-2.3094,0.0,0.0,0.0,0.0,0.0,0.0,0.0,0.0,0.0,0.0,0.0,0.0,0.0,0.0,0.0,0.0,0.0,0.0,0.0,0.0,0.0,0.0,-2.6613,-2.7342,-2.8001,-2.831,-2.8684,-2.9282,-2.9927,-3.0394,-3.0702,-3.0875,-3.1022,-3.1156,-3.1276,-3.1356,-3.141,-3.165,-3.1744,-3.1724,-3.1784,-3.1797,-3.1711,-3.1711,-3.1711,-3.1711,-3.1711,-3.1711,-3.1711,-3.149,-3.141,-3.1396,-3.1102,-3.0808,-3.0515,-3.0221,-2.986,-2.9432,0.0,0.0,0.0,0.0,-2.7884,-2.7629,-2.7161,-2.7121,-2.7255,-2.6907,-2.6787,-2.6787,-2.6613,-2.6493,-2.6386,-2.6386,-2.648,-2.6573,-2.6573,-2.6787,-2.7001,-2.7001,-2.7134,-2.7309,-2.7309,-2.7309,-2.7255,-2.7041,-2.7001,0.0,-2.6787,-2.656,-2.6426,-2.6547,-2.6707,-2.6907,-2.7161,-2.7335,-2.7536,-2.7657,-2.7375,-2.7188,-2.7188,-2.6653,0.0,0.0,0.0,-2.501,-2.4583,-2.4569,0.0,0.0,0.0,0.0,0.0,0.0,0.0,0.0,-2.3429,-2.3643,0.0,0.0,0.0,0.0,0.0,0.0,0.0,0.0,0.0,0.0,0.0,0.0,0.0,0.0,0.0,0.0,-2.7951,-2.8754,-2.9766,-2.978,-2.978,-3.0034,-3.0528,-3.0955,-3.1249,-3.1256,-3.1436,-3.1704,-3.1984,-3.2038,-3.1831,-3.2313,0.0,0.0,0.0,-3.2024,-3.1818,-3.1818,-3.1818,-3.1818,-3.1818,-3.1818,-3.1818,-3.1778,-3.1764,-3.1751,-3.1396,-3.1116,-3.0822,-3.0574,-3.0105,-2.9499,-2.9121,-2.8841,-2.8591,-2.8016,-2.7802,-2.7749,-2.7469,0.0,0.0,-2.7322,-2.7108,-2.6907,-2.6881,-2.6694,-2.6493,-2.6493,-2.6667,-2.6867,-2.6867,-2.7094,-2.7362,-2.7362,-2.7376,-2.7403,-2.7403,-2.7403,-2.7389,-2.7362,-2.7362,-2.7349,-2.7309,-2.6881,-2.6573,-2.6827,-2.6894,-2.7108,-2.7629,-2.7722,-2.7856,-2.8152,-2.7951,0.0,-2.7749,-2.7241,-2.7028,-2.7296,-2.6506,-2.581,-2.5251,-2.5262,-2.5248,-2.5222,-2.5237,-2.5371,-2.5558,-2.5625,-2.5665,-2.5638,-2.4566,-2.4569,0.0,0.0,0.0,0.0,0.0,0.0,0.0,0.0,0.0,0.0,0.0,0.0,0.0,0.0,0.0,-2.7909,-2.8915,-2.9646,-2.9887,-3.0474,-3.0915,-3.0922,-3.1076,-3.1263,-3.1557,-3.1797,-3.1957,-3.2011,-3.234,-3.2487,-3.2433,-3.2527,-3.2541,-3.2433,-3.2487,-3.2487,-3.2433,-3.2433,-3.2433,-3.2433,-3.2433,0.0,-3.242,-3.2131,-3.2024,-3.1998,-3.1717,-3.141,-3.1116,-3.0822,-3.0368,-2.978,-2.9202,-2.8961,-2.8868,-2.8564,-2.843,-2.835,-2.7802,-2.7817,-2.7938,-2.7456,-2.7388,-2.7482,-2.7296,-2.7188,0.0,-2.7135,-2.7175,-2.7175,-2.7175,-2.7388,-2.7615,-2.7615,-2.7844,-2.8018,-2.8018,-2.8018,-2.7938,-2.7655,-2.7615,-2.7535,-2.7349,-2.7215,-2.7162,-2.7215,-2.7375,-2.7575,-2.7682,-2.7951,-2.8125,-2.8179,-2.8138,-2.8098,-2.8098,-2.7736,-2.7455,-2.7322,-2.6707,-2.6253,-2.6146,-2.6132,-2.6065,-2.5837,-2.6253,-2.6279,-2.5904,-2.6346,-2.6573,-2.6507,-2.5891,-2.569,0.0,0.0,0.0,0.0,0.0,0.0,0.0,0.0,0.0,0.0,0.0,-2.5771,-2.6258,0.0,-2.8224,-2.8965,-2.9659,-3.0234,-3.0528,-3.1076,-3.1396,-3.1203,-3.149,-3.1717,-3.1864,-3.2158,-3.2433,-3.2532,-3.2812,-3.2919,-3.2822,-3.3102,-3.3062,-3.2607,-3.2741,-3.2741,-3.2594,-3.2594,-3.2594,-3.2594,-3.2594,-3.2594,-3.2594,-3.2433,-3.2238,-3.2091,-3.1944,-3.1637,-3.1196,-3.0755,-3.0314,-2.9887,-2.9593,-2.9392,-2.9219,-2.8895,-2.8775,-2.8778,-2.847,-2.8377,-2.8366,-2.803,-2.7829,-2.7669,-2.7522,-2.7416,-2.7309,-2.7309,-2.7523,-2.775,-2.775,-2.803,-2.8364,-2.8364,-2.8484,-2.8591,-2.8591,-2.8591,-2.8497,-2.8217,-2.815,-2.8056,-2.7804,-2.775,-2.7697,-2.755,-2.7602,-2.7749,-2.7938,-2.8098,-2.8179,-2.8179,-2.8179,-2.8179,-2.8179,-2.8045,-2.7898,-2.775,-2.7336,-2.6974,-2.6881,-2.6867,-2.68,-2.6653,-2.6894,-2.6894,-2.6653,-2.6907,-2.7041,-2.7041,-2.7095,-2.7015,0.0,0.0,0.0,0.0,0.0,0.0,0.0,-2.3921,-2.4649,-2.5122,-2.6393,-2.7449,-2.7643,-2.8504,-2.9406,-2.9962,-3.0381,-3.0828,-3.1249,-3.1664,-3.1837,-3.1597,-3.1931,-3.2185,-3.2185,-3.2554,-3.2862,-3.304,-3.3387,-3.348,-3.3253,-3.3708,-3.3641,-3.2969,-3.312,-3.3093,-3.2862,-3.2862,-3.2822,-3.2768,-3.2768,-3.2768,-3.2755,-3.2648,-3.246,-3.2185,-3.2064,-3.1717,-3.1196,-3.0715,-3.0314,-3.0007,-3.0007,-2.982,-2.9539,-2.9232,-2.9081,-2.9068,-2.9015,-2.8841,-2.8684,-2.8631,-2.827,-2.7869,-2.7802,-2.7657,-2.7496,-2.755,-2.7911,-2.8286,-2.8353,-2.8671,-2.9001,-2.9001,-2.9001,-2.9001,-2.9001,-2.9001,-2.8921,-2.8738,-2.8684,-2.8617,-2.8406,-2.8366,-2.8245,-2.7843,-2.7789,-2.7869,-2.8152,-2.8179,-2.8179,-2.8179,-2.8232,-2.8299,-2.8353,-2.8366,-2.8366,-2.8366,-2.7976,-2.7724,-2.7483,-2.7362,-2.7309,-2.7309,-2.7362,-2.7389,-2.7389,-2.751,-2.7563,-2.7576,-2.8112,-2.8138,-2.2358,-2.2432,-2.2468,-2.3024,-2.2757,-2.2824,0.0,-2.4792,-2.4853,-2.5848,-2.6966,-2.7953,-2.8515,-2.9376,-3.0149,-3.0642,-3.1156,-3.1591,-3.1657,-3.2318,-3.2812,-3.2786,-3.2661,-3.2541,-3.2541,-3.2986,-3.3334,-3.336,-3.3895,-3.4202,-3.4175,-3.4229,-3.4229,-3.4122,-3.4148,-3.4028,-3.3734,-3.3734,-3.3601,-3.332,-3.332,-3.332,-3.3293,-3.2835,-3.2581,-3.2514,-3.1992,-3.153,-3.1223,-3.1156,-3.0808,-3.036,-3.036,-3.0127,-2.9833,-2.9539,-2.9432,-2.9392,-2.9081,-2.8975,-2.8908,-2.8684,-2.8564,-2.8457,-2.8219,-2.8112,-2.8138,-2.8377,-2.8511,-2.8617,-2.8871,-2.8948,-2.9001,-2.9001,-2.9001,-2.9001,-2.9001,-2.9001,-2.8988,-2.8948,-2.8948,-2.8935,-2.8908,-2.8895,-2.8751,-2.8219,-2.8138,-2.8152,-2.8179,-2.8179,-2.8179,-2.8179,-2.839,-2.8657,-2.8868,-2.8895,-2.8895,-2.8895,-2.8446,-2.8125,-2.8085,-2.759,-2.7309,-2.7309,-2.7522,-2.7655,-2.7655,-2.819,-2.8457,-2.847,-2.8791,-2.8497,-2.2309,-2.2716,-2.305,-2.2992,-2.3613,-2.4464,-2.5392,-2.6285,-2.7025,-2.7447,-2.8495,-2.9365,-2.954,-3.0346,-3.1168,-3.1483,-3.2051,-3.2492,-3.2679,-3.316,-3.344,-3.3253,-3.3293,-3.337,-3.337,-3.3694,-3.4015,-3.4189,-3.4429,-3.4576,-3.4576,-3.4576,-3.4496,-3.4322,-3.4162,-3.4015,-3.3881,-3.3708,-3.3547,-3.3414,-3.3414,-3.3414,-3.34,-3.316,-3.2915,-3.2567,-3.1979,-3.1503,-3.1176,-3.1176,-3.0982,-3.0641,-3.0467,-3.0333,-3.014,-2.9847,-2.974,-2.9713,-2.9593,-2.9432,-2.9272,-2.9152,-2.9005,-2.8788,-2.8711,-2.8657,-2.8698,-2.8775,-2.8978,-2.9138,-2.9272,-2.9419,-2.9508,-2.9508,-2.9508,-2.9508,-2.9508,-2.9508,-2.9499,-2.9325,-2.9299,-2.9245,-2.9028,-2.9001,-2.8908,-2.8698,-2.8657,-2.8604,-2.843,-2.8417,-2.8417,-2.8417,-2.8684,-2.8978,-2.9272,-2.9095,-2.9068,-2.9285,-2.8898,-2.8657,-2.8657,-2.827,-2.8043,-2.8043,-2.8163,-2.823,-2.823,-2.8615,-2.8815,-2.8828,-2.9165,-2.9005,-2.2698,-2.3221,-2.3794,-2.3743,-2.4765,-2.5944,-2.6411,-2.7487,-2.8548,-2.8751,-2.9593,-3.0352,-3.0491,-3.1314,-3.2059,-3.2291,-3.2839,-3.3307,-3.3534,-3.3814,-3.3921,-3.3694,-3.3868,-3.4002,-3.4002,-3.4202,-3.4442,-3.4788,-3.4895,-3.4936,-3.4936,-3.4936,-3.479,-3.4563,-3.4362,-3.4175,-3.4015,-3.3774,-3.3574,-3.3414,-3.3414,-3.3414,-3.34,-3.324,-3.2893,-3.2447,-3.1938,-3.1543,-3.1343,-3.1343,-3.1183,-3.0889,-3.0641,-3.048,-3.0373,-3.002,-2.9913,-2.9913,-2.9913,-2.978,-2.9593,-2.9513,-2.9339,-2.9108,-2.9028,-2.9001,-2.9015,-2.9095,-2.9312,-2.9499,-2.9579,-2.9753,-2.9913,-2.9913,-2.9913,-2.9913,-2.9913,-2.9913,-2.986,-2.9646,-2.9606,-2.9539,-2.9268,-2.9242,-2.9242,-2.9242,-2.9242,-2.9108,-2.8778,-2.8724,-2.8764,-2.8845,-2.9032,-2.9285,-2.9579,-2.9406,-2.9335,-2.9593,-2.9325,-2.9121,-2.9121,-2.8841,-2.8724,-2.8724,-2.8724,-2.8724,-2.8724,-2.9018,-2.9121,-2.9165,-2.9472,-2.9486,-2.4146,-2.4488,-2.5086,-2.6042,-2.6338,-2.6693,-2.7927,-2.8178,-2.8373,-2.9378,-2.9867,-3.0431,-3.1435,-3.2166,-3.2661,-3.2906,-3.3467,-3.3868,-3.3868,-3.4122,-3.4295,-3.4295,-3.4295,-3.4309,-3.4309,-3.4322,-3.4442,-3.4788,-3.5017,-3.5177,-3.5177,-3.5177,-3.5177,-3.5164,-3.5164,-3.4883,-3.4309,-3.4295,-3.4002,-3.3414,-3.3414,-3.3414,-3.3387,-3.2875,-3.246,-3.2104,-3.1797,-3.1711,-3.1698,-3.1698,-3.1476,-3.1183,-3.0889,-3.0608,-3.0373,-3.002,-2.9913,-2.9913,-2.9913,-2.9913,-2.986,-2.9579,-2.9472,-2.9419,-2.9081,-2.9001,-2.9055,-2.9392,-2.9472,-2.9553,-2.9833,-2.9913,-2.9913,-2.9913,-2.9913,-2.9913,-2.9913,-2.9913,-2.9913,-2.99,-2.99,-2.99,-2.9887,-2.9887,-2.9887,-2.9887,-2.9887,-2.9673,-2.9055,-2.8988,-2.9095,-2.9419,-2.9459,-2.9593,-2.9873,-2.99,-2.99,-2.99,-2.9633,-2.9472,-2.9472,-2.9135,-2.8988,-2.8988,-2.8988,-2.8988,-2.8988,-2.9325,-2.9472,-2.9472,-2.9766,-2.99,-2.4633,-2.4928,-2.5361,-2.6203,-2.6955,-2.7671,-2.8465,-2.8976,-2.9438,-3.0002,-3.0206,-3.0537,-3.1216,-3.1851,-3.2478,-3.316,-3.3774,-3.4309,-3.4696,-3.4843,-3.4763,-3.4362,-3.4322,-3.4242,-3.4055,-3.4202,-3.4442,-3.4788,-3.4909,-3.499,-3.5191,-3.5191,-3.5191,-3.5191,-3.5004,-3.4869,-3.4616,-3.4229,-3.3935,-3.3721,-3.3507,-3.3414,-3.3387,-3.2862,-3.2541,-3.242,-3.1925,-3.1711,-3.1711,-3.1711,-3.161,-3.149,-3.1196,-3.0902,-3.0608,-3.0314,-3.0087,-2.9913,-2.9913,-2.9913,-2.99,-2.9806,-2.9766,-2.9753,-2.9646,-2.9619,-2.9602,-2.974,-2.9766,-2.9793,-2.9887,-2.9913,-2.9913,-2.9913,-2.9913,-2.9913,-2.9913,-2.9913,-2.9913,-2.9913,-2.9913,-2.9913,-2.9913,-2.9913,-2.9913,-2.9913,-2.9753,-2.9553,-2.9366,-2.9339,-2.9366,-2.9472,-2.9659,-2.9806,-2.9913,-2.9913,-2.9913,-2.9913,-2.982,-2.9766,-2.9766,-2.9486,-2.9339,-2.9339,-2.9339,-2.9339,-2.9339,-2.9633,-2.9766,-2.9766,-2.9873,-2.9913,-2.5357,-2.5793,-2.6318,-2.6996,-2.7885,-2.8653,-2.9083,-2.9556,-3.0007,-3.0346,-3.04,-3.0587,-3.1116,-3.1623,-3.2265,-3.3267,-3.3841,-3.4402,-3.5097,-3.511,-3.4897,-3.4523,-3.4389,-3.4242,-3.4055,-3.4122,-3.4336,-3.4788,-3.4909,-3.5004,-3.5191,-3.5191,-3.5191,-3.5191,-3.5017,-3.4922,-3.4815,-3.4282,-3.3935,-3.3721,-3.3507,-3.3414,-3.34,-3.2919,-3.2688,-3.2567,-3.2086,-3.177,-3.1711,-3.1711,-3.1711,-3.1684,-3.1343,-3.1049,-3.0755,-3.052,-3.0167,-2.9913,-2.9913,-2.9913,-2.9913,-2.9913,-2.9913,-2.9913,-2.9913,-2.9913,-2.9913,-2.9913,-2.9913,-2.9913,-2.9913,-2.9913,-2.9913,-2.9913,-2.9913,-2.9913,-2.9913,-2.9913,-2.9913,-2.9913,-2.9913,-2.9913,-2.9913,-2.9913,-2.9913,-2.9913,-2.9753,-2.9633,-2.9633,-2.9633,-2.9633,-2.9633,-2.9806,-2.9913,-2.9913,-2.9913,-2.9913,-2.9913,-2.9913,-2.9913,-2.9913,-2.974,-2.9633,-2.9633,-2.9633,-2.9633,-2.9633,-2.982,-2.9913,-2.9913,-2.9913,-2.9913,-2.6293,-2.7081,-2.7869,-2.8497,-2.9072,-2.9566,-2.9847,-2.9913,-2.9993,-3.0319,-3.0386,-3.056,-3.1076,-3.1436,-3.2038,-3.3177,-3.3681,-3.4189,-3.507,-3.4963,-3.4829,-3.4815,-3.4509,-3.4336,-3.4322,-3.4082,-3.4162,-3.4775,-3.5004,-3.5164,-3.5191,-3.5191,-3.5191,-3.5191,-3.5177,-3.5044,-3.4842,-3.4469,-3.4015,-3.3414,-3.3414,-3.3414,-3.34,-3.3106,-3.2875,-3.2594,-3.2238,-3.1944,-3.1738,-3.1724,-3.1711,-3.1684,-3.1356,-3.1076,-3.0782,-3.0547,-3.0207,-2.994,-2.994,-2.9927,-2.9913,-2.9913,-2.9913,-2.9913,-2.9913,-2.9913,-2.9913,-2.9913,-2.9913,-2.9913,-2.9913,-2.9913,-2.9913,-2.9913,-2.9913,-2.9913,-2.9913,-2.9913,-2.9913,-2.9913,-2.9927,-2.994,-2.9913,-2.9927,-2.994,-2.9913,-2.9913,-2.9913,-2.9913,-2.9913,-2.9913,-2.9913,-2.9913,-2.9913,-2.9913,-2.9913,-2.9913,-2.9913,-2.9913,-2.9913,-2.9913,-2.9913,-2.9913,-2.9913,-2.9913,-2.9913,-2.9913,-2.9913,-2.9913,-2.9913,-2.9913,-2.9913,-2.7148,-2.7696,-2.8272,-2.9058,-2.9379,-2.9566,-2.9847,-2.9913,-2.994,-3.0007,-3.0034,-3.014,-3.0515,-3.0996,-3.173,-3.2906,-3.3547,-3.4189,-3.507,-3.5137,-3.5004,-3.4842,-3.4696,-3.4563,-3.4336,-3.4456,-3.4655,-3.4802,-3.4629,-3.4736,-3.5177,-3.5191,-3.5191,-3.5191,-3.499,-3.495,-3.5084,-3.4576,-3.4015,-3.3414,-3.3414,-3.3414,-3.34,-3.3106,-3.2933,-3.2888,-3.2318,-3.2064,-3.1971,-3.1757,-3.1711,-3.1711,-3.1631,-3.137,-3.1102,-3.1036,-3.0688,-3.0293,-3.0293,-3.01,-2.9913,-2.9913,-2.9913,-2.9913,-2.9913,-2.9913,-2.9913,-2.9913,-2.9913,-2.9913,-2.9913,-2.9913,-2.9913,-2.9913,-2.9913,-2.9913,-2.9913,-2.9913,-2.9913,-2.9913,-3.01,-3.0181,-2.9953,-3.01,-3.0167,-2.9953,-2.9913,-2.9913,-2.9913,-2.9913,-2.9913,-2.9913,-2.9913,-2.9913,-2.9913,-2.9913,-2.9913,-2.9913,-2.9913,-2.9913,-2.9913,-2.9913,-2.9913,-2.9913,-2.9913,-2.9913,-2.9913,-2.9913,-2.9913,-2.9913,-2.9913,-2.9913,-2.7696,-2.8353,-2.8901,-2.9396,-2.9579,-2.9686,-2.9713,-2.982,-2.9887,-2.9753,-2.982,-2.9967,-3.014,-3.0541,-3.1223,-3.2398,-3.3093,-3.3841,-3.4857,-3.511,-3.5137,-3.4977,-3.495,-3.4883,-3.4723,-3.4736,-3.4869,-3.495,-3.4803,-3.4843,-3.5177,-3.5191,-3.5191,-3.5191,-3.5044,-3.491,-3.4817,-3.4482,-3.4015,-3.3414,-3.3414,-3.3414,-3.34,-3.324,-3.3093,-3.2946,-3.2541,-3.2225,-3.2078,-3.1784,-3.1711,-3.1724,-3.181,-3.1597,-3.1236,-3.137,-3.1049,-3.0574,-3.0453,-3.0293,-3.0087,-2.9953,-2.9913,-2.9913,-2.9913,-2.9913,-2.9913,-2.9913,-2.9913,-2.9913,-2.9913,-2.9913,-2.9913,-2.9913,-2.9913,-2.9913,-2.9913,-2.9913,-2.9953,-3.0087,-3.0293,-3.04,-3.0314,-3.0327,-3.0346,-3.014,-3.0007,-2.9913,-2.9913,-2.9913,-2.9913,-2.9913,-2.9913,-2.9913,-2.9913,-2.9913,-2.9913,-2.9913,-2.9913,-2.9913,-2.9913,-2.9913,-2.9913,-2.9913,-2.9913,-2.9913,-2.9913,-2.9913,-2.9913,-2.9913,-2.9913,-2.9913,-2.8192,-2.8928,-2.9499,-2.9526,-2.9726,-2.9847,-2.9553,-2.9713,-2.9833,-2.9539,-2.9713,-2.9913,-2.9913,-3.0154,-3.0788,-3.1917,-3.2559,-3.3347,-3.4524,-3.4977,-3.5151,-3.5191,-3.5191,-3.5191,-3.5191,-3.4963,-3.4923,-3.5177,-3.5191,-3.5191,-3.5191,-3.5191,-3.5177,-3.5137,-3.5177,-3.491,-3.4322,-3.4322,-3.4042,-3.3467,-3.3427,-3.3414,-3.3414,-3.3414,-3.328,-3.3013,-3.2781,-3.25,-3.2198,-3.1952,-3.1805,-3.1805,-3.2011,-3.177,-3.1316,-3.157,-3.1316,-3.0808,-3.056,-3.044,-3.036,-3.0007,-2.9913,-2.9913,-2.9913,-2.9913,-2.9913,-2.9913,-2.9913,-2.9913,-2.9913,-2.9913,-2.9913,-2.9913,-2.9913,-2.994,-3.002,-3.006,-3.0154,-3.0413,-3.0493,-3.0587,-3.0755,-3.0667,-3.0507,-3.0467,-3.0194,-3.0034,-3.0034,-2.9967,-2.9913,-2.9913,-2.9913,-2.9913,-2.9913,-2.9953,-2.998,-2.998,-2.998,-2.998,-2.998,-2.994,-2.9913,-2.9913,-2.9913,-2.9913,-2.9913,-2.9913,-2.9913,-2.9913,-2.9913,-2.9913,-2.9062,-2.9366,-2.9539,-2.978,-2.9887,-2.9847,-2.9553,-2.9713,-2.9833,-2.9539,-2.9713,-2.9913,-2.9913,-3.0154,-3.0788,-3.1917,-3.2447,-3.3169,-3.4563,-3.4803,-3.4923,-3.5164,-3.5191,-3.5191,-3.5191,-3.5151,-3.5137,-3.5191,-3.5191,-3.5191,-3.5191,-3.5191,-3.5084,-3.4895,-3.507,-3.491,-3.4322,-3.4322,-3.4148,-3.3801,-3.3534,-3.3414,-3.3414,-3.3414,-3.3387,-3.332,-3.3026,-3.2929,-3.2799,-3.2567,-3.23,-3.2038,-3.2078,-3.1891,-3.1597,-3.1698,-3.145,-3.1116,-3.0822,-3.0614,-3.036,-3.0007,-2.9913,-2.9913,-2.9913,-2.9913,-2.9913,-2.9913,-2.9913,-2.9913,-2.9913,-2.9913,-2.9913,-2.9913,-2.9913,-3.0047,-3.0541,-3.0835,-3.0942,-3.0755,-3.0915,-3.1022,-3.0822,-3.0955,-3.0996,-3.0755,-3.0675,-3.0635,-3.0635,-3.0221,-2.9913,-2.9913,-2.9913,-2.9913,-2.9913,-3.014,-3.0333,-3.0333,-3.0333,-3.0333,-3.0333,-3.0047,-2.9913,-2.9913,-2.9913,-2.9913,-2.9913,-2.9913,-2.9913,-2.9913,-2.9913,-2.9913,-2.9419,-2.9713,-2.978,-3.0074,-2.9913,-2.9606,-2.9325,-2.9366,-2.9419,-2.9285,-2.9486,-2.974,-2.9887,-3.0154,-3.0641,-3.1303,-3.1845,-3.2594,-3.3868,-3.4202,-3.4523,-3.5124,-3.5191,-3.5191,-3.5191,-3.5191,-3.5191,-3.5191,-3.5191,-3.5191,-3.5191,-3.5191,-3.5137,-3.499,-3.5124,-3.499,-3.4549,-3.4549,-3.4402,-3.4108,-3.3801,-3.3654,-3.3654,-3.3494,-3.3414,-3.34,-3.3106,-3.2973,-3.2959,-3.2714,-3.2514,-3.238,-3.238,-3.2158,-3.1891,-3.1891,-3.1717,-3.1396,-3.0942,-3.0795,-3.0715,-3.0114,-2.9913,-2.9913,-2.9913,-2.9913,-2.9953,-3.01,-3.014,-3.014,-3.014,-3.014,-3.014,-3.014,-3.0261,-3.0488,-3.0929,-3.1009,-3.1009,-3.1022,-3.1129,-3.1236,-3.1249,-3.1236,-3.1183,-3.1036,-3.0889,-3.0795,-3.0795,-3.0555,-3.0314,-3.0167,-3.0007,-2.998,-3.014,-3.0319,-3.0467,-3.0627,-3.0627,-3.056,-3.0413,-3.0266,-3.0074,-2.9913,-2.9913,-2.9913,-2.9913,-2.9913,-2.9913,-2.9913,-2.9913,-2.9913,-2.9539,-2.9873,-2.9967,-3.0253,-2.9873,-2.9406,-2.9068,-2.9001,-2.9001,-2.9001,-2.9272,-2.9579,-2.986,-3.0114,-3.0381,-3.0728,-3.1236,-3.1984,-3.316,-3.3641,-3.4189,-3.5004,-3.5164,-3.5191,-3.5191,-3.5191,-3.5191,-3.5191,-3.5191,-3.5191,-3.5191,-3.5191,-3.5191,-3.5191,-3.5191,-3.5084,-3.4909,-3.4842,-3.4643,-3.4416,-3.4122,-3.3948,-3.3881,-3.3627,-3.348,-3.34,-3.3173,-3.304,-3.2959,-3.2781,-3.2607,-3.25,-3.25,-3.2313,-3.2011,-3.2011,-3.1864,-3.1644,-3.1076,-3.0996,-3.1009,-3.0261,-3.0007,-2.9993,-2.994,-2.9913,-2.9967,-3.0207,-3.0306,-3.0319,-3.0386,-3.04,-3.044,-3.056,-3.0908,-3.1209,-3.137,-3.1289,-3.1236,-3.1463,-3.141,-3.141,-3.1717,-3.1517,-3.1316,-3.1316,-3.1129,-3.0982,-3.0982,-3.0929,-3.0795,-3.0568,-3.0274,-3.0194,-3.048,-3.056,-3.0635,-3.0875,-3.0889,-3.0755,-3.0507,-3.044,-3.0221,-2.9927,-2.9913,-2.9913,-2.9913,-2.998,-2.998,-2.9913,-2.998,-2.998,-2.9352,-2.9713,-2.9927,-2.9953,-2.9713,-2.9406,-2.9068,-2.9001,-2.9001,-2.9001,-2.9272,-2.9579,-2.986,-2.994,-3.014,-3.0702,-3.1062,-3.1677,-3.2853,-3.3521,-3.4108,-3.4788,-3.5044,-3.5191,-3.5191,-3.5191,-3.5191,-3.5191,-3.5191,-3.5191,-3.5191,-3.5191,-3.5191,-3.5191,-3.5191,-3.5177,-3.5151,-3.4897,-3.4802,-3.4775,-3.4416,-3.4148,-3.3881,-3.3855,-3.3681,-3.3414,-3.3387,-3.3227,-3.2973,-3.2946,-3.2625,-3.2144,-3.2144,-3.1971,-3.1751,-3.1751,-3.1738,-3.1671,-3.1303,-3.1036,-3.0768,-3.048,-3.036,-3.0319,-2.9993,-2.9913,-2.9927,-2.9953,-2.9953,-3.002,-3.0333,-3.04,-3.0533,-3.1022,-3.1784,-3.2367,-3.2078,-3.226,-3.2447,-3.246,-3.2045,-3.1717,-3.2011,-3.1824,-3.1623,-3.1623,-3.161,-3.1631,-3.1631,-3.1356,-3.1122,-3.1156,-3.0889,-3.0728,-3.0755,-3.0996,-3.1156,-3.1136,-3.1136,-3.1049,-3.0768,-3.0547,-3.0221,-2.9927,-2.9913,-2.9913,-2.9913,-3.0226,-3.0181,-2.9927,-3.0194,-3.0181,-2.9219,-2.97,-2.9967,-3.014,-2.97,-2.9135,-2.9028,-2.8868,-2.8831,-2.8961,-2.9272,-2.9579,-2.986,-2.9913,-2.9993,-3.0221,-3.0354,-3.0782,-3.1784,-3.2291,-3.2973,-3.4108,-3.4496,-3.4803,-3.5164,-3.5191,-3.5191,-3.5191,-3.5191,-3.5191,-3.5191,-3.5191,-3.5191,-3.5191,-3.5191,-3.5191,-3.5191,-3.5084,-3.5017,-3.5017,-3.4723,-3.4523,-3.4454,-3.4055,-3.3814,-3.3681,-3.3494,-3.324,-3.2973,-3.2973,-3.2732,-3.2393,-3.2171,-3.2024,-3.1904,-3.1778,-3.1711,-3.1671,-3.133,-3.1263,-3.1256,-3.0614,-3.052,-3.0528,-3.006,-2.9913,-2.9993,-3.0341,-3.0448,-3.0515,-3.0808,-3.1009,-3.1256,-3.1436,-3.2086,-3.2567,-3.2447,-3.2514,-3.2594,-3.2594,-3.2407,-3.2219,-3.2118,-3.2158,-3.2126,-3.1764,-3.1824,-3.1864,-3.1738,-3.157,-3.149,-3.149,-3.1076,-3.0862,-3.1036,-3.1156,-3.1303,-3.1476,-3.149,-3.1356,-3.1062,-3.0942,-3.0742,-3.0448,-3.0448,-3.0448,-3.0448,-3.0568,-3.0474,-3.0194,-3.0488,-3.0368,-2.8925,-2.9499,-2.986,-3.0154,-2.97,-2.9108,-2.9015,-2.8841,-2.8748,-2.8948,-2.9272,-2.9579,-2.986,-2.9913,-2.9913,-2.9913,-2.9993,-3.0327,-3.1116,-3.1557,-3.2251,-3.3467,-3.3868,-3.4282,-3.4883,-3.5097,-3.5191,-3.5191,-3.5191,-3.5191,-3.5191,-3.5191,-3.5191,-3.5191,-3.5191,-3.5191,-3.5191,-3.5191,-3.5191,-3.5191,-3.499,-3.4803,-3.4616,-3.4202,-3.3921,-3.3734,-3.3507,-3.324,-3.2973,-3.2929,-3.2728,-3.2433,-3.2091,-3.1971,-3.1944,-3.1791,-3.1711,-3.1684,-3.1423,-3.1436,-3.1436,-3.0868,-3.0702,-3.0715,-3.0301,-3.0114,-3.014,-3.0555,-3.0795,-3.0969,-3.1169,-3.1503,-3.1824,-3.1952,-3.2353,-3.2741,-3.2835,-3.2781,-3.2755,-3.2835,-3.2714,-3.2554,-3.2385,-3.2514,-3.246,-3.2032,-3.2152,-3.2158,-3.2005,-3.1979,-3.1979,-3.1979,-3.1604,-3.133,-3.1356,-3.1436,-3.1543,-3.1711,-3.1744,-3.1623,-3.1236,-3.1176,-3.1089,-3.0795,-3.0795,-3.0795,-3.0795,-3.0875,-3.0768,-3.0533,-3.0782,-3.0648,-2.8377,-2.9045,-2.9566,-2.9847,-2.97,-2.9406,-2.9068,-2.8988,-2.8988,-2.9001,-2.9272,-2.9579,-2.986,-2.9913,-2.9913,-2.9913,-3.0167,-3.0555,-3.1142,-3.173,-3.2318,-3.2919,-3.324,-3.3654,-3.4269,-3.4857,-3.5191,-3.5191,-3.5191,-3.5191,-3.5191,-3.5191,-3.5191,-3.5191,-3.5191,-3.5191,-3.5191,-3.5191,-3.5191,-3.5191,-3.5191,-3.4883,-3.4322,-3.4322,-3.3988,-3.3414,-3.3414,-3.324,-3.2959,-3.2714,-3.242,-3.2078,-3.1784,-3.1724,-3.1724,-3.1711,-3.1711,-3.1711,-3.1711,-3.1476,-3.1176,-3.1176,-3.1022,-3.0795,-3.0782,-3.0627,-3.04,-3.0413,-3.0782,-3.1223,-3.1176,-3.1664,-3.2171,-3.2514,-3.2808,-3.3053,-3.3334,-3.3173,-3.3053,-3.3347,-3.2933,-3.2688,-3.2969,-3.2781,-3.2594,-3.2581,-3.2581,-3.2581,-3.2581,-3.2581,-3.2581,-3.2581,-3.2581,-3.234,-3.1764,-3.1931,-3.1971,-3.1738,-3.1944,-3.1837,-3.1203,-3.1176,-3.1089,-3.0795,-3.0795,-3.0795,-3.0795,-3.1076,-3.1076,-3.0795,-3.1089,-3.1062,-2.7657,-2.827,-2.8911,-2.9005,-2.8791,-2.8647,-2.8711,-2.8855,-2.9001,-2.9001,-2.9388,-2.9806,-2.99,-2.9913,-2.9913,-2.9913,-2.9993,-3.0194,-3.0581,-3.1142,-3.1864,-3.2866,-3.3961,-3.471,-3.4897,-3.5084,-3.5191,-3.5191,-3.5191,-3.5191,-3.5191,-3.5191,-3.5191,-3.5191,-3.5191,-3.5191,-3.5191,-3.5191,-3.5191,-3.5191,-3.5191,-3.499,-3.4616,-3.4416,-3.4108,-3.3721,-3.3507,-3.324,-3.2973,-3.2929,-3.2714,-3.242,-3.2078,-3.1971,-3.1944,-3.1791,-3.1711,-3.1711,-3.1711,-3.161,-3.149,-3.1289,-3.1122,-3.1049,-3.0849,-3.0728,-3.0702,-3.0902,-3.1223,-3.153,-3.153,-3.2005,-3.2433,-3.2265,-3.2772,-3.324,-3.3133,-3.32,-3.3307,-3.3387,-3.3267,-3.3106,-3.3,-3.3066,-3.3,-3.2661,-3.2768,-3.2822,-3.2621,-3.2594,-3.2594,-3.2594,-3.2594,-3.2514,-3.2326,-3.2171,-3.2064,-3.1971,-3.1864,-3.1717,-3.153,-3.153,-3.149,-3.1443,-3.1443,-3.1443,-3.1443,-3.149,-3.1476,-3.143,-3.1076,-3.0982,-2.7215,-2.7884,-2.8457,-2.8577,-2.8537,-2.8511,-2.8591,-2.8925,-2.9135,-2.9015,-2.9468,-2.9913,-2.9913,-2.9913,-2.9913,-2.9913,-2.9913,-3.006,-3.0461,-3.0929,-3.1664,-3.2839,-3.4095,-3.487,-3.487,-3.507,-3.5191,-3.5191,-3.5191,-3.5191,-3.5191,-3.5191,-3.5151,-3.5044,-3.5137,-3.5191,-3.5191,-3.5191,-3.5191,-3.5191,-3.5084,-3.4883,-3.4589,-3.4295,-3.3988,-3.3694,-3.3494,-3.3307,0.0,-3.3026,-3.2915,-3.2728,-3.2433,-3.2265,-3.2251,-3.2112,-3.2045,-3.2032,-3.1877,-3.1837,-3.1784,-3.149,-3.1396,-3.1356,-3.1183,-3.1049,-3.1022,-3.1316,-3.161,-3.1837,-3.1837,-3.2233,-3.2581,-3.2452,-3.2853,-3.3227,-3.316,-3.328,-3.3414,-3.3414,-3.3414,-3.336,-3.3173,-3.3293,-3.3293,-3.2933,-3.3026,-3.308,-3.2942,-3.2929,-3.2929,-3.2929,-3.2929,-3.2929,-3.2929,-3.2599,-3.2345,-3.2118,-3.2144,-3.2166,-3.2059,-3.1938,-3.1837,-3.1837,-3.1764,-3.1711,-3.1711,-3.1711,-3.1711,-3.1711,-3.1289,-3.1223,0.0,-2.763,-2.8138,-2.843,-2.8668,-2.8801,-2.8604,-2.8991,0.0,-2.9041,-2.9442,-2.9887,-2.9913,-2.9913,-2.9913,-2.9913,-2.9913,-3.0114,-3.0688,-3.1102,-3.1784,-3.2933,-3.3855,-3.4376,-3.4376,-3.487,-3.5191,-3.5191,-3.5191,-3.5191,-3.5191,-3.5191,-3.5057,-3.4829,-3.5017,-3.5151,-3.5137,-3.5151,-3.5164,-3.5164,-3.4858,-3.4564,-3.4309,-3.4042,-3.3734,-3.3414,-3.3414,-3.3414,-3.3387,-3.312,-3.3013,-3.2986,-3.2741,-3.2621,-3.2621,-3.2607,-3.2581,-3.2527,-3.2225,-3.2104,-3.2024,-3.1805,-3.1711,-3.1711,-3.1711,-3.149,-3.1343,-3.1623,-3.1904,-3.2131,-3.2131,-3.2407,-3.2688,-3.2969,-3.2986,-3.308,-3.336,-3.3414,-3.3414,-3.3414,-3.3414,-3.3414,-3.3414,-3.3414,-3.3414,-3.3414,-3.3414,-3.3414,-3.3414,-3.3414,-3.3414,-3.3414,-3.3414,-3.34,-3.3387,-3.3133,-3.2746,-3.2198,-3.2652,-3.2862,-3.2581,-3.2251,-3.2091,-3.2078,-3.181,-3.1711,-3.1711,-3.1711,-3.1711,-3.1711,-3.1711,-3.1711,-2.6131,0.0,-2.6961,-2.7455,-2.7629,-2.7722,0.0,-2.8377,-2.8858,-2.8961,-2.9325,-2.9659,-2.9873,-2.9913,-2.9913,-2.9913,-2.9913,-3.0047,-3.0453,-3.1724,-3.2919,-3.3895,-3.4589,-3.499,-3.499,-3.511,-3.5191,-3.5191,-3.5191,-3.5191,-3.5191,-3.5191,-3.5057,-3.4829,-3.4882,-3.4763,-3.4523,-3.475,-3.487,-3.4922,-3.5017,-3.4817,-3.4322,-3.4242,-3.3921,-3.3414,-3.3414,-3.3414,-3.3414,-3.3334,-3.3307,-3.328,-3.2986,-3.2929,-3.2902,-3.2674,-3.2447,-3.2225,-3.2433,-3.2193,-3.1757,-3.1738,-3.1711,-3.1711,-3.1711,-3.177,-3.1917,-3.1984,-3.226,-3.2487,-3.2487,-3.2701,-3.2942,-3.3009,-3.3146,-3.3334,-3.34,-3.3414,-3.3414,-3.3414,-3.3414,-3.3414,-3.3414,-3.3414,-3.3414,-3.3414,-3.3414,-3.3414,-3.3414,-3.3414,-3.3414,-3.3414,-3.3414,-3.332,-3.3093,-3.3013,-3.2919,-3.2786,-3.2741,-3.2567,-3.2225,-3.2144,-3.1998,-3.1818,-3.1751,-3.1711,-3.1711,-3.1711,-3.1711,-3.1711,-3.1711,-3.1711,-2.5598,-2.6266,-2.6894,-2.7348,-2.7603,-2.7791,-2.8043,-2.8257,-2.8484,-2.8778,-2.9072,-2.9366,-2.9659,-2.9713,-2.9766,-2.99,-2.9913,-3.0167,-3.0908,-3.2251,-3.3427,-3.4042,-3.4643,-3.5004,-3.5004,-3.5004,-3.5057,-3.5191,-3.5191,-3.5191,-3.5191,-3.5191,-3.5004,-3.4576,-3.4563,-3.4482,-3.4322,-3.4482,-3.4563,-3.4563,-3.4589,-3.4496,-3.4322,-3.4189,-3.4015,-3.3828,-3.3694,-3.3627,-3.3614,-3.3467,-3.3414,-3.34,-3.324,-3.3173,-3.316,-3.3,-3.2839,-3.2692,-3.2634,-3.2206,-3.1711,-3.1711,-3.1757,-3.1864,-3.1864,-3.2171,-3.2452,-3.2185,-3.2412,-3.2795,-3.2795,-3.2959,-3.3173,-3.3173,-3.3293,-3.3414,-3.3414,-3.3414,-3.3414,-3.3414,-3.3414,-3.3414,-3.3414,-3.3414,-3.3414,-3.3414,-3.3414,-3.3414,-3.3414,-3.3414,-3.3414,-3.3414,-3.3414,-3.3293,-3.3,-3.2973,-3.2973,-3.2973,-3.2755,-3.2581,-3.2505,-3.2251,-3.1971,-3.1724,-3.1711,-3.1711,-3.1711,-3.1711,-3.1711,-3.1711,-3.1711,-3.1791,-2.5411,-2.64,-2.7349,-2.7455,-2.7804,-2.8125,-2.8337,-2.8272,-2.8219,-2.8537,-2.8761,-2.9028,-2.9419,-2.9486,-2.9593,-2.9927,-3.002,-3.0434,-3.1564,-3.2612,-3.3454,-3.3841,-3.4362,-3.4696,-3.4696,-3.4788,-3.487,-3.511,-3.5177,-3.5177,-3.5137,-3.5137,-3.4857,-3.4269,-3.4255,-3.4229,-3.4175,-3.4229,-3.4255,-3.4255,-3.4095,-3.4122,-3.4309,-3.4108,-3.4135,-3.4309,-3.4055,-3.3921,-3.3868,-3.3587,-3.3454,-3.3414,-3.3414,-3.3414,-3.3414,-3.3414,-3.3387,-3.3267,-3.2728,-3.2193,-3.173,-3.1724,-3.1864,-3.2091,-3.2051,-3.2478,-3.2866,-3.2318,-3.2585,-3.304,-3.304,-3.3227,-3.3414,-3.3414,-3.3414,-3.3414,-3.3414,-3.3414,-3.3414,-3.3414,-3.3414,-3.3414,-3.3414,-3.3414,-3.3414,-3.3414,-3.3414,-3.3414,-3.3414,-3.3414,-3.3414,-3.3414,-3.3414,-3.3293,-3.3,-3.2933,-3.2969,-3.2969,-3.2768,-3.2755,-3.2955,-3.2345,-3.1917,-3.1724,-3.1711,-3.1711,-3.1711,-3.1711,-3.1711,-3.1711,-3.1764,-3.1864,-2.5703,-2.66,-2.7202,-2.6707,-2.7041,-2.7456,-2.7496,-2.7629,-2.7923,-2.8497,-2.8644,-2.8845,-2.9379,-2.9486,-2.9659,-3.0253,-3.0501,-3.0889,-3.1617,-3.23,-3.3036,-3.3788,-3.4189,-3.4389,-3.4389,-3.4616,-3.4829,-3.4882,-3.5057,-3.5084,-3.4895,-3.4882,-3.4563,-3.3975,-3.3948,-3.3828,-3.3547,-3.3814,-3.3948,-3.3961,-3.4467,-3.4523,-3.4322,-3.4536,-3.4523,-3.4322,-3.4269,-3.4108,-3.3881,-3.3841,-3.3654,-3.3414,-3.3414,-3.3414,-3.3414,-3.3414,-3.3253,-3.2959,-3.2372,-3.2104,-3.1998,-3.1744,-3.1864,-3.2051,-3.181,-3.2318,-3.2906,-3.2621,-3.2942,-3.3347,-3.3347,-3.3374,-3.3414,-3.3414,-3.3414,-3.3414,-3.3414,-3.3414,-3.3414,-3.3414,-3.3414,-3.3414,-3.3414,-3.3414,-3.3414,-3.3414,-3.3414,-3.3414,-3.3414,-3.3414,-3.3414,-3.3414,-3.3414,-3.3293,-3.3,-3.2808,-3.2661,-3.2661,-3.2848,-3.2875,-3.2674,-3.2099,-3.1764,-3.1711,-3.1711,-3.1711,-3.1711,-3.1711,-3.1711,-3.1724,-3.1917,-3.2064,-2.513,-2.5931,-2.6573,-2.6413,-2.7308,-2.823,-2.823,-2.8203,-2.831,-2.8751,-2.8801,-2.8978,-2.9406,-2.9486,-2.9717,-3.0306,-3.0742,-3.1236,-3.1824,-3.246,-3.3036,-3.3561,-3.3895,-3.4082,-3.4082,-3.4215,-3.4467,-3.4788,-3.4736,-3.4736,-3.4815,-3.4815,-3.4548,-3.3908,-3.4042,-3.3895,-3.3414,-3.3561,-3.3721,-3.3895,-3.4162,-3.4389,-3.4563,-3.4748,-3.4776,-3.479,-3.4629,-3.4482,-3.4336,-3.4015,-3.3801,-3.3654,-3.348,-3.3414,-3.3414,-3.3414,-3.3133,-3.2755,-3.2487,-3.2179,-3.1851,-3.1764,-3.1864,-3.2078,-3.1944,-3.2412,-3.2946,-3.2862,-3.308,-3.3414,-3.3414,-3.3414,-3.3414,-3.3414,-3.3414,-3.3414,-3.3414,-3.3414,-3.3414,-3.3414,-3.3414,-3.3414,-3.3414,-3.3414,-3.3414,-3.3414,-3.3414,-3.3414,-3.3414,-3.3414,-3.3414,-3.3414,-3.3267,-3.3066,-3.2822,-3.2527,-3.2286,-3.2126,-3.2393,-3.2372,-3.2139,-3.1858,-3.1711,-3.1711,-3.1824,-3.1904,-3.1904,-3.2112,-3.2193,-3.2193,-3.2326,-3.2474,-2.4773,-2.5438,-2.6172,-2.6413,-2.7509,-2.8548,-2.8828,-2.8657,-2.8511,-2.8908,-2.9001,-2.9081,-2.9432,-2.9637,-2.9878,-3.0333,-3.0849,-3.1436,-3.2024,-3.2545,-3.3013,-3.3374,-3.3694,-3.3855,-3.3788,-3.3908,-3.4148,-3.4588,-3.4416,-3.4389,-3.4601,-3.4614,-3.4322,-3.3788,-3.3988,-3.3881,-3.3414,-3.3414,-3.3574,-3.3881,-3.3961,-3.4269,-3.4815,-3.4882,-3.499,-3.5191,-3.4963,-3.479,-3.4629,-3.4175,-3.3908,-3.3748,-3.3507,-3.3414,-3.3414,-3.3414,-3.304,-3.2594,-3.2594,-3.2206,-3.1711,-3.1711,-3.1864,-3.2104,-3.2104,-3.2465,-3.2929,-3.2929,-3.3093,-3.332,-3.3387,-3.3414,-3.3414,-3.3414,-3.3414,-3.3414,-3.3414,-3.3414,-3.3414,-3.3414,-3.3414,-3.3414,-3.3414,-3.3414,-3.3414,-3.3414,-3.3414,-3.3414,-3.3414,-3.3414,-3.3414,-3.3414,-3.3146,-3.2888,-3.2514,-3.2171,-3.1931,-3.1784,-3.1917,-3.1957,-3.1925,-3.1858,-3.1845,-3.1925,-3.2091,-3.2211,-3.2211,-3.2487,-3.2594,-3.2594,-3.2661,-3.2808,-2.5266,-2.5892,-2.6426,-2.672,-2.6894,-2.7227,-2.839,-2.819,-2.8003,-2.8815,-2.9001,-2.9081,-2.9432,-2.9972,-3.036,-3.04,-3.0849,-3.1436,-3.2024,-3.242,-3.2835,-3.3347,-3.3694,-3.3774,-3.3467,-3.3961,-3.4189,-3.3961,-3.4175,-3.4215,-3.3961,-3.3948,-3.3801,-3.3454,-3.3467,-3.3454,-3.3414,-3.3414,-3.3574,-3.3895,-3.4162,-3.4456,-3.4829,-3.5044,-3.5177,-3.5191,-3.5177,-3.4857,-3.4349,-3.4309,-3.3961,-3.344,-3.3414,-3.3414,-3.3414,-3.3414,-3.304,-3.2594,-3.2594,-3.2206,-3.1711,-3.1711,-3.1864,-3.2104,-3.2104,-3.2367,-3.2621,-3.2621,-3.2835,-3.3066,-3.3347,-3.3414,-3.3414,-3.3414,-3.3414,-3.3414,-3.3414,-3.3414,-3.3414,-3.3414,-3.3414,-3.3414,-3.3414,-3.3414,-3.3414,-3.3414,-3.3414,-3.3414,-3.3414,-3.3414,-3.3414,-3.3414,-3.3146,-3.2746,-3.2185,-3.1864,-3.181,-3.2051,-3.1837,-3.1979,-3.2514,-3.2211,-3.2198,-3.2527,-3.2554,-3.2567,-3.2567,-3.2581,-3.2594,-3.2607,-3.2875,-3.2959,-2.4866,-2.5665,-2.6453,-2.6747,-2.7094,-2.7589,-2.8417,-2.8711,-2.8951,-2.9472,-2.9535,-2.9619,-2.9726,-3.0132,-3.0467,-3.0595,-3.0969,-3.149,-3.2313,-3.2527,-3.2808,-3.3347,-3.3521,-3.3547,-3.3427,-3.3614,-3.3788,-3.3881,-3.3801,-3.3868,-3.4148,-3.4162,-3.4108,-3.3975,-3.3975,-3.3895,-3.3708,-3.3507,-3.3668,-3.4162,-3.4269,-3.4563,-3.5044,-3.5151,-3.5191,-3.5191,-3.5191,-3.4963,-3.4576,-3.4402,-3.4082,-3.3681,-3.3494,-3.3414,-3.3414,-3.3414,-3.304,-3.2594,-3.2594,-3.2206,-3.1751,-3.1877,-3.1891,-3.1904,-3.2313,-3.25,-3.2634,-3.2808,-3.3026,-3.3227,-3.316,-3.328,-3.3414,-3.3414,-3.3414,-3.3414,-3.3414,-3.3414,-3.3414,-3.3414,-3.3414,-3.3414,-3.3414,-3.3414,-3.3414,-3.3414,-3.3414,-3.3414,-3.3414,-3.3414,-3.3414,-3.3414,-3.2986,-3.2514,-3.1877,-3.1778,-3.1797,-3.2078,-3.1998,-3.2118,-3.2581,-3.2487,-3.2474,-3.2594,-3.2768,-3.2862,-3.2862,-3.3,-3.308,-3.3093,-3.32,-3.3253,-2.4783,-2.5504,-2.6346,-2.6734,-2.7268,-2.7883,-2.8591,-2.8978,-2.9339,-2.982,-2.9913,-2.9913,-2.9913,-3.0154,-3.0493,-3.0742,-3.1116,-3.1637,-3.2487,-3.2674,-3.2915,-3.336,-3.3494,-3.3521,-3.3427,-3.3507,-3.3614,-3.3734,-3.3534,-3.3587,-3.4015,-3.4122,-3.4135,-3.4042,-3.4135,-3.4042,-3.3734,-3.3521,-3.3668,-3.4189,-3.4282,-3.4629,-3.5191,-3.5191,-3.5191,-3.5191,-3.5191,-3.4977,-3.4603,-3.4402,-3.4082,-3.3721,-3.3494,-3.3414,-3.3414,-3.3414,-3.3106,-3.2728,-3.2728,-3.2407,-3.2032,-3.2171,-3.2104,-3.2086,-3.2581,-3.2661,-3.2661,-3.2942,-3.312,-3.3227,-3.3026,-3.32,-3.3414,-3.3414,-3.3414,-3.3414,-3.3414,-3.3414,-3.3414,-3.3414,-3.3414,-3.3414,-3.3414,-3.3414,-3.3414,-3.3414,-3.3414,-3.3414,-3.3414,-3.3414,-3.3374,-3.328,-3.2969,-3.2527,-3.2032,-3.1992,-3.2112,-3.2358,-3.2385,-3.2465,-3.2728,-3.2728,-3.2781,-3.2862,-3.3013,-3.312,-3.312,-3.332,-3.3414,-3.3414,-3.3414,-3.3414,-2.5115,-2.5543,-2.6145,-2.668,-2.7268,-2.7936,-2.8801,-2.8775,-2.8858,-2.974,-2.9913,-2.9913,-2.9913,-3.0154,-3.0493,-3.0742,-3.1276,-3.1925,-3.2514,-3.2848,-3.308,-3.3374,-3.3694,-3.3761,-3.344,-3.3694,-3.3748,-3.3427,-3.3414,-3.3414,-3.3414,-3.3721,-3.3748,-3.3427,-3.3721,-3.3734,-3.3414,-3.3414,-3.3574,-3.3895,-3.4175,-3.4616,-3.5191,-3.5191,-3.5191,-3.5191,-3.5191,-3.4857,-3.4322,-3.4309,-3.3961,-3.3414,-3.3414,-3.3414,-3.3414,-3.3414,-3.3227,-3.2973,-3.2973,-3.2835,-3.2594,-3.2594,-3.2594,-3.2648,-3.2942,-3.2835,-3.2661,-3.2955,-3.2986,-3.2986,-3.2986,-3.32,-3.3414,-3.3414,-3.3414,-3.3414,-3.3414,-3.3414,-3.3414,-3.3414,-3.3414,-3.3414,-3.3414,-3.3414,-3.3414,-3.3414,-3.3414,-3.3414,-3.3414,-3.3414,-3.3293,-3.3013,-3.2973,-3.2915,-3.2621,-3.2594,-3.2714,-3.2959,-3.2973,-3.2973,-3.2986,-3.2986,-3.312,-3.34,-3.3414,-3.3414,-3.3414,-3.3414,-3.3414,-3.3414,-3.3414,-3.3414,-2.4823,-2.5504,-2.6346,-2.6734,-2.7589,-2.8511,-2.9192,-2.9285,-2.9352,-2.982,-2.9913,-2.9913,-2.9913,-3.0154,-3.0493,-3.0742,-3.1116,-3.1637,-3.2487,-3.2674,-3.2902,-3.336,-3.3494,-3.3507,-3.3427,-3.3494,-3.3507,-3.3414,-3.3414,-3.3507,-3.3734,-3.4028,-3.4148,-3.4055,-3.4148,-3.4042,-3.3748,-3.3521,-3.3574,-3.3881,-3.3975,-3.4215,-3.4589,-3.5004,-3.4977,-3.4603,-3.5017,-3.475,-3.4002,-3.3774,-3.3574,-3.3414,-3.3414,-3.3414,-3.3414,-3.3414,-3.3227,-3.2973,-3.2973,-3.2835,-3.2621,-3.2835,-3.2755,-3.2688,-3.3133,-3.308,-3.2955,-3.32,-3.328,-3.328,-3.328,-3.3347,-3.3414,-3.3414,-3.3414,-3.3414,-3.3414,-3.3414,-3.3414,-3.3414,-3.3414,-3.3414,-3.3414,-3.3414,-3.3414,-3.3414,-3.3414,-3.3414,-3.3414,-3.3414,-3.3293,-3.3013,-3.2973,-3.2915,-3.2621,-3.2594,-3.2714,-3.2959,-3.2973,-3.3066,-3.328,-3.328,-3.332,-3.3414,-3.3414,-3.3414,-3.3414,-3.3414,-3.3414,-3.3414,-3.3414,-3.3414,-2.5317,-2.6026,-2.6867,-2.7402,-2.8121,-2.8938,-2.9526,-2.9659,-2.97,-2.9887,-2.9913,-2.9953,-3.0074,-3.0327,-3.0621,-3.0915,-3.1303,-3.1797,-3.25,-3.2701,-3.2982,-3.3534,-3.3494,-3.3467,-3.3587,-3.348,-3.3414,-3.3414,-3.3414,-3.3494,-3.3694,-3.4095,-3.4202,-3.3961,-3.4189,-3.4122,-3.3708,-3.3507,-3.3507,-3.3694,-3.3828,-3.3908,-3.3988,-3.4696,-3.4897,-3.467,-3.479,-3.4549,-3.4028,-3.3587,-3.3414,-3.3414,-3.3414,-3.3414,-3.3414,-3.3414,-3.3293,-3.3146,-3.3146,-3.304,-3.2919,-3.3093,-3.3026,-3.3009,-3.3307,-3.3293,-3.3187,-3.336,-3.3414,-3.3414,-3.3414,-3.3414,-3.3414,-3.3414,-3.3414,-3.3414,-3.3414,-3.3414,-3.3414,-3.3414,-3.3414,-3.3414,-3.3414,-3.3414,-3.3414,-3.3414,-3.3414,-3.3414,-3.3414,-3.3414,-3.3347,-3.3173,-3.3146,-3.308,-3.2955,-3.2942,-3.3009,-3.3146,-3.3146,-3.3227,-3.34,-3.3414,-3.3414,-3.3414,-3.3414,-3.3414,-3.3414,-3.3414,-3.3414,-3.3414,-3.3414,-3.3414,-2.6199,-2.6774,-2.7483,-2.8377,-2.8828,-2.9215,-2.9748,-2.9913,-2.9913,-2.9913,-2.9913,-2.9993,-3.0319,-3.0581,-3.0875,-3.1142,-3.1677,-3.2171,-3.2554,-3.2822,-3.321,-3.3774,-3.3587,-3.3521,-3.3814,-3.3574,-3.3427,-3.3454,-3.3427,-3.344,-3.3494,-3.3988,-3.4028,-3.3467,-3.3988,-3.4002,-3.3414,-3.3414,-3.3414,-3.3414,-3.3708,-3.3708,-3.348,-3.4336,-3.487,-3.5084,-3.4523,-3.4282,-3.4242,-3.3654,-3.3414,-3.3414,-3.3414,-3.3414,-3.3414,-3.3414,-3.3414,-3.3414,-3.3414,-3.3414,-3.3414,-3.3414,-3.3414,-3.3414,-3.3414,-3.3414,-3.3414,-3.3414,-3.3414,-3.3414,-3.3414,-3.3414,-3.3414,-3.3414,-3.3414,-3.3414,-3.3414,-3.3414,-3.3414,-3.3414,-3.3414,-3.3414,-3.3414,-3.3414,-3.3414,-3.3414,-3.3414,-3.3414,-3.3414,-3.3414,-3.3414,-3.3414,-3.3414,-3.3414,-3.3414,-3.3414,-3.3414,-3.3414,-3.3414,-3.3414,-3.3414,-3.3414,-3.3427,-3.3454,-3.3454,-3.3467,-3.3494,-3.3467,-3.3454,-3.3454,-3.3427,-3.3414,-2.6051,-2.648,-2.7188,-2.8323,-2.9165,-2.9753,-2.9887,-2.9913,-2.9913,-2.9913,-2.9913,-2.994,-3.0007,-3.0434,-3.0808,-3.0875,-3.1383,-3.1992,-3.2527,-3.2648,-3.2902,-3.344,-3.3454,-3.344,-3.3507,-3.3454,-3.3507,-3.3761,-3.3547,-3.3614,-3.4095,-3.4028,-3.3921,-3.3788,-3.3908,-3.3801,-3.3414,-3.3414,-3.3414,-3.3414,-3.348,-3.3614,-3.3801,-3.4229,-3.4442,-3.4482,-3.4135,-3.3975,-3.3948,-3.3574,-3.3414,-3.3414,-3.3414,-3.3414,-3.3414,-3.3414,-3.3414,-3.3414,-3.3414,-3.3414,-3.3414,-3.3414,-3.3414,-3.3414,-3.3414,-3.3414,-3.3414,-3.3414,-3.3414,-3.3414,-3.3414,-3.3414,-3.3414,-3.3414,-3.3414,-3.3414,-3.3414,-3.3414,-3.3414,-3.3414,-3.3414,-3.3414,-3.3414,-3.3414,-3.3414,-3.3414,-3.3414,-3.3414,-3.3414,-3.3414,-3.3414,-3.3414,-3.3414,-3.3414,-3.3414,-3.3414,-3.3414,-3.3414,-3.3414,-3.3414,-3.3414,-3.3414,-3.3534,-3.3788,-3.3788,-3.3895,-3.4122,-3.3895,-3.3788,-3.3774,-3.3534,-3.3414,-2.6466,-2.6907,-2.7562,-2.8898,-2.9579,-2.9913,-2.9913,-2.9913,-2.9953,-3.01,-3.0127,-3.0207,-3.0488,-3.0795,-3.1049,-3.1196,-3.1583,-3.2086,-3.2527,-3.2714,-3.3022,-3.3574,-3.3507,-3.3467,-3.3627,-3.3494,-3.348,-3.3641,-3.3507,-3.3614,-3.4082,-3.4095,-3.4028,-3.3895,-3.4015,-3.3868,-3.3414,-3.3414,-3.3414,-3.3414,-3.3414,-3.3494,-3.3681,-3.4122,-3.4322,-3.4309,-3.4015,-3.3881,-3.3855,-3.3547,-3.3414,-3.3414,-3.3414,-3.3414,-3.3414,-3.3414,-3.3414,-3.3414,-3.3414,-3.3414,-3.3414,-3.3414,-3.3414,-3.3414,-3.3414,-3.3414,-3.3414,-3.3414,-3.3414,-3.3414,-3.3414,-3.3414,-3.3414,-3.3414,-3.3414,-3.3414,-3.3414,-3.3414,-3.3414,-3.3414,-3.3414,-3.3414,-3.3414,-3.3414,-3.3414,-3.3414,-3.3414,-3.3414,-3.3414,-3.3414,-3.3414,-3.3414,-3.3414,-3.3414,-3.3414,-3.3414,-3.3414,-3.3414,-3.3414,-3.3414,-3.3414,-3.3414,-3.3494,-3.3654,-3.3814,-3.3961,-3.4108,-3.4095,-3.4028,-3.3881,-3.3855,-3.3774,-2.672,-2.7402,-2.8177,-2.9513,-2.9887,-2.9913,-2.9913,-2.9913,-3.0007,-3.0346,-3.04,-3.0574,-3.1049,-3.1196,-3.1316,-3.1671,-3.1917,-3.2225,-3.2621,-3.2875,-3.3187,-3.3734,-3.3574,-3.3507,-3.3788,-3.3614,-3.3494,-3.3494,-3.3534,-3.3708,-3.4028,-3.4215,-3.4202,-3.3975,-3.4148,-3.3975,-3.3414,-3.3467,-3.3494,-3.3494,-3.3494,-3.3467,-3.3427,-3.3935,-3.4162,-3.4148,-3.3961,-3.3855,-3.3788,-3.3521,-3.3414,-3.3414,-3.3414,-3.3414,-3.3414,-3.3414,-3.3414,-3.3414,-3.3414,-3.3414,-3.3414,-3.3414,-3.3414,-3.3414,-3.3414,-3.3414,-3.3414,-3.3414,-3.3414,-3.3414,-3.3414,-3.3414,-3.3414,-3.3414,-3.3414,-3.3414,-3.3414,-3.3414,-3.3414,-3.3414,-3.3414,-3.3414,-3.3414,-3.3414,-3.3414,-3.3414,-3.3414,-3.3414,-3.3414,-3.3414,-3.3414,-3.3414,-3.3414,-3.3414,-3.3414,-3.3414,-3.3414,-3.3414,-3.3414,-3.3414,-3.3414,-3.3414,-3.3414,-3.3414,-3.3721,-3.3908,-3.3961,-3.4148,-3.4148,-3.3961,-3.4162,-3.4148,-2.5772,-2.7081,-2.8657,-2.9366,-2.9726,-2.9913,-2.9913,-2.9913,-3.0007,-3.0346,-3.04,-3.0507,-3.0795,-3.1049,-3.1316,-3.1671,-3.1917,-3.2291,-3.2888,-3.3009,-3.3106,-3.3427,-3.344,-3.3427,-3.3467,-3.3681,-3.3828,-3.3828,-3.4055,-3.4336,-3.4681,-3.4442,-3.4295,-3.4269,-3.4055,-3.3774,-3.3414,-3.3681,-3.3828,-3.3828,-3.3828,-3.3681,-3.3414,-3.3494,-3.3534,-3.3547,-3.3788,-3.3734,-3.3467,-3.3427,-3.3414,-3.3414,-3.3414,-3.3414,-3.3414,-3.3414,-3.3414,-3.3414,-3.3414,-3.3414,-3.3414,-3.3414,-3.3414,-3.3414,-3.3414,-3.3414,-3.3414,-3.3414,-3.3414,-3.3414,-3.3414,-3.3414,-3.3414,-3.3414,-3.3414,-3.3414,-3.3414,-3.3414,-3.3414,-3.3414,-3.3414,-3.3414,-3.3414,-3.3414,-3.3414,-3.3414,-3.3414,-3.3414,-3.3414,-3.3414,-3.3414,-3.3414,-3.3414,-3.3414,-3.3414,-3.3414,-3.3414,-3.3414,-3.3414,-3.3414,-3.3414,-3.3414,-3.3414,-3.3414,-3.3721,-3.4015,-3.4269,-3.4055,-3.4055,-3.4255,-3.4042,-3.4055,-2.5812,-2.7148,-2.858,-2.9299,-2.97,-2.9913,-2.9913,-2.9913,-3.0007,-3.0346,-3.0533,-3.0688,-3.0982,-3.141,-3.1757,-3.1891,-3.2291,-3.2679,-3.2946,-3.312,-3.3267,-3.34,-3.3414,-3.3414,-3.3414,-3.3534,-3.3694,-3.3868,-3.4002,-3.4282,-3.4788,-3.4643,-3.4563,-3.4563,-3.4442,-3.4148,-3.3681,-3.3975,-3.4055,-3.3881,-3.3881,-3.3721,-3.3414,-3.3414,-3.3414,-3.3414,-3.3561,-3.3534,-3.3414,-3.3414,-3.3414,-3.3414,-3.3414,-3.3414,-3.3414,-3.3414,-3.3414,-3.3414,-3.3414,-3.3414,-3.3414,-3.3414,-3.3414,-3.3414,-3.3414,-3.3414,-3.3414,-3.3414,-3.3414,-3.3414,-3.3414,-3.3414,-3.3414,-3.3414,-3.3414,-3.3414,-3.3414,-3.3414,-3.3414,-3.3414,-3.3414,-3.3414,-3.3414,-3.3414,-3.3414,-3.3414,-3.3414,-3.3414,-3.3414,-3.3414,-3.3414,-3.3414,-3.3414,-3.3414,-3.3414,-3.3414,-3.3414,-3.3414,-3.3414,-3.3414,-3.3414,-3.3414,-3.3414,-3.3414,-3.3721,-3.3948,-3.4082,-3.4108,-3.4108,-3.4082,-3.4108,-3.4202,-2.5718,-2.6907,-2.7965,-2.8941,-2.9419,-2.9695,-2.9887,-2.9913,-2.998,-3.0207,-3.0541,-3.0862,-3.1076,-3.1664,-3.2131,-3.2198,-3.2639,-3.3,-3.308,-3.328,-3.3414,-3.3414,-3.3414,-3.3414,-3.3414,-3.3547,-3.3708,-3.3881,-3.4095,-3.4376,-3.4802,-3.4882,-3.4895,-3.4815,-3.4815,-3.4523,-3.4002,-3.4215,-3.4215,-3.4002,-3.3921,-3.3721,-3.3414,-3.3414,-3.3414,-3.3414,-3.3414,-3.3414,-3.3414,-3.3414,-3.3414,-3.3414,-3.3414,-3.3414,-3.3414,-3.3414,-3.3414,-3.3414,-3.3414,-3.3414,-3.3414,-3.3414,-3.3414,-3.3414,-3.3414,-3.3414,-3.3414,-3.3414,-3.3414,-3.3414,-3.3414,-3.3414,-3.3414,-3.3414,-3.3414,-3.3414,-3.3414,-3.3414,-3.3414,-3.3414,-3.3414,-3.3414,-3.3414,-3.3414,-3.3414,-3.3414,-3.3414,-3.3414,-3.3414,-3.3414,-3.3414,-3.3414,-3.3414,-3.3414,-3.3414,-3.3414,-3.3414,-3.3414,-3.3414,-3.3414,-3.3414,-3.3414,-3.3414,-3.3414,-3.3641,-3.3761,-3.3761,-3.3988,-3.4015,-3.3895,-3.4108,-3.4242,-2.4983,-2.5798,-2.68,-2.7965,-2.8657,-2.9188,-2.9793,-2.9913,-2.9913,-2.994,-3.0394,-3.0795,-3.0808,-3.1517,-3.2198,-3.2527,-3.2835,-3.308,-3.3347,-3.34,-3.3414,-3.3414,-3.3414,-3.3414,-3.3414,-3.3935,-3.4162,-3.3908,-3.4656,-3.5017,-3.4829,-3.5017,-3.5044,-3.4829,-3.4815,-3.4616,-3.4295,-3.4309,-3.4309,-3.4295,-3.4015,-3.3721,-3.3414,-3.3414,-3.3414,-3.3414,-3.3414,-3.3414,-3.3414,-3.3414,-3.3414,-3.3414,-3.3414,-3.3414,-3.3414,-3.3414,-3.3414,-3.3414,-3.3414,-3.3414,-3.3414,-3.3414,-3.3414,-3.3414,-3.3414,-3.3414,-3.3414,-3.3414,-3.3414,-3.3414,-3.3414,-3.3414,-3.3414,-3.3414,-3.3414,-3.3414,-3.3414,-3.3414,-3.3414,-3.3414,-3.3414,-3.3414,-3.3414,-3.3414,-3.3414,-3.3414,-3.3414,-3.3414,-3.3414,-3.3414,-3.3414,-3.3414,-3.3414,-3.3414,-3.3414,-3.3414,-3.3414,-3.3414,-3.3414,-3.3414,-3.3414,-3.3414,-3.3414,-3.3414,-3.3427,-3.344,-3.344,-3.3454,-3.3601,-3.3881,-3.3895,-3.4055,-2.469,-2.5571,-2.6613,-2.7416,-2.8177,-2.8818,-2.9032,-2.9366,-2.9633,-2.9633,-3.0247,-3.0795,-3.0795,-3.1503,-3.2198,-3.2541,-3.2835,-3.3146,-3.3641,-3.3721,-3.3788,-3.3975,-3.3828,-3.3721,-3.3721,-3.3734,-3.3855,-3.4148,-3.4456,-3.475,-3.503,-3.5137,-3.5151,-3.5044,-3.5044,-3.499,-3.4883,-3.4696,-3.4603,-3.4603,-3.4496,-3.4189,-3.3721,-3.3721,-3.3601,-3.3414,-3.3414,-3.3414,-3.3414,-3.3414,-3.3414,-3.3414,-3.3414,-3.3414,-3.3414,-3.3414,-3.3414,-3.3414,-3.3414,-3.3414,-3.3414,-3.3414,-3.3414,-3.3414,-3.3414,-3.3414,-3.3414,-3.3414,-3.3414,-3.3414,-3.3414,-3.3414,-3.3414,-3.3414,-3.3414,-3.3414,-3.3414,-3.3414,-3.3414,-3.3414,-3.3414,-3.3414,-3.3414,-3.3414,-3.3414,-3.3414,-3.3414,-3.3414,-3.3414,-3.3414,-3.3414,-3.3414,-3.3414,-3.3414,-3.3414,-3.3414,-3.3414,-3.3414,-3.3414,-3.3414,-3.3414,-3.3414,-3.3414,-3.3414,-3.3414,-3.3414,-3.3414,-3.3414,-3.3467,-3.3587,-3.3587,-3.3855,-2.4426,-2.5277,-2.6266,-2.6947,-2.7642,-2.8257,-2.8657,-2.9058,-2.9366,-2.9459,-3.01,-3.0675,-3.0768,-3.1343,-3.1971,-3.2514,-3.2835,-3.3146,-3.3654,-3.3828,-3.3961,-3.4148,-3.4002,-3.3921,-3.4028,-3.3748,-3.3814,-3.4429,-3.4376,-3.4536,-3.503,-3.5057,-3.5097,-3.5191,-3.5191,-3.5191,-3.5191,-3.491,-3.4762,-3.4616,-3.4509,-3.4215,-3.3721,-3.3721,-3.3614,-3.3414,-3.3414,-3.3414,-3.3414,-3.3414,-3.3414,-3.3414,-3.3414,-3.3414,-3.3414,-3.3414,-3.3414,-3.3414,-3.3414,-3.3414,-3.3414,-3.3414,-3.3414,-3.3414,-3.3414,-3.3414,-3.3414,-3.3414,-3.3414,-3.344,-3.3547,-3.3641,-3.3694,-3.3587,-3.3641,-3.3694,-3.3587,-3.3494,-3.3414,-3.3414,-3.3414,-3.3414,-3.3414,-3.3414,-3.3414,-3.3414,-3.3507,-3.3574,-3.3574,-3.3574,-3.3574,-3.3574,-3.3467,-3.3414,-3.3414,-3.3414,-3.3414,-3.3414,-3.3414,-3.3414,-3.3414,-3.3414,-3.3414,-3.3414,-3.3414,-3.3467,-3.3574,-3.3467,-3.3467,-3.3574,-3.3574,-3.3895,0.0,0.0,0.0,-2.6547,-2.7028,-2.7549,-2.8668,-2.8948,-2.9055,-2.9392,-2.9972,-3.048,-3.0728,-3.1022,-3.1517,-3.2433,-3.2822,-3.3066,-3.3387,-3.3694,-3.3908,-3.3908,-3.3908,-3.4028,-3.4309,-3.4068,-3.4135,-3.4775,-3.4482,-3.4456,-3.4802,-3.4815,-3.4897,-3.5191,-3.5191,-3.5191,-3.5191,-3.4923,-3.4629,-3.4336,-3.4042,-3.3748,-3.3427,-3.3427,-3.3414,-3.3414,-3.3414,-3.3414,-3.3414,-3.3414,-3.3414,-3.3414,-3.3414,-3.3414,-3.3414,-3.3414,-3.3414,-3.3414,-3.3414,-3.3414,-3.3414,-3.3414,-3.3414,-3.3414,-3.3414,-3.3414,-3.3414,-3.3427,-3.3427,-3.3494,-3.3801,-3.4095,-3.4242,-3.3961,-3.4108,-3.4229,-3.3961,-3.3654,-3.344,-3.3427,-3.3427,-3.3427,-3.3427,-3.3427,-3.3427,-3.3414,-3.3681,-3.3881,-3.3881,-3.3881,-3.3895,-3.3895,-3.3614,-3.3427,-3.3427,-3.3414,-3.3414,-3.3414,-3.3414,-3.3414,-3.3414,-3.3414,-3.3414,-3.3414,-3.3414,-3.3574,-3.3881,-3.3574,-3.3587,-3.3895,-3.3908,-3.4215,-2.4506,0.0,0.0,0.0,0.0,0.0,-2.7321,-2.7936,-2.8513,-2.8791,-2.9486,-3.0127,-3.0467,-3.0889,-3.145,-3.2118,-3.2527,-3.2969,-3.3654,-3.4015,-3.4282,-3.4496,-3.4574,-3.4601,-3.4629,-3.4376,-3.4362,-3.4788,-3.4482,-3.4456,-3.4802,-3.4815,-3.4897,-3.5191,-3.5191,-3.5191,-3.5191,-3.5124,-3.4923,-3.4643,-3.4614,-3.4255,-3.3761,-3.3761,-3.3627,-3.3414,-3.3414,-3.3414,-3.3414,-3.3414,-3.3414,-3.3414,-3.3414,-3.3414,-3.3414,-3.3414,-3.3414,-3.3414,-3.3414,-3.3414,-3.3414,-3.3414,-3.3414,-3.3414,-3.3414,-3.3414,-3.3454,-3.3694,-3.3761,-3.3774,-3.3868,-3.3948,-3.3988,-3.3908,-3.3948,-3.4042,-3.4175,-3.4135,-3.4002,-3.3801,-3.3761,-3.3761,-3.3761,-3.3761,-3.3681,-3.344,-3.3494,-3.3627,-3.3855,-3.3881,-3.3961,-3.4175,-3.3935,-3.3761,-3.3761,-3.3547,-3.3414,-3.3414,-3.3414,-3.3414,-3.3414,-3.3414,-3.3414,-3.3414,-3.3414,-3.3574,-3.3881,-3.3801,-3.3908,-3.4202,-3.4416,-3.4655,-2.4639,-2.5026,-2.5585,-2.5917,0.0,0.0,-2.7108,-2.7589,-2.8125,-2.8524,-2.9205,-2.9833,-3.0114,-3.0555,-3.1102,-3.181,-3.2171,-3.2728,-3.3561,-3.3948,-3.4255,-3.4536,-3.4469,-3.4588,-3.491,-3.4456,-3.4362,-3.4897,-3.4442,-3.4269,-3.4563,-3.4696,-3.4897,-3.5191,-3.5191,-3.5191,-3.5191,-3.5191,-3.5057,-3.4815,-3.4643,-3.4336,-3.3881,-3.3748,-3.3587,-3.3414,-3.3414,-3.3414,-3.3414,-3.3414,-3.3414,-3.3414,-3.3414,-3.3414,-3.3414,-3.3414,-3.3414,-3.3414,-3.3414,-3.3414,-3.3414,-3.3414,-3.3414,-3.3414,-3.3414,-3.3414,-3.3454,-3.3641,-3.3788,-3.3881,-3.3881,-3.4068,-3.4229,-3.4095,-3.4255,-3.4442,-3.4496,-3.4402,-3.4269,-3.4095,-3.4068,-3.4068,-3.4068,-3.4068,-3.4002,-3.3814,-3.3788,-3.3855,-3.4042,-3.3961,-3.3948,-3.4122,-3.3988,-3.3881,-3.3881,-3.3828,-3.3788,-3.3788,-3.3788,-3.3788,-3.3788,-3.3788,-3.3734,-3.3614,-3.3614,-3.3761,-3.4068,-3.3948,-3.4095,-3.4509,-3.4803,-3.495,-2.485,-2.5157,-2.5638,-2.5971,-2.6265,0.0,-2.7415,-2.7655,-2.7869,-2.8484,-2.9018,-2.9499,-2.9847,-3.0127,-3.0641,-3.1483,-3.1837,-3.2358,-3.324,-3.3668,-3.3988,-3.4242,-3.4095,-3.4295,-3.507,-3.4469,-3.4362,-3.5137,-3.4442,-3.4095,-3.4362,-3.4616,-3.4897,-3.5191,-3.5191,-3.5191,-3.5191,-3.5164,-3.5004,-3.4762,-3.4416,-3.4122,-3.3828,-3.3534,-3.3414,-3.3414,-3.3414,-3.3427,-3.3467,-3.3427,-3.3414,-3.3414,-3.3414,-3.3414,-3.3414,-3.3414,-3.3414,-3.3414,-3.3414,-3.3414,-3.3414,-3.3414,-3.3414,-3.3414,-3.3414,-3.3414,-3.3427,-3.3494,-3.3721,-3.3935,-3.3935,-3.4295,-3.4603,-3.4336,-3.4696,-3.503,-3.4829,-3.4536,-3.4362,-3.4322,-3.4322,-3.4322,-3.4322,-3.4349,-3.4362,-3.4322,-3.4295,-3.4282,-3.4322,-3.4068,-3.3895,-3.3935,-3.3908,-3.3881,-3.3881,-3.4122,-3.4269,-3.4269,-3.4295,-3.4322,-3.4322,-3.4322,-3.4202,-3.3935,-3.3961,-3.4108,-3.4362,-3.4135,-3.4295,-3.4869,-3.5084,-3.5191,-2.5757,-2.5824,-2.5984,-2.6265,-2.652,0.0,-2.6947,-2.7362,-2.7869,-2.8484,-2.8698,-2.9018,-2.978,-2.9967,-3.0207,-3.0862,-3.141,-3.2064,-3.2933,-3.3534,-3.3908,-3.3961,-3.4336,-3.4708,-3.4882,-3.4897,-3.5017,-3.5177,-3.4817,-3.4668,-3.467,-3.4788,-3.4897,-3.5191,-3.5191,-3.5191,-3.5191,-3.4963,-3.4696,-3.4402,-3.4108,-3.3801,-3.3507,-3.344,-3.3414,-3.3414,-3.3414,-3.3561,-3.3774,-3.3521,-3.3414,-3.3414,-3.3414,-3.3414,-3.3414,-3.3414,-3.3414,-3.3414,-3.3414,-3.3414,-3.3414,-3.3414,-3.3414,-3.3414,-3.3414,-3.3414,-3.3507,-3.4002,-3.4189,-3.4242,-3.4242,-3.4148,-3.4042,-3.3988,-3.4242,-3.4482,-3.4416,-3.4549,-3.4603,-3.4362,-3.4322,-3.4322,-3.4322,-3.4523,-3.4603,-3.4362,-3.4122,-3.4055,-3.4295,-3.4068,-3.3975,-3.4215,-3.4028,-3.3881,-3.3881,-3.3935,-3.3975,-3.3975,-3.4189,-3.4322,-3.4322,-3.4322,-3.4295,-3.4242,-3.4469,-3.4668,-3.4683,-3.4857,-3.5004,-3.511,-3.5177,-3.5191,-2.5812,-2.5877,-2.6065,-2.6319,-2.66,0.0,0.0,-2.7482,-2.7829,-2.8283,-2.8497,-2.8791,-2.9335,-2.9606,-2.99,-3.0488,-3.0942,-3.1436,-3.2024,-3.2866,-3.3547,-3.3855,-3.4002,-3.4202,-3.4509,-3.467,-3.4817,-3.4963,-3.4977,-3.4857,-3.4563,-3.4817,-3.4977,-3.4977,-3.5124,-3.5191,-3.5191,-3.491,-3.4748,-3.4536,-3.4095,-3.3801,-3.3641,-3.348,-3.3414,-3.3414,-3.3414,-3.3587,-3.3881,-3.3721,-3.3654,-3.3654,-3.3654,-3.3734,-3.3868,-3.3868,-3.3868,-3.3841,-3.3694,-3.3654,-3.3627,-3.3467,-3.3414,-3.3414,-3.3414,-3.3521,-3.3774,-3.4376,-3.4336,-3.4135,-3.4282,-3.4108,-3.3881,-3.3881,-3.4108,-3.4322,-3.4322,-3.4322,-3.4282,-3.4135,-3.4108,-3.4148,-3.4295,-3.4683,-3.4883,-3.4589,-3.4416,-3.4322,-3.4322,-3.4068,-3.3881,-3.3868,-3.3881,-3.3881,-3.3881,-3.4015,-3.4162,-3.4309,-3.4469,-3.4603,-3.475,-3.4763,-3.4696,-3.4549,-3.4683,-3.4815,-3.4815,-3.5057,-3.5191,-3.5191,-3.5191,-3.5191,-2.6012,-2.6066,-2.6372,-2.652,-2.6814,-2.7188,0.0,0.0,0.0,-2.8205,-2.8433,-2.8631,-2.8935,-2.9232,-2.9566,-3.0145,-3.0533,-3.0808,-3.1102,-3.2011,-3.2866,-3.3467,-3.336,-3.3454,-3.4002,-3.4068,-3.4229,-3.4643,-3.479,-3.4723,-3.4429,-3.4857,-3.503,-3.4909,-3.507,-3.5191,-3.5191,-3.4857,-3.4683,-3.4721,-3.4082,-3.3801,-3.3788,-3.3534,-3.3414,-3.3414,-3.348,-3.3681,-3.3975,-3.3975,-3.4042,-3.4122,-3.4015,-3.4082,-3.4242,-3.4295,-3.4322,-3.4282,-3.3988,-3.3881,-3.3841,-3.3507,-3.3454,-3.3507,-3.3507,-3.3721,-3.4082,-3.4668,-3.4376,-3.4042,-3.4322,-3.4189,-3.3961,-3.3895,-3.4108,-3.4282,-3.4175,-3.4015,-3.3868,-3.3801,-3.3841,-3.3961,-3.4202,-3.467,-3.4963,-3.4842,-3.4762,-3.4589,-3.4349,-3.4068,-3.3788,-3.3534,-3.3681,-3.3828,-3.3881,-3.4148,-3.4429,-3.467,-3.479,-3.495,-3.5191,-3.5191,-3.5084,-3.4909,-3.4895,-3.4895,-3.4895,-3.5084,-3.5191,-3.5191,-3.5191,-3.5191,-2.7269,-2.7322,-2.7455,-2.7269,-2.763,-2.7978,-2.7749,0.0,-2.8219,-2.8484,0.0,-2.8406,-2.8895,0.0,0.0,-2.9526,-3.0092,-3.056,-3.0795,-3.1183,-3.165,-3.2238,-3.2505,-3.2822,-3.3093,-3.3133,-3.348,-3.4309,-3.3871,-3.3961,-3.467,-3.4829,-3.491,-3.5137,-3.5177,-3.5191,-3.5191,-3.4643,-3.4376,-3.4362,-3.3748,-3.3467,-3.3467,-3.3427,-3.3414,-3.3427,-3.3708,-3.4002,-3.4269,-3.4269,-3.4576,-3.499,-3.4469,-3.4135,-3.3961,-3.4229,-3.4322,-3.4282,-3.3988,-3.3881,-3.3841,-3.3507,-3.3601,-3.3828,-3.3828,-3.4042,-3.4336,-3.4721,-3.4523,-3.4336,-3.4629,-3.4496,-3.4202,-3.3948,-3.4108,-3.4175,-3.3627,-3.3708,-3.3801,-3.3521,-3.3694,-3.3895,-3.3935,-3.4202,-3.4496,-3.4788,-3.4536,-3.4362,-3.4322,-3.4068,-3.3868,-3.3841,-3.3614,-3.3574,-3.3855,-3.4148,-3.4336,-3.4362,-3.4857,-3.5164,-3.5191,-3.5191,-3.5177,-3.5151,-3.5151,-3.5151,-3.5151,-3.5177,-3.5191,-3.5191,-3.5191,-3.5191,-2.7416,-2.7523,-2.7669,-2.7549,-2.7871,-2.8152,-2.8031,-2.8098,-2.8219,-2.8353,0.0,0.0,0.0,0.0,0.0,0.0,-2.9833,-3.014,-3.0261,-3.0394,-3.0808,-3.1744,-3.2005,-3.2273,-3.2728,-3.2572,-3.2919,-3.3988,-3.3668,-3.3668,-3.4229,-3.4628,-3.4736,-3.4683,-3.5017,-3.5191,-3.5191,-3.479,-3.4496,-3.4322,-3.3895,-3.3587,-3.3414,-3.3414,-3.3507,-3.3694,-3.3828,-3.4148,-3.4576,-3.4576,-3.4723,-3.4937,-3.4857,-3.475,-3.4656,-3.479,-3.483,-3.479,-3.4496,-3.4389,-3.4349,-3.4042,-3.4028,-3.4175,-3.4349,-3.4482,-3.4643,-3.4937,-3.4803,-3.4603,-3.4788,-3.4536,-3.4242,-3.3961,-3.3975,-3.3948,-3.3507,-3.3654,-3.3841,-3.3721,-3.3935,-3.4135,-3.4135,-3.4324,-3.4549,-3.4509,-3.4696,-3.4763,-3.4538,-3.4469,-3.4322,-3.4162,-3.4015,-3.3988,-3.4122,-3.4255,-3.4389,-3.4563,-3.4963,-3.5191,-3.5191,-3.5191,-3.5191,-3.5191,-3.5191,-3.5191,-3.5191,-3.5191,-3.5191,-3.5191,-3.5191,-3.5191,-2.763,-2.7722,-2.7909,-2.7736,-2.8031,-2.8245,-2.8005,-2.8138,-2.8286,-2.8205,-2.8312,0.0,0.0,0.0,-2.9232,-2.9446,0.0,-2.9913,-2.9913,-2.9913,-3.0261,-3.1243,-3.145,-3.1784,-3.242,-3.2011,-3.2238,-3.3427,-3.308,-3.3053,-3.3601,-3.4122,-3.4336,-3.4202,-3.4696,-3.495,-3.495,-3.475,-3.4496,-3.4202,-3.3988,-3.3721,-3.3414,-3.3507,-3.3668,-3.3895,-3.4055,-3.4427,-3.4829,-3.4909,-3.4936,-3.491,-3.511,-3.5191,-3.5191,-3.5191,-3.5191,-3.5151,-3.487,-3.4762,-3.4603,-3.4389,-3.4376,-3.4482,-3.4748,-3.4869,-3.4923,-3.5137,-3.5044,-3.4936,-3.4936,-3.4723,-3.4482,-3.4202,-3.4135,-3.4042,-3.3734,-3.3774,-3.3908,-3.3988,-3.4108,-3.4229,-3.4309,-3.4444,-3.4538,-3.4456,-3.4803,-3.5004,-3.479,-3.4763,-3.4735,-3.4469,-3.4362,-3.4349,-3.4429,-3.4442,-3.4563,-3.487,-3.5084,-3.5191,-3.5191,-3.5191,-3.5191,-3.5191,-3.5191,-3.5191,-3.5191,-3.5191,-3.5191,-3.5191,-3.5191,-3.5191,-2.8245,-2.8379,-2.843,-2.7843,-2.815,-2.8364,-2.7536,-2.7963,-2.8511,-2.8245,-2.8604,-2.8975,-2.8988,-2.9272,-2.9472,-2.9486,-2.9726,0.0,0.0,-2.9913,-3.0034,-3.0413,-3.0902,-3.1476,-3.2064,-3.1343,-3.1316,-3.2554,-3.1784,-3.1797,-3.2946,-3.3307,-3.3614,-3.3895,-3.4189,-3.4349,-3.4349,-3.4336,-3.4189,-3.3895,-3.3895,-3.3721,-3.3427,-3.3734,-3.3881,-3.3921,-3.4548,-3.4802,-3.4842,-3.507,-3.5177,-3.5177,-3.5191,-3.5191,-3.5191,-3.5191,-3.5191,-3.5151,-3.487,-3.4576,-3.4336,-3.4322,-3.4509,-3.4802,-3.4815,-3.4963,-3.5191,-3.5191,-3.5191,-3.5177,-3.5177,-3.5177,-3.5097,-3.4855,-3.4788,-3.4708,-3.4349,-3.4082,-3.3975,-3.4255,-3.4082,-3.3988,-3.4269,-3.4322,-3.4429,-3.4762,-3.4815,-3.4829,-3.4815,-3.4815,-3.4815,-3.4802,-3.4496,-3.4442,-3.4775,-3.4802,-3.4922,-3.5164,-3.5191,-3.5191,-3.5191,-3.5191,-3.5191,-3.5191,-3.5191,-3.5191,-3.5191,-3.5191,-3.5191,-3.5191,-3.5191,-3.5191,-2.8537,-2.8804,-2.9045,-2.8444,-2.8457,-2.847,-2.8005,-2.8125,-2.8366,-2.843,-2.8764,-2.9001,-2.9001,-2.9285,-2.9486,-2.9486,-2.9726,-2.9913,0.0,-2.9913,-3.002,-3.0373,-3.0574,-3.0728,-3.0975,-3.0734,-3.0962,-3.1938,-3.133,-3.145,-3.2674,-3.2973,-3.328,-3.3587,-3.4255,-3.4616,-3.4616,-3.4616,-3.4469,-3.4175,-3.3975,-3.3721,-3.3414,-3.3521,-3.3681,-3.3908,-3.4295,-3.4576,-3.4776,-3.507,-3.5191,-3.5191,-3.5191,-3.5191,-3.5191,-3.5191,-3.5191,-3.5177,-3.5084,-3.499,-3.4897,-3.4897,-3.4963,-3.5044,-3.5044,-3.5124,-3.5191,-3.5191,-3.5191,-3.5191,-3.5191,-3.5191,-3.5124,-3.4882,-3.4815,-3.4735,-3.4389,-3.4402,-3.4496,-3.4589,-3.4683,-3.479,-3.4883,-3.4897,-3.487,-3.4829,-3.4923,-3.5044,-3.5044,-3.5044,-3.5044,-3.5044,-3.4963,-3.4937,-3.5044,-3.5044,-3.5097,-3.5191,-3.5191,-3.5191,-3.5191,-3.5191,-3.5191,-3.5191,-3.5191,-3.5191,-3.5191,-3.5191,-3.5191,-3.5191,-3.5191,-3.5191,-2.8775,-2.9032,-2.9205,-2.8724,-2.8684,-2.8657,-2.8272,-2.8433,-2.8727,-2.8871,-2.9152,-2.9335,-2.9486,-2.9579,-2.9633,-2.9633,-2.9793,-2.9913,0.0,-2.9913,-2.998,-3.0181,-3.0346,-3.044,-3.0547,-3.0467,-3.0681,-3.1303,-3.0915,-3.1055,-3.1925,-3.2398,-3.2759,-3.291,-3.3828,-3.4282,-3.4282,-3.4389,-3.4295,-3.4002,-3.4028,-3.3881,-3.3587,-3.3694,-3.3908,-3.4215,-3.4402,-3.4643,-3.4871,-3.5124,-3.5191,-3.5191,-3.5191,-3.5191,-3.5191,-3.5191,-3.5191,-3.5191,-3.5191,-3.5191,-3.5191,-3.5191,-3.5191,-3.5191,-3.5191,-3.5191,-3.5191,-3.5191,-3.5191,-3.5191,-3.5191,-3.5191,-3.5151,-3.4963,-3.4923,-3.4857,-3.467,-3.4696,-3.4842,-3.4897,-3.4977,-3.507,-3.5177,-3.5191,-3.5137,-3.495,-3.5084,-3.5191,-3.5191,-3.5191,-3.5191,-3.5191,-3.5191,-3.5191,-3.5191,-3.5191,-3.5191,-3.5191,-3.5191,-3.5191,-3.5191,-3.5191,-3.5191,-3.5191,-3.5191,-3.5191,-3.5191,-3.5191,-3.5191,-3.5191,-3.5191,-3.5191]},{"header":{"parameterUnit":"m.s-1","parameterCategory":1,"la1":30.6,"la2":29.2853,"lo1":-89.7004,"lo2":-87.6739,"dy":0.0162,"dx":0.0183,"nx":112,"ny":82,"refTime":"2024-06-12T18:00:00:Z","depth":0,"parameterNumber":3,"parameterNumberName":"V-component_of_WINDS"},"data":[0.0,0.0,0.0,0.0,0.0,0.0,0.0,0.0,0.0,0.0,0.0,0.0,0.0,0.0,0.0,0.0,0.0,0.0,0.0,0.0,0.0,0.0,0.0,0.0,0.0,0.0,0.0,0.0,0.0,0.0,0.0,0.0,0.0,0.0,0.0,0.0,0.0,0.0,0.0,0.0,0.0,0.0,0.0,0.0,0.0,0.0,0.0,0.0,0.0,0.0,0.0,0.0,0.0,0.0,0.0,0.0,0.0,0.0,0.0,0.0,0.0,0.0,0.0,0.0,0.0,0.0,0.0,0.0,0.0,0.0,0.0,0.0,0.0,0.0,0.0,0.0,0.0,0.0,0.0,0.0,0.0,0.0,0.0,0.0,0.0,0.0,0.0,0.0,0.0,0.0,5.4927,5.5996,5.7858,5.8995,5.8995,5.8306,5.6306,5.2617,0.0,0.0,0.0,0.0,0.0,0.0,0.0,0.0,0.0,0.0,0.0,0.0,0.0,0.0,0.0,0.0,0.0,0.0,0.0,0.0,0.0,0.0,0.0,0.0,0.0,0.0,0.0,0.0,0.0,0.0,0.0,0.0,0.0,0.0,0.0,0.0,0.0,0.0,0.0,0.0,0.0,0.0,0.0,0.0,0.0,0.0,0.0,0.0,0.0,0.0,0.0,0.0,0.0,0.0,0.0,0.0,0.0,0.0,0.0,0.0,0.0,0.0,0.0,0.0,0.0,0.0,0.0,0.0,0.0,0.0,0.0,0.0,0.0,0.0,0.0,0.0,0.0,0.0,0.0,0.0,0.0,0.0,0.0,0.0,0.0,0.0,0.0,0.0,0.0,0.0,0.0,0.0,0.0,0.0,0.0,0.0,0.0,0.0,0.0,0.0,0.0,0.0,0.0,0.0,5.5513,5.8202,5.8788,5.8995,5.8995,5.8306,5.6564,5.3425,0.0,0.0,0.0,0.0,0.0,0.0,0.0,0.0,0.0,0.0,0.0,0.0,0.0,0.0,0.0,0.0,0.0,0.0,0.0,0.0,0.0,0.0,0.0,0.0,0.0,0.0,0.0,0.0,0.0,0.0,0.0,0.0,0.0,0.0,0.0,0.0,0.0,0.0,0.0,0.0,0.0,0.0,0.0,0.0,0.0,0.0,0.0,0.0,0.0,0.0,0.0,0.0,0.0,0.0,0.0,0.0,0.0,0.0,0.0,0.0,0.0,0.0,0.0,0.0,0.0,0.0,0.0,0.0,0.0,0.0,0.0,0.0,0.0,0.0,0.0,0.0,0.0,0.0,0.0,0.0,0.0,0.0,0.0,0.0,0.0,0.0,0.0,0.0,0.0,0.0,0.0,0.0,0.0,0.0,0.0,0.0,0.0,0.0,0.0,0.0,0.0,0.0,0.0,5.472,5.6099,5.872,5.8995,5.8995,5.8995,5.8306,5.6426,5.2961,5.172,0.0,0.0,0.0,0.0,0.0,0.0,0.0,0.0,0.0,0.0,0.0,0.0,0.0,0.0,0.0,0.0,0.0,0.0,0.0,0.0,0.0,0.0,0.0,0.0,0.0,0.0,0.0,0.0,0.0,0.0,0.0,0.0,0.0,0.0,0.0,0.0,0.0,0.0,0.0,0.0,0.0,0.0,0.0,0.0,0.0,0.0,0.0,0.0,0.0,0.0,0.0,0.0,0.0,0.0,0.0,0.0,0.0,0.0,0.0,0.0,0.0,0.0,0.0,0.0,0.0,0.0,0.0,0.0,0.0,0.0,0.0,0.0,0.0,0.0,0.0,0.0,0.0,0.0,0.0,0.0,0.0,0.0,0.0,0.0,0.0,0.0,0.0,0.0,0.0,0.0,0.0,0.0,0.0,0.0,0.0,0.0,0.0,0.0,0.0,0.0,0.0,0.0,5.634,5.7064,5.8788,5.8995,5.8995,5.8995,5.7995,5.5892,5.241,5.1168,0.0,0.0,0.0,0.0,0.0,0.0,0.0,0.0,0.0,0.0,0.0,0.0,0.0,0.0,0.0,0.0,0.0,0.0,0.0,0.0,0.0,0.0,0.0,0.0,0.0,0.0,0.0,0.0,0.0,0.0,0.0,0.0,0.0,0.0,0.0,0.0,0.0,0.0,0.0,0.0,0.0,0.0,0.0,0.0,0.0,0.0,0.0,0.0,0.0,0.0,0.0,0.0,0.0,0.0,0.0,0.0,0.0,0.0,0.0,0.0,0.0,0.0,0.0,0.0,0.0,0.0,0.0,0.0,0.0,0.0,0.0,0.0,0.0,0.0,0.0,0.0,0.0,0.0,0.0,0.0,0.0,0.0,0.0,0.0,0.0,0.0,0.0,0.0,0.0,0.0,0.0,0.0,0.0,0.0,0.0,0.0,0.0,0.0,0.0,0.0,0.0,0.0,5.7064,5.8823,5.8961,5.8995,5.8995,5.8995,5.6996,5.4754,5.2341,5.0168,0.0,0.0,0.0,0.0,0.0,0.0,0.0,0.0,0.0,0.0,0.0,0.0,0.0,0.0,0.0,0.0,0.0,0.0,0.0,0.0,0.0,0.0,0.0,0.0,0.0,0.0,0.0,0.0,0.0,0.0,0.0,0.0,0.0,0.0,0.0,0.0,0.0,0.0,0.0,0.0,0.0,0.0,0.0,0.0,0.0,0.0,0.0,0.0,0.0,0.0,0.0,0.0,0.0,0.0,0.0,0.0,0.0,0.0,0.0,0.0,0.0,0.0,0.0,0.0,0.0,0.0,0.0,0.0,0.0,0.0,0.0,0.0,0.0,0.0,0.0,0.0,0.0,0.0,0.0,0.0,0.0,0.0,0.0,0.0,0.0,0.0,0.0,0.0,0.0,0.0,0.0,0.0,0.0,0.0,0.0,0.0,0.0,0.0,0.0,0.0,0.0,0.0,5.6322,5.7978,5.8892,5.8995,5.8995,5.8995,5.7789,5.5651,5.241,0.0,0.0,0.0,0.0,0.0,0.0,0.0,0.0,0.0,0.0,0.0,0.0,0.0,0.0,0.0,0.0,0.0,0.0,0.0,0.0,0.0,0.0,0.0,0.0,0.0,0.0,0.0,0.0,0.0,0.0,0.0,0.0,0.0,0.0,0.0,0.0,0.0,0.0,0.0,0.0,0.0,0.0,0.0,0.0,0.0,0.0,0.0,0.0,0.0,0.0,0.0,0.0,0.0,0.0,0.0,0.0,0.0,0.0,0.0,0.0,0.0,0.0,0.0,0.0,0.0,0.0,0.0,0.0,0.0,0.0,0.0,0.0,0.0,0.0,0.0,0.0,0.0,0.0,0.0,0.0,0.0,0.0,0.0,0.0,0.0,0.0,0.0,0.0,0.0,0.0,0.0,0.0,0.0,0.0,0.0,0.0,0.0,0.0,0.0,0.0,0.0,0.0,5.4506,5.6763,5.8398,5.9229,5.9317,5.9216,5.903,5.7651,5.5478,5.241,0.0,0.0,0.0,0.0,0.0,0.0,0.0,0.0,0.0,0.0,0.0,0.0,0.0,0.0,0.0,0.0,0.0,0.0,0.0,0.0,0.0,0.0,0.0,0.0,0.0,0.0,0.0,0.0,0.0,0.0,0.0,0.0,0.0,0.0,0.0,0.0,0.0,0.0,0.0,0.0,0.0,0.0,0.0,0.0,0.0,0.0,0.0,0.0,0.0,0.0,0.0,0.0,0.0,0.0,0.0,0.0,0.0,0.0,0.0,0.0,0.0,0.0,0.0,0.0,0.0,0.0,0.0,0.0,0.0,0.0,0.0,0.0,0.0,0.0,0.0,0.0,0.0,0.0,0.0,0.0,0.0,0.0,0.0,0.0,0.0,0.0,0.0,0.0,0.0,0.0,0.0,0.0,0.0,0.0,0.0,0.0,0.0,0.0,0.0,0.0,0.0,0.0,5.5358,5.8654,6.0676,6.0065,6.0001,5.9746,5.9081,5.6253,5.3873,0.0,0.0,0.0,0.0,0.0,0.0,0.0,0.0,0.0,0.0,0.0,0.0,0.0,0.0,0.0,0.0,0.0,0.0,0.0,0.0,0.0,0.0,0.0,0.0,0.0,0.0,0.0,0.0,0.0,0.0,0.0,0.0,0.0,0.0,0.0,0.0,0.0,0.0,0.0,0.0,0.0,0.0,0.0,0.0,0.0,0.0,0.0,0.0,0.0,0.0,0.0,0.0,0.0,0.0,0.0,0.0,0.0,0.0,0.0,0.0,0.0,0.0,0.0,0.0,0.0,0.0,0.0,0.0,0.0,0.0,0.0,0.0,0.0,0.0,0.0,0.0,0.0,0.0,0.0,0.0,0.0,0.0,0.0,0.0,0.0,0.0,0.0,0.0,0.0,0.0,0.0,0.0,0.0,0.0,0.0,0.0,0.0,0.0,0.0,0.0,0.0,0.0,0.0,5.5314,5.8654,6.0841,6.0646,6.063,6.039,5.9779,5.8264,5.5923,5.2436,0.0,0.0,0.0,0.0,0.0,0.0,0.0,0.0,0.0,0.0,0.0,0.0,0.0,0.0,0.0,0.0,0.0,0.0,0.0,0.0,0.0,0.0,0.0,0.0,0.0,0.0,0.0,0.0,0.0,0.0,0.0,0.0,0.0,0.0,0.0,0.0,0.0,0.0,0.0,0.0,0.0,0.0,0.0,0.0,0.0,0.0,0.0,0.0,0.0,0.0,0.0,0.0,0.0,0.0,0.0,0.0,0.0,0.0,0.0,0.0,0.0,0.0,0.0,0.0,0.0,0.0,0.0,0.0,0.0,0.0,0.0,0.0,0.0,0.0,0.0,0.0,0.0,0.0,0.0,0.0,0.0,0.0,0.0,0.0,0.0,0.0,0.0,0.0,0.0,0.0,0.0,0.0,0.0,0.0,0.0,0.0,0.0,0.0,0.0,0.0,0.0,0.0,5.598,5.9382,6.1706,6.1767,6.1774,6.1512,6.0932,6.0066,5.7789,5.3602,0.0,0.0,0.0,0.0,0.0,0.0,0.0,0.0,0.0,0.0,0.0,0.0,0.0,0.0,0.0,0.0,0.0,0.0,0.0,0.0,0.0,0.0,0.0,0.0,0.0,0.0,0.0,0.0,0.0,0.0,0.0,0.0,0.0,0.0,0.0,0.0,0.0,0.0,0.0,0.0,0.0,0.0,0.0,0.0,0.0,0.0,0.0,0.0,0.0,0.0,0.0,0.0,0.0,0.0,0.0,0.0,0.0,0.0,0.0,0.0,0.0,0.0,0.0,0.0,0.0,0.0,0.0,0.0,0.0,0.0,0.0,0.0,0.0,0.0,0.0,0.0,0.0,0.0,0.0,0.0,0.0,0.0,0.0,0.0,0.0,0.0,0.0,0.0,0.0,0.0,0.0,0.0,0.0,0.0,0.0,0.0,0.0,0.0,0.0,0.0,0.0,0.0,5.7277,6.0638,6.3019,6.3294,6.3311,6.3038,6.2344,6.1607,5.948,5.5558,0.0,0.0,0.0,0.0,0.0,0.0,0.0,0.0,0.0,0.0,0.0,0.0,0.0,0.0,0.0,0.0,0.0,0.0,0.0,0.0,0.0,0.0,0.0,0.0,0.0,0.0,0.0,0.0,0.0,0.0,0.0,0.0,0.0,0.0,0.0,0.0,0.0,0.0,0.0,0.0,0.0,0.0,0.0,0.0,0.0,0.0,0.0,0.0,0.0,0.0,0.0,0.0,0.0,0.0,0.0,0.0,0.0,0.0,0.0,0.0,5.9866,5.9206,0.0,0.0,0.0,0.0,0.0,0.0,0.0,0.0,0.0,0.0,0.0,0.0,0.0,0.0,0.0,0.0,0.0,0.0,0.0,0.0,0.0,0.0,0.0,0.0,0.0,0.0,0.0,0.0,0.0,0.0,0.0,0.0,0.0,0.0,0.0,0.0,0.0,0.0,0.0,0.0,5.8812,6.1856,6.4088,6.4778,6.4825,6.432,6.3016,6.2612,6.0847,5.7212,5.5379,0.0,0.0,0.0,0.0,0.0,0.0,0.0,0.0,0.0,0.0,0.0,0.0,0.0,0.0,0.0,0.0,0.0,0.0,0.0,0.0,0.0,0.0,0.0,0.0,0.0,0.0,0.0,0.0,0.0,0.0,0.0,0.0,0.0,0.0,0.0,0.0,0.0,0.0,0.0,0.0,0.0,0.0,0.0,0.0,0.0,0.0,0.0,0.0,0.0,0.0,0.0,0.0,0.0,0.0,0.0,0.0,0.0,0.0,0.0,6.2855,6.2083,0.0,0.0,0.0,0.0,0.0,0.0,0.0,0.0,0.0,0.0,0.0,0.0,0.0,0.0,0.0,0.0,0.0,0.0,0.0,0.0,0.0,0.0,0.0,0.0,0.0,0.0,0.0,0.0,0.0,0.0,0.0,0.0,0.0,0.0,0.0,0.0,0.0,0.0,0.0,0.0,5.9699,6.241,6.4567,6.5742,6.5888,6.555,6.4794,6.4618,6.3103,5.9693,5.825,0.0,0.0,0.0,0.0,0.0,0.0,0.0,0.0,0.0,0.0,0.0,0.0,0.0,0.0,0.0,0.0,0.0,0.0,0.0,0.0,0.0,0.0,0.0,0.0,0.0,0.0,0.0,0.0,0.0,0.0,0.0,0.0,0.0,0.0,0.0,0.0,0.0,0.0,0.0,0.0,0.0,0.0,0.0,0.0,0.0,0.0,0.0,0.0,0.0,0.0,0.0,0.0,0.0,6.7931,6.7991,6.8508,6.7834,6.7907,6.8435,6.647,6.575,6.5762,6.3834,0.0,0.0,0.0,0.0,0.0,0.0,0.0,0.0,0.0,0.0,0.0,0.0,0.0,0.0,0.0,0.0,0.0,0.0,0.0,0.0,0.0,0.0,6.1924,6.1557,6.2475,6.2389,5.8559,0.0,0.0,0.0,0.0,0.0,0.0,0.0,0.0,0.0,0.0,0.0,6.075,6.3062,6.5081,6.6549,6.6696,6.6659,6.6512,6.6512,6.5228,6.2218,6.1153,5.9281,0.0,0.0,0.0,0.0,0.0,0.0,0.0,0.0,0.0,0.0,0.0,0.0,0.0,0.0,0.0,0.0,0.0,0.0,0.0,0.0,0.0,0.0,0.0,0.0,0.0,0.0,0.0,0.0,0.0,0.0,0.0,0.0,6.1766,6.1874,0.0,0.0,0.0,0.0,0.0,0.0,0.0,0.0,0.0,0.0,0.0,0.0,0.0,6.8866,6.9797,7.051,7.0914,7.1011,7.1502,7.1776,7.1872,7.1762,7.1762,7.1835,7.1555,0.0,6.7213,6.4874,0.0,0.0,0.0,0.0,0.0,0.0,0.0,0.0,0.0,0.0,0.0,0.0,0.0,0.0,0.0,0.0,0.0,0.0,0.0,0.0,0.0,0.0,6.4103,6.5375,6.5852,6.6035,6.6085,6.2218,5.8499,5.7666,5.6895,5.6088,0.0,0.0,0.0,0.0,0.0,0.0,6.3282,6.5118,6.6512,6.7444,6.7554,6.726,6.6549,6.6512,6.5705,6.3882,6.2291,6.0639,5.8792,5.6418,0.0,0.0,0.0,0.0,0.0,0.0,0.0,0.0,0.0,0.0,0.0,0.0,0.0,0.0,0.0,0.0,0.0,0.0,0.0,0.0,0.0,0.0,0.0,0.0,0.0,0.0,0.0,0.0,0.0,6.2567,6.3692,6.4103,6.477,6.4967,0.0,0.0,0.0,0.0,0.0,0.0,0.0,0.0,0.0,7.0881,7.1784,7.2694,7.3574,7.3846,7.403,7.4088,7.4397,7.4294,7.3839,7.4331,7.4294,7.3839,7.3839,7.3046,7.1505,6.8641,6.7393,6.7123,0.0,0.0,0.0,0.0,6.3759,6.3796,6.3429,6.3306,6.316,6.2254,0.0,0.0,0.0,0.0,0.0,0.0,0.0,6.2132,6.3906,6.5241,6.6416,6.7577,6.8201,6.8605,6.8985,6.6733,6.415,6.2438,6.0676,5.9098,5.785,5.7262,0.0,0.0,0.0,6.1814,6.3846,6.5485,6.6806,6.7627,6.77,6.7554,6.7187,6.7187,6.6659,6.5521,6.4347,6.2939,6.1288,5.8902,5.6712,0.0,0.0,0.0,0.0,0.0,0.0,0.0,0.0,0.0,0.0,0.0,0.0,0.0,0.0,0.0,0.0,0.0,0.0,0.0,0.0,0.0,0.0,0.0,0.0,0.0,0.0,0.0,0.0,6.4681,6.5631,6.5928,6.7232,6.7561,0.0,0.0,0.0,0.0,0.0,0.0,7.0697,7.1857,7.2995,7.4037,7.5212,7.624,7.7047,7.7047,7.7047,7.7047,7.7047,7.6717,7.6166,7.6754,7.6717,7.6166,7.6166,7.5894,7.527,7.2055,7.0257,6.9362,6.776,6.699,6.6733,6.6145,6.6292,6.6806,6.6806,6.6806,6.6623,6.5632,6.436,6.2842,6.1251,0.0,0.0,0.0,0.0,6.4261,6.6549,6.754,6.8238,6.9265,6.9963,7.0477,7.066,7.0073,6.8811,6.6402,6.4273,6.2328,6.0737,5.9979,0.0,5.9538,6.1447,6.3356,6.4837,6.6439,6.7577,6.7958,6.8031,6.7921,6.7737,6.77,6.737,6.6549,6.5925,6.4848,6.3196,6.1178,5.9269,5.7435,0.0,0.0,0.0,0.0,0.0,0.0,0.0,0.0,0.0,0.0,0.0,0.0,0.0,0.0,0.0,0.0,0.0,0.0,0.0,0.0,0.0,0.0,0.0,0.0,0.0,0.0,0.0,0.0,0.0,6.6578,6.9328,0.0,0.0,0.0,0.0,7.1013,7.1821,7.334,7.5616,7.5799,7.6607,7.8222,7.8369,7.8809,7.9596,7.9596,7.9596,7.9596,7.9596,7.9596,7.9559,7.9596,7.9596,7.9559,7.9559,7.8662,7.6922,7.3707,7.1894,7.1013,6.9398,6.8311,6.7627,6.759,6.759,6.7627,6.7627,6.7627,6.7737,6.8458,6.8091,6.7076,6.5485,6.4995,0.0,0.0,6.5692,6.6696,6.8348,6.8825,6.9229,7.0793,7.1197,7.1454,7.2202,7.1747,7.0463,6.8068,6.6843,6.5742,6.4139,0.0,6.3809,6.3809,6.5204,6.6549,6.7407,6.8912,6.9633,6.8935,6.8862,6.8531,6.7774,6.77,6.737,6.6549,6.6476,6.5705,6.4103,6.3135,6.1508,5.9123,5.7471,0.0,0.0,0.0,0.0,0.0,0.0,0.0,0.0,0.0,0.0,0.0,0.0,0.0,0.0,0.0,0.0,0.0,0.0,0.0,0.0,0.0,0.0,0.0,0.0,0.0,0.0,0.0,0.0,6.9696,7.2129,0.0,7.1717,7.301,7.4074,7.4368,7.5652,7.7011,7.8421,7.947,8.0534,8.1672,8.2186,8.259,8.2884,8.237,8.2113,8.2113,8.2113,8.1856,8.1358,8.1358,8.1048,8.0534,8.0036,7.9449,7.8772,7.7121,7.5322,7.3509,7.2422,7.1798,7.1519,7.0991,7.077,7.077,7.077,7.044,6.9876,6.9142,6.8715,6.8274,6.7173,6.6843,6.6953,6.7453,6.782,6.8421,7.0022,7.0426,7.072,7.1821,7.2078,7.2165,7.2459,7.2275,7.1637,7.0293,6.8972,6.7687,6.6599,6.6416,6.6232,6.5705,6.7026,6.8164,6.8458,6.9412,7.0,6.9706,6.9229,6.8788,6.8495,6.7994,6.737,6.6549,6.5999,6.5228,6.4139,6.3282,6.2132,6.0786,5.9159,5.7042,0.0,0.0,0.0,0.0,0.0,0.0,0.0,0.0,0.0,0.0,0.0,0.0,0.0,0.0,0.0,0.0,0.0,0.0,0.0,0.0,0.0,0.0,0.0,0.0,0.0,6.9747,7.1645,7.2183,7.4882,7.6213,7.5043,7.6644,7.7855,7.8148,7.9433,8.0571,8.1395,8.2443,8.3251,8.3785,8.4315,8.4609,8.4609,8.4058,8.3785,8.3785,8.3785,8.3544,8.2994,8.2994,8.2737,8.2186,8.1342,8.0865,8.055,7.9727,7.8112,7.6041,7.4955,7.4331,7.4037,7.3523,7.3156,7.2863,7.2606,7.2165,7.1527,7.0463,7.0096,6.9963,6.9155,6.8898,6.9045,6.9545,6.9692,7.0022,7.1344,7.1711,7.1821,7.2386,7.2496,7.2496,7.2496,7.2496,7.2349,7.1821,7.061,6.9435,6.8655,6.8508,6.8325,6.7797,6.8862,6.9802,7.0059,7.0807,7.1321,7.1321,7.0587,6.9986,6.9729,6.8715,6.7981,6.7724,6.6696,6.5852,6.5351,6.4237,6.327,6.245,6.0554,5.8829,5.72,0.0,0.0,0.0,0.0,0.0,0.0,0.0,0.0,0.0,0.0,0.0,0.0,0.0,0.0,0.0,0.0,0.0,0.0,0.0,0.0,0.0,0.0,0.0,6.9155,7.1762,7.378,7.3891,7.743,7.925,7.7656,7.9674,8.1452,8.2223,8.2994,8.3785,8.4609,8.4646,8.4646,8.4682,8.4682,8.4682,8.4682,8.4682,8.4682,8.4682,8.4682,8.4682,8.4682,8.4646,8.4646,8.4609,8.3785,8.2994,8.2186,8.1379,8.0094,7.8516,7.6827,7.5689,7.4977,7.4977,7.4478,7.367,7.2826,7.2569,7.2569,7.2532,7.2532,7.2386,7.1564,7.1344,7.1344,7.1344,7.1344,7.1527,7.2312,7.2532,7.2532,7.2532,7.2569,7.2569,7.2569,7.2569,7.2569,7.2532,7.1894,7.1123,7.0293,7.0183,7.0183,7.0183,7.0881,0.0,7.2459,7.323,7.3744,7.3744,7.301,7.2224,7.1454,6.9912,6.9302,7.0,6.8582,6.77,6.7664,6.6182,6.4971,6.4176,6.1777,6.0517,6.0481,0.0,0.0,0.0,0.0,0.0,0.0,0.0,0.0,0.0,0.0,0.0,0.0,0.0,0.0,0.0,0.0,0.0,0.0,0.0,0.0,0.0,7.0854,7.2743,7.2437,7.4147,7.6093,7.7907,8.0147,8.1599,8.1693,8.2867,8.3691,8.3911,8.4168,8.4609,8.5416,8.5453,8.5747,8.6334,8.6334,8.6334,8.6334,8.6334,8.6334,8.6334,8.6334,8.6334,8.6334,8.5747,8.5453,8.5416,8.4609,8.3801,8.3014,8.2186,8.1269,8.0167,7.8552,7.7414,7.6628,7.6628,7.6114,7.5249,7.3854,7.3744,7.4059,7.2899,7.2899,7.323,7.2422,7.2165,7.2165,7.2165,7.2165,7.2224,7.2459,7.2936,7.3377,7.3377,7.3817,7.4243,7.4243,7.4243,7.4074,7.3487,7.3193,7.2789,7.1982,7.1835,7.1835,7.1835,7.2532,7.312,7.334,7.4074,7.4588,7.4588,7.3854,7.3266,7.3046,7.1578,7.0243,6.9302,6.8274,6.7444,6.6843,6.6402,6.6072,6.5852,6.4604,6.3343,0.0,0.0,0.0,0.0,0.0,0.0,0.0,0.0,0.0,0.0,0.0,0.0,0.0,0.0,0.0,0.0,0.0,0.0,0.0,0.0,0.0,0.0,7.3618,7.5764,7.7063,7.7781,7.8809,8.0587,8.2223,8.3508,8.4352,8.4829,8.5233,8.56,8.593,8.6151,8.6297,8.6958,8.7215,8.7014,8.7325,8.7362,8.6978,8.6978,8.6978,8.6978,8.6978,8.6978,8.6978,8.6518,8.6297,8.6261,8.5453,8.4646,8.3838,8.303,8.2039,8.0865,0.0,0.0,0.0,0.0,7.6481,7.5909,7.4625,7.4515,7.4757,7.3802,7.3597,7.3597,7.312,7.2789,7.2496,7.2496,7.2753,7.301,7.301,7.3597,7.4184,7.4184,7.4551,7.4903,7.4903,7.4903,7.4757,7.4294,7.4184,0.0,7.3597,7.2973,7.2606,7.2936,7.3377,7.3927,7.4625,7.5102,7.5527,7.5858,7.5212,7.4698,7.4698,7.323,0.0,0.0,0.0,6.8715,6.754,6.7504,0.0,0.0,0.0,0.0,0.0,0.0,0.0,0.0,6.4261,6.4848,0.0,0.0,0.0,0.0,0.0,0.0,0.0,0.0,0.0,0.0,0.0,0.0,0.0,0.0,0.0,0.0,7.6665,7.8867,8.1782,8.1819,8.1819,8.2517,8.3875,8.5049,8.5857,8.6021,8.6371,8.7105,8.7876,8.8023,8.7308,8.8629,0.0,0.0,0.0,8.7986,8.7271,8.7271,8.7271,8.7271,8.7271,8.7271,8.7271,8.7161,8.7124,8.7088,8.6261,8.549,8.4682,8.3858,8.2574,8.1048,8.0147,7.9376,7.8552,7.6974,7.6387,7.624,7.5344,0.0,0.0,7.494,7.4478,7.3927,7.3854,7.334,7.2789,7.2789,7.3266,7.3817,7.3817,7.4441,7.505,7.505,7.5087,7.516,7.516,7.516,7.5124,7.505,7.505,7.5014,7.4903,7.3729,7.301,7.3707,7.3891,7.4478,7.5909,7.6166,7.6533,7.7215,7.6665,0.0,7.624,7.4845,7.4258,7.4867,7.2701,7.0793,6.9376,6.9288,6.9252,6.9178,6.9339,6.9706,7.022,7.0403,7.0513,7.044,6.738,6.7504,0.0,0.0,0.0,0.0,0.0,0.0,0.0,0.0,0.0,0.0,0.0,0.0,0.0,0.0,0.0,7.668,7.9307,8.1452,8.2113,8.3728,8.4939,8.5103,8.538,8.5894,8.6701,8.7362,8.7802,8.7949,8.8702,8.9106,8.8959,8.9216,8.9253,8.8959,8.9106,8.9106,8.8959,8.8959,8.8959,8.8959,8.8959,0.0,8.8923,8.828,8.7986,8.7912,8.7142,8.6297,8.549,8.4682,8.3434,8.1819,8.0367,7.9706,7.9449,7.8479,7.8112,7.7892,7.6387,7.6298,7.6628,7.5307,7.5249,7.5506,7.4867,7.4573,0.0,7.4426,7.4536,7.4661,7.4661,7.5249,7.5873,7.5873,7.6371,7.6848,7.6848,7.6848,7.6628,7.5983,7.5873,7.5652,7.5014,7.4647,7.45,7.4647,7.5212,7.5763,7.6056,7.6665,7.7142,7.7289,7.7179,7.7069,7.7069,7.6203,7.5432,7.494,7.3252,7.2129,7.1835,7.1798,7.149,7.0866,7.2129,7.2202,7.105,7.2386,7.301,7.2951,7.1013,7.0463,0.0,0.0,0.0,0.0,0.0,0.0,0.0,0.0,0.0,0.0,0.0,7.3669,7.4409,0.0,7.8477,7.958,8.1489,8.3067,8.3875,8.538,8.6261,8.5874,8.6518,8.7142,8.7545,8.8353,8.8959,8.9381,9.0152,9.0445,9.0024,9.0794,9.0684,8.9436,8.9803,8.9803,8.94,8.94,8.94,8.94,8.94,8.94,8.94,8.8959,8.8573,8.8169,8.7766,8.6921,8.571,8.4499,8.3287,8.2113,8.1305,8.0755,8.0277,7.9522,7.9192,7.9066,7.8222,7.7965,7.7803,7.7011,7.646,7.6019,7.5616,7.5197,7.4903,7.4903,7.5491,7.6114,7.6114,7.7011,7.7928,7.7928,7.8259,7.8552,7.8552,7.8552,7.8295,7.7524,7.7341,7.7084,7.6261,7.6114,7.5968,7.5564,7.5836,7.624,7.6628,7.7069,7.7289,7.7289,7.7289,7.7289,7.7289,7.6922,7.6518,7.6114,7.4977,7.4111,7.3729,7.3692,7.3509,7.3105,7.3891,7.3891,7.3105,7.3927,7.4294,7.4294,7.4316,7.4096,0.0,0.0,0.0,0.0,0.0,0.0,0.0,7.0093,7.1082,7.348,7.5314,7.6846,7.8062,7.9663,8.1207,8.246,8.3471,8.4555,8.5857,8.6995,8.7472,8.6811,8.7729,8.8426,8.8426,8.929,9.0134,9.0776,9.173,9.1987,9.1363,9.2611,9.2427,9.0427,9.0996,9.0922,9.0134,9.0134,9.0024,8.9877,8.9877,8.9877,8.984,8.9546,8.9033,8.8426,8.8096,8.7142,8.571,8.4389,8.3287,8.2443,8.2443,8.1929,8.1158,8.0314,8.0036,8.0,7.9853,7.9376,7.8809,7.8662,7.7671,7.657,7.6387,7.5858,7.5417,7.5564,7.6555,7.7582,7.7766,7.8772,7.9816,7.9816,7.9816,7.9816,7.9816,7.9816,7.9596,7.8956,7.8809,7.8626,7.7913,7.7803,7.7472,7.6497,7.635,7.657,7.7215,7.7289,7.7289,7.7289,7.7436,7.7619,7.7766,7.7803,7.7803,7.7803,7.6864,7.6041,7.538,7.505,7.4903,7.4903,7.505,7.5124,7.5124,7.5454,7.5601,7.5637,7.7105,7.7179,6.3689,6.4574,6.5718,6.7345,6.8012,6.9472,0.0,7.491,7.5507,7.7111,7.9867,8.176,8.0944,8.267,8.4261,8.4332,8.56,8.6647,8.6831,8.8793,9.0152,9.0078,8.9583,8.9253,8.9253,9.0629,9.1583,9.1657,9.3125,9.3969,9.3896,9.4042,9.4042,9.3749,9.3822,9.3492,9.2684,9.2684,9.2317,9.1546,9.1546,9.1546,9.1473,9.006,8.9363,8.9179,8.7748,8.6628,8.5783,8.56,8.4646,8.3271,8.3271,8.2774,8.1966,8.1158,8.0865,8.0755,8.0036,7.9743,7.9559,7.8809,7.8479,7.8185,7.7399,7.7105,7.7179,7.7965,7.8332,7.8626,7.9323,7.9669,7.9816,7.9816,7.9816,7.9816,7.9816,7.9816,7.9779,7.9669,7.9669,7.9633,7.9559,7.9522,7.8993,7.7399,7.7179,7.7215,7.7289,7.7289,7.7289,7.7289,7.8002,7.8736,7.9449,7.9522,7.9522,7.9522,7.8023,7.7142,7.7032,7.5674,7.4903,7.4903,7.5616,7.5983,7.5983,7.7451,7.8185,7.8222,7.9103,7.8295,6.4906,6.6088,6.7418,6.8716,7.0444,7.259,7.5616,7.6881,7.8072,8.0281,8.2027,8.3213,8.3275,8.4812,8.6219,8.6645,8.8059,8.9271,8.9784,9.1106,9.1877,9.1363,9.1473,9.1528,9.1528,9.2574,9.3455,9.3932,9.4593,9.4997,9.4997,9.4997,9.4777,9.4299,9.3859,9.3455,9.3088,9.2611,9.217,9.1803,9.1803,9.1803,9.1767,9.1106,9.028,8.9326,8.7711,8.6554,8.58,8.58,8.5123,8.4042,8.3564,8.3197,8.281,8.2003,8.1709,8.1636,8.1305,8.0865,8.0424,8.0094,7.969,7.9229,7.8883,7.8736,7.8846,7.9192,7.9617,8.0057,8.0424,8.0828,8.1211,8.1211,8.1211,8.1211,8.1211,8.1211,8.1048,8.0571,8.0498,8.0351,7.989,7.9816,7.9559,7.8846,7.8736,7.8589,7.8112,7.8075,7.8075,7.8075,7.8809,7.9617,8.0424,8.0073,8.0,8.0461,7.9396,7.8736,7.8736,7.7671,7.7047,7.7047,7.7378,7.7561,7.7561,7.8751,7.9302,7.9339,8.0131,7.969,6.5804,6.7318,6.898,7.0195,7.2694,7.5346,7.725,7.8573,8.0062,8.2476,8.3422,8.4105,8.5217,8.6623,8.7932,8.872,9.0225,9.151,9.2134,9.2905,9.3198,9.2574,9.3051,9.3418,9.3418,9.3969,9.463,9.5418,9.5712,9.5822,9.5822,9.5822,9.5584,9.496,9.441,9.3896,9.3455,9.2794,9.2244,9.1803,9.1803,9.1803,9.1767,9.1326,9.0372,8.8996,8.7601,8.6664,8.6114,8.6114,8.5673,8.4866,8.4042,8.3601,8.3308,8.248,8.2186,8.2186,8.2186,8.1819,8.1305,8.1085,8.0608,8.011,7.989,7.9816,7.9853,8.0073,8.0534,8.1048,8.1269,8.1746,8.2186,8.2186,8.2186,8.2186,8.2186,8.2186,8.2039,8.1452,8.1342,8.1158,8.055,8.0477,8.0477,8.0477,8.0477,8.011,7.9066,7.8919,7.9029,7.925,7.9764,8.0461,8.1269,8.0791,8.0734,8.1305,8.0571,8.0147,8.0147,7.9376,7.8919,7.8919,7.8919,7.8919,7.8919,7.9727,8.0147,8.0131,8.0975,8.1012,6.6452,6.8322,7.0597,7.2039,7.4505,7.7112,7.9412,8.069,8.1821,8.3249,8.4195,8.5197,8.6662,8.8225,8.9583,9.0408,9.195,9.3051,9.3051,9.3749,9.4226,9.4226,9.4226,9.4263,9.4263,9.4299,9.463,9.5418,9.6208,9.6649,9.6649,9.6649,9.6649,9.6612,9.6612,9.5841,9.4263,9.4226,9.3418,9.1803,9.1803,9.1803,9.173,9.017,8.9033,8.8206,8.7362,8.6978,8.6941,8.6941,8.6481,8.5673,8.4866,8.4095,8.3308,8.248,8.2186,8.2186,8.2186,8.2186,8.2039,8.1269,8.0975,8.0828,8.0036,7.9816,7.9963,8.0755,8.0975,8.1195,8.1966,8.2186,8.2186,8.2186,8.2186,8.2186,8.2186,8.2186,8.2186,8.215,8.215,8.215,8.2113,8.2113,8.2113,8.2113,8.2113,8.1525,7.9963,7.9779,8.0073,8.0828,8.0938,8.1305,8.2076,8.215,8.215,8.215,8.1415,8.0975,8.0975,8.0183,7.9779,7.9779,7.9779,7.9779,7.9779,8.0571,8.0975,8.0975,8.1782,8.215,6.8726,7.0031,7.1743,7.4511,7.6648,7.855,8.0382,8.1403,8.2275,8.3276,8.37,8.4329,8.5911,8.7509,8.9234,9.1106,9.2794,9.4263,9.5327,9.5731,9.5511,9.441,9.4299,9.4079,9.3565,9.3969,9.463,9.5418,9.5749,9.6135,9.6685,9.6685,9.6685,9.6685,9.6171,9.5639,9.5107,9.4042,9.3235,9.2648,9.206,9.1803,9.173,9.0134,8.9253,8.8923,8.7565,8.6978,8.6978,8.6978,8.6848,8.6518,8.571,8.4903,8.4095,8.3287,8.2663,8.2186,8.2186,8.2186,8.215,8.1893,8.1782,8.1746,8.1452,8.1379,8.1468,8.1709,8.1782,8.1856,8.2113,8.2186,8.2186,8.2186,8.2186,8.2186,8.2186,8.2186,8.2186,8.2186,8.2186,8.2186,8.2186,8.2186,8.2186,8.2186,8.1746,8.1195,8.0681,8.0608,8.0681,8.0975,8.1489,8.1893,8.2186,8.2186,8.2186,8.2186,8.1929,8.1782,8.1782,8.1012,8.0608,8.0608,8.0608,8.0608,8.0608,8.1415,8.1782,8.1782,8.2076,8.2186,7.0625,7.2087,7.3807,7.6634,7.8474,7.9942,8.1282,8.19,8.2443,8.3234,8.3381,8.3895,8.549,8.6885,8.8647,9.14,9.2978,9.452,9.6428,9.6465,9.5878,9.485,9.4483,9.4079,9.3565,9.3749,9.4336,9.5418,9.5749,9.6171,9.6685,9.6685,9.6685,9.6685,9.6208,9.5785,9.5492,9.4189,9.3235,9.2648,9.206,9.1803,9.1767,9.0445,8.9657,8.9326,8.8005,8.7288,8.6978,8.6978,8.6978,8.6904,8.6114,8.5306,8.4499,8.3711,8.2884,8.2186,8.2186,8.2186,8.2186,8.2186,8.2186,8.2186,8.2186,8.2186,8.2186,8.2186,8.2186,8.2186,8.2186,8.2186,8.2186,8.2186,8.2186,8.2186,8.2186,8.2186,8.2186,8.2186,8.2186,8.2186,8.2186,8.2186,8.2186,8.2186,8.1746,8.1415,8.1415,8.1415,8.1415,8.1415,8.1893,8.2186,8.2186,8.2186,8.2186,8.2186,8.2186,8.2186,8.2186,8.1709,8.1415,8.1415,8.1415,8.1415,8.1415,8.1929,8.2186,8.2186,8.2186,8.2186,7.2239,7.4404,7.657,7.8295,7.9874,8.1232,8.2003,8.2186,8.2406,8.3161,8.3344,8.3821,8.538,8.6371,8.8023,9.1308,9.2537,9.3932,9.6355,9.6061,9.5528,9.5492,9.4813,9.4336,9.4299,9.3639,9.3859,9.5382,9.6171,9.6612,9.6685,9.6685,9.6685,9.6685,9.6649,9.6282,9.5565,9.4703,9.3455,9.1803,9.1803,9.1803,9.1767,9.0959,9.017,8.94,8.8573,8.7766,8.7051,8.7014,8.6978,8.6904,8.6151,8.538,8.4572,8.3785,8.2994,8.226,8.226,8.2223,8.2186,8.2186,8.2186,8.2186,8.2186,8.2186,8.2186,8.2186,8.2186,8.2186,8.2186,8.2186,8.2186,8.2186,8.2186,8.2186,8.2186,8.2186,8.2186,8.2186,8.2223,8.226,8.2186,8.2223,8.226,8.2186,8.2186,8.2186,8.2186,8.2186,8.2186,8.2186,8.2186,8.2186,8.2186,8.2186,8.2186,8.2186,8.2186,8.2186,8.2186,8.2186,8.2186,8.2186,8.2186,8.2186,8.2186,8.2186,8.2186,8.2186,8.2186,8.2186,7.4588,7.6093,7.7546,7.9837,8.0718,8.1232,8.2003,8.2186,8.226,8.2443,8.2517,8.281,8.3838,8.5159,8.7178,9.0408,9.217,9.3932,9.6355,9.6539,9.6171,9.5565,9.5327,9.496,9.4336,9.4666,9.5051,9.5455,9.5144,9.5437,9.6649,9.6685,9.6685,9.6685,9.6135,9.6025,9.6392,9.4997,9.3455,9.1803,9.1803,9.1803,9.1767,9.0959,9.0482,9.0207,8.8793,8.8096,8.7839,8.7252,8.6978,8.6978,8.6757,8.6187,8.5453,8.527,8.4315,8.3087,8.3087,8.27,8.2186,8.2186,8.2186,8.2186,8.2186,8.2186,8.2186,8.2186,8.2186,8.2186,8.2186,8.2186,8.2186,8.2186,8.2186,8.2186,8.2186,8.2186,8.2186,8.2186,8.27,8.292,8.2296,8.27,8.2884,8.2296,8.2186,8.2186,8.2186,8.2186,8.2186,8.2186,8.2186,8.2186,8.2186,8.2186,8.2186,8.2186,8.2186,8.2186,8.2186,8.2186,8.2186,8.2186,8.2186,8.2186,8.2186,8.2186,8.2186,8.2186,8.2186,8.2186,7.6093,7.7766,7.9271,8.0629,8.1269,8.1562,8.1636,8.1929,8.2113,8.1746,8.1929,8.2333,8.281,8.3911,8.5783,8.9014,9.0922,9.2978,9.5768,9.6465,9.6539,9.6098,9.6025,9.5841,9.5401,9.5437,9.5639,9.6025,9.5621,9.5731,9.6649,9.6685,9.6685,9.6685,9.6282,9.5914,9.5658,9.474,9.3455,9.1803,9.1803,9.1803,9.1767,9.1326,9.0922,9.0519,8.9253,8.8536,8.8133,8.7325,8.6978,8.7014,8.7399,8.6811,8.582,8.6187,8.5306,8.3858,8.3528,8.3087,8.2663,8.2296,8.2186,8.2186,8.2186,8.2186,8.2186,8.2186,8.2186,8.2186,8.2186,8.2186,8.2186,8.2186,8.2186,8.2186,8.2186,8.2186,8.2296,8.2663,8.3087,8.3381,8.3287,8.3324,8.3234,8.281,8.2443,8.2186,8.2186,8.2186,8.2186,8.2186,8.2186,8.2186,8.2186,8.2186,8.2186,8.2186,8.2186,8.2186,8.2186,8.2186,8.2186,8.2186,8.2186,8.2186,8.2186,8.2186,8.2186,8.2186,8.2186,8.2186,7.7326,7.9344,8.1048,8.1122,8.1672,8.2003,8.1195,8.1636,8.1966,8.1158,8.1636,8.2186,8.2186,8.2847,8.4445,8.7692,8.9454,9.162,9.5016,9.6098,9.6575,9.6685,9.6685,9.6685,9.6685,9.6061,9.5951,9.6649,9.6685,9.6685,9.6685,9.6685,9.6649,9.6539,9.6649,9.5914,9.4299,9.4299,9.3529,9.195,9.184,9.1803,9.1803,9.1803,9.1436,9.0702,8.9913,8.9143,8.8463,8.7638,8.7234,8.7234,8.7949,8.7288,8.604,8.6738,8.604,8.4646,8.3821,8.3491,8.3271,8.2443,8.2186,8.2186,8.2186,8.2186,8.2186,8.2186,8.2186,8.2186,8.2186,8.2186,8.2186,8.2186,8.2186,8.226,8.248,8.259,8.2847,8.3418,8.3638,8.3895,8.4499,8.4115,8.3675,8.3564,8.2957,8.2517,8.2517,8.2333,8.2186,8.2186,8.2186,8.2186,8.2186,8.2296,8.237,8.237,8.237,8.237,8.237,8.226,8.2186,8.2186,8.2186,8.2186,8.2186,8.2186,8.2186,8.2186,8.2186,8.2186,7.9711,8.0681,8.1158,8.1819,8.2113,8.2003,8.1195,8.1636,8.1966,8.1158,8.1636,8.2186,8.2186,8.2847,8.4445,8.7692,8.8996,9.0978,9.496,9.5621,9.5951,9.6612,9.6685,9.6685,9.6685,9.6575,9.6539,9.6685,9.6685,9.6685,9.6685,9.6685,9.6392,9.5712,9.6355,9.5914,9.4299,9.4299,9.3822,9.2868,9.2134,9.1803,9.1803,9.1803,9.173,9.1546,9.0739,9.0317,9.0115,8.9326,8.8592,8.8023,8.8133,8.7619,8.6811,8.6941,8.6407,8.549,8.4682,8.3968,8.3271,8.2443,8.2186,8.2186,8.2186,8.2186,8.2186,8.2186,8.2186,8.2186,8.2186,8.2186,8.2186,8.2186,8.2186,8.2553,8.3911,8.4719,8.5013,8.4499,8.4939,8.5233,8.4682,8.5049,8.5159,8.4499,8.4278,8.4168,8.4168,8.303,8.2186,8.2186,8.2186,8.2186,8.2186,8.281,8.3197,8.3197,8.3197,8.3197,8.3197,8.2553,8.2186,8.2186,8.2186,8.2186,8.2186,8.2186,8.2186,8.2186,8.2186,8.2186,8.0828,8.1636,8.1819,8.2627,8.2186,8.1342,8.0571,8.0681,8.0828,8.0461,8.1012,8.1709,8.2113,8.2847,8.4042,8.6004,8.7344,8.94,9.3051,9.3969,9.485,9.6502,9.6685,9.6685,9.6685,9.6685,9.6685,9.6685,9.6685,9.6685,9.6685,9.6685,9.6539,9.6135,9.6502,9.6135,9.4923,9.4923,9.452,9.3712,9.2868,9.2464,9.2464,9.2024,9.1803,9.1767,9.0959,9.0592,9.0555,8.973,8.9179,8.8812,8.8812,8.8353,8.7619,8.7619,8.7142,8.6261,8.5013,8.4609,8.4389,8.2737,8.2186,8.2186,8.2186,8.2186,8.2296,8.27,8.281,8.281,8.281,8.281,8.281,8.281,8.3141,8.3765,8.4976,8.5196,8.5196,8.5233,8.5527,8.582,8.5857,8.582,8.5673,8.527,8.4866,8.4609,8.4609,8.3948,8.3287,8.2884,8.2443,8.237,8.281,8.3161,8.3564,8.4005,8.4005,8.3821,8.3418,8.3014,8.2627,8.2186,8.2186,8.2186,8.2186,8.2186,8.2186,8.2186,8.2186,8.2186,8.1158,8.2076,8.2333,8.2977,8.2076,8.0791,8.0,7.9816,7.9816,7.9816,8.0424,8.1269,8.2039,8.2737,8.3471,8.4425,8.582,8.7876,9.1106,9.2427,9.3932,9.6171,9.6612,9.6685,9.6685,9.6685,9.6685,9.6685,9.6685,9.6685,9.6685,9.6685,9.6685,9.6685,9.6685,9.6392,9.5749,9.5565,9.518,9.4556,9.3749,9.3272,9.3088,9.2391,9.1987,9.1767,9.1143,9.0776,9.0555,8.9913,8.9436,8.9143,8.9143,8.8629,8.7949,8.7949,8.7545,8.6794,8.538,8.5159,8.5196,8.3141,8.2443,8.2406,8.226,8.2186,8.2333,8.2994,8.3124,8.3161,8.3344,8.3381,8.3491,8.3821,8.4776,8.5747,8.6187,8.5967,8.582,8.6444,8.6297,8.6297,8.7142,8.6591,8.604,8.604,8.5527,8.5123,8.5123,8.4976,8.4609,8.3985,8.3177,8.2957,8.3601,8.3821,8.4168,8.4829,8.4866,8.4499,8.3675,8.3491,8.303,8.2223,8.2186,8.2186,8.2186,8.237,8.237,8.2186,8.237,8.237,8.0645,8.1636,8.2223,8.2296,8.1636,8.0791,8.0,7.9816,7.9816,7.9816,8.0424,8.1269,8.2039,8.226,8.281,8.4352,8.5343,8.7031,9.0262,9.2097,9.3712,9.5418,9.6282,9.6685,9.6685,9.6685,9.6685,9.6685,9.6685,9.6685,9.6685,9.6685,9.6685,9.6685,9.6685,9.6649,9.6575,9.5878,9.5455,9.5382,9.4556,9.3822,9.3088,9.3015,9.2537,9.1803,9.173,9.1289,9.0592,9.0519,8.9638,8.8316,8.8316,8.7839,8.7088,8.7088,8.7051,8.6867,8.6004,8.527,8.4535,8.3601,8.3271,8.3161,8.2406,8.2186,8.2223,8.2296,8.2296,8.248,8.3197,8.3381,8.3748,8.5233,8.7325,8.8776,8.8133,8.8482,8.8996,8.9033,8.7895,8.7142,8.7949,8.7435,8.6885,8.6885,8.6848,8.6757,8.6757,8.6151,8.5654,8.56,8.4866,8.4425,8.4499,8.5159,8.56,8.569,8.569,8.5306,8.4535,8.3785,8.303,8.2223,8.2186,8.2186,8.2186,8.2904,8.292,8.2223,8.2957,8.292,8.0277,8.1599,8.2333,8.281,8.1599,8.0183,7.989,7.9449,7.9213,7.9706,8.0424,8.1269,8.2039,8.2186,8.2406,8.303,8.3398,8.4572,8.7325,8.872,9.0592,9.3712,9.4777,9.5621,9.6612,9.6685,9.6685,9.6685,9.6685,9.6685,9.6685,9.6685,9.6685,9.6685,9.6685,9.6685,9.6685,9.6392,9.6208,9.6208,9.5401,9.485,9.4501,9.3565,9.2905,9.2537,9.2024,9.1326,9.0592,9.0592,8.9931,8.8849,8.839,8.7986,8.7655,8.7161,8.6978,8.6867,8.6077,8.5894,8.573,8.3968,8.3711,8.3875,8.259,8.2186,8.2406,8.3361,8.3654,8.3838,8.4646,8.5196,8.573,8.6371,8.8005,8.9326,8.8996,8.9179,8.94,8.94,8.8886,8.8372,8.8243,8.8353,8.8115,8.7124,8.7435,8.7545,8.7051,8.6738,8.6518,8.6518,8.538,8.4792,8.527,8.56,8.6004,8.6481,8.6518,8.6151,8.5343,8.5013,8.4462,8.3654,8.3654,8.3654,8.3654,8.3985,8.3728,8.2957,8.3765,8.3434,7.947,8.1048,8.2039,8.2847,8.1599,8.011,7.9853,7.9376,7.9119,7.9669,8.0424,8.1269,8.2039,8.2186,8.2186,8.2186,8.2406,8.3324,8.549,8.6701,8.861,9.195,9.3051,9.4189,9.5841,9.6428,9.6685,9.6685,9.6685,9.6685,9.6685,9.6685,9.6685,9.6685,9.6685,9.6685,9.6685,9.6685,9.6685,9.6685,9.6135,9.5621,9.5107,9.3969,9.3198,9.2684,9.206,9.1326,9.0592,9.0317,8.9767,8.8959,8.8169,8.7839,8.7766,8.7198,8.6978,8.6904,8.6334,8.6371,8.6371,8.4665,8.4352,8.4389,8.3251,8.2737,8.281,8.3948,8.4609,8.5086,8.5637,8.6554,8.7435,8.7638,8.8739,8.9803,9.006,8.9913,8.984,9.006,8.973,8.929,8.8977,8.9179,8.9033,8.7858,8.8189,8.8353,8.7785,8.7711,8.7711,8.7711,8.6684,8.6077,8.6151,8.6371,8.6664,8.6978,8.7215,8.6885,8.582,8.58,8.5416,8.4609,8.4609,8.4609,8.4609,8.4829,8.4535,8.3748,8.4572,8.4205,7.7965,7.98,8.1232,8.2003,8.1599,8.0791,8.0,7.9779,7.9779,7.9816,8.0424,8.1269,8.2039,8.2186,8.2186,8.2186,8.2884,8.3948,8.5563,8.7178,8.8793,9.0445,9.1326,9.2464,9.4153,9.5768,9.6685,9.6685,9.6685,9.6685,9.6685,9.6685,9.6685,9.6685,9.6685,9.6685,9.6685,9.6685,9.6685,9.6685,9.6685,9.5841,9.4299,9.4299,9.3382,9.1803,9.1803,9.1326,9.0555,8.973,8.8923,8.8133,8.7325,8.7014,8.7014,8.6978,8.6978,8.6978,8.6978,8.6481,8.58,8.58,8.5233,8.4609,8.4572,8.4005,8.3381,8.3418,8.4572,8.5783,8.58,8.6995,8.839,8.9179,8.9987,9.0812,9.1583,9.1143,9.0812,9.162,9.0482,8.9657,9.0427,8.9913,8.94,8.9363,8.9363,8.9363,8.9363,8.9363,8.9363,8.9363,8.9363,8.8702,8.7124,8.7729,8.7839,8.7051,8.7766,8.7472,8.5874,8.58,8.5416,8.4609,8.4609,8.4609,8.4609,8.538,8.538,8.4609,8.5416,8.5343,7.5858,7.7671,7.9433,7.969,7.9103,7.8573,7.8883,7.9412,7.9816,7.9816,8.0881,8.1893,8.215,8.2186,8.2186,8.2186,8.2406,8.2957,8.4022,8.5563,8.7545,9.0298,9.3308,9.5364,9.5878,9.6392,9.6685,9.6685,9.6685,9.6685,9.6685,9.6685,9.6685,9.6685,9.6685,9.6685,9.6685,9.6685,9.6685,9.6685,9.6685,9.6135,9.5107,9.4556,9.3712,9.2648,9.206,9.1326,9.0592,9.0317,8.973,8.8923,8.8133,8.7839,8.7766,8.7198,8.6978,8.6978,8.6978,8.6848,8.6518,8.5967,8.5654,8.5306,8.4756,8.4425,8.4352,8.4903,8.5783,8.6628,8.6628,8.7785,8.8959,8.8647,9.0041,9.1326,9.1033,9.1216,9.151,9.173,9.14,9.0959,9.0665,9.0849,9.0665,8.9583,8.9877,9.0024,8.9473,8.94,8.94,8.94,8.94,8.9179,8.8666,8.839,8.8096,8.7839,8.7545,8.7142,8.6628,8.6628,8.6518,8.6244,8.6244,8.6244,8.6244,8.6518,8.6481,8.6207,8.538,8.5123,7.4647,7.6481,7.8185,7.8516,7.8405,7.8332,7.8552,7.947,8.0183,7.9853,8.1101,8.2186,8.2186,8.2186,8.2186,8.2186,8.2186,8.259,8.3691,8.4976,8.6995,9.0225,9.3675,9.5804,9.5804,9.6355,9.6685,9.6685,9.6685,9.6685,9.6685,9.6685,9.6575,9.6282,9.6539,9.6685,9.6685,9.6685,9.6685,9.6685,9.6392,9.5841,9.5034,9.4226,9.3382,9.2574,9.2024,9.151,0.0,9.0739,9.028,8.9767,8.8959,8.8647,8.861,8.8078,8.7895,8.7858,8.7582,8.7472,8.7325,8.6518,8.6261,8.6151,8.5673,8.5306,8.5233,8.604,8.6848,8.7472,8.7472,8.8409,8.9363,8.916,9.0262,9.1289,9.1106,9.1436,9.1803,9.1803,9.1803,9.1657,9.1143,9.1473,9.1473,9.0482,9.0739,9.0886,9.0354,9.0317,9.0317,9.0317,9.0317,9.0317,9.0317,8.9564,8.8867,8.8243,8.8316,8.8225,8.7932,8.7601,8.7472,8.7472,8.7124,8.6978,8.6978,8.6978,8.6978,8.6978,8.5967,8.5783,0.0,7.5784,7.7179,7.8112,7.8898,7.9265,7.8589,7.9653,0.0,7.9926,8.1028,8.2113,8.2186,8.2186,8.2186,8.2186,8.2186,8.2737,8.4315,8.5453,8.7325,9.0482,9.3015,9.4446,9.4446,9.5804,9.6685,9.6685,9.6685,9.6685,9.6685,9.6685,9.6318,9.5528,9.6208,9.6575,9.6539,9.6575,9.6612,9.6612,9.5934,9.5126,9.4263,9.3529,9.2684,9.1803,9.1803,9.1803,9.173,9.0996,9.0702,9.0629,8.9803,8.9473,8.9473,8.9436,8.9363,8.9216,8.8536,8.8206,8.7986,8.7234,8.6978,8.6978,8.6978,8.6518,8.6114,8.6885,8.7655,8.828,8.828,8.8886,8.9657,9.0427,9.0629,9.0886,9.1657,9.1803,9.1803,9.1803,9.1803,9.1803,9.1803,9.1803,9.1803,9.1803,9.1803,9.1803,9.1803,9.1803,9.1803,9.1803,9.1803,9.1767,9.173,9.1033,8.9968,8.8463,8.9711,9.0134,8.9363,8.861,8.8169,8.8133,8.7399,8.6978,8.6978,8.6978,8.6978,8.6978,8.6978,8.6978,7.1674,0.0,7.3949,7.5432,7.5909,7.6166,0.0,7.7965,7.9286,7.9706,8.0571,8.1489,8.2076,8.2186,8.2186,8.2186,8.2186,8.2553,8.3528,8.7014,9.0445,9.3125,9.5034,9.6135,9.6135,9.6465,9.6685,9.6685,9.6685,9.6685,9.6685,9.6685,9.6318,9.5528,9.5675,9.5511,9.485,9.5474,9.5804,9.5785,9.6208,9.5658,9.4299,9.4079,9.3198,9.1803,9.1803,9.1803,9.1803,9.1583,9.151,9.1436,9.0629,9.0317,9.0244,8.962,8.8996,8.8536,8.8959,8.8299,8.7252,8.7051,8.6978,8.6978,8.6978,8.7288,8.7692,8.7876,8.8482,8.9106,8.9106,8.9693,9.0354,9.0537,9.1069,9.1583,9.1767,9.1803,9.1803,9.1803,9.1803,9.1803,9.1803,9.1803,9.1803,9.1803,9.1803,9.1803,9.1803,9.1803,9.1803,9.1803,9.1803,9.1546,9.0922,9.0702,9.0445,9.0078,8.9803,8.9326,8.8536,8.8316,8.7912,8.7271,8.7088,8.6978,8.6978,8.6978,8.6978,8.6978,8.6978,8.6978,7.033,7.2165,7.3891,7.5139,7.5711,7.6225,7.7047,7.7635,7.8259,7.9066,7.9874,8.0681,8.1489,8.1636,8.1782,8.215,8.2186,8.2884,8.4776,8.861,9.184,9.3529,9.518,9.6171,9.6171,9.6171,9.6318,9.6685,9.6685,9.6685,9.6685,9.6685,9.6171,9.4997,9.496,9.474,9.4299,9.474,9.496,9.496,9.5034,9.4777,9.4299,9.3932,9.3455,9.2941,9.2574,9.2391,9.2354,9.195,9.1803,9.1767,9.1326,9.1143,9.1106,9.0665,9.0225,8.9821,8.951,8.8335,8.6978,8.6978,8.7252,8.7545,8.7545,8.839,8.916,8.8426,8.905,8.995,8.995,9.0555,9.1143,9.1143,9.1473,9.1803,9.1803,9.1803,9.1803,9.1803,9.1803,9.1803,9.1803,9.1803,9.1803,9.1803,9.1803,9.1803,9.1803,9.1803,9.1803,9.1803,9.1803,9.1473,9.0665,9.0592,9.0592,9.0592,8.984,8.9363,8.9307,8.861,8.7839,8.7014,8.6978,8.6978,8.6978,8.6978,8.6978,8.6978,8.6978,8.7198,6.9816,7.2532,7.5014,7.5432,7.6261,7.7142,7.7855,7.7546,7.7399,7.8405,7.9155,7.989,8.0828,8.1012,8.1305,8.2223,8.248,8.3618,8.6574,8.9601,9.1913,9.2978,9.441,9.5327,9.5327,9.5418,9.5804,9.6465,9.6649,9.6649,9.6539,9.6539,9.5768,9.4153,9.4116,9.4042,9.3896,9.4042,9.4116,9.4116,9.3675,9.3749,9.4263,9.3712,9.3786,9.4263,9.3565,9.3198,9.3051,9.2281,9.1913,9.1803,9.1803,9.1803,9.1803,9.1803,9.173,9.14,8.9767,8.8299,8.7178,8.7014,8.7545,8.8169,8.8059,8.9234,9.0298,8.8793,8.9528,9.0776,9.0776,9.1289,9.1803,9.1803,9.1803,9.1803,9.1803,9.1803,9.1803,9.1803,9.1803,9.1803,9.1803,9.1803,9.1803,9.1803,9.1803,9.1803,9.1803,9.1803,9.1803,9.1803,9.1803,9.1473,9.0665,9.0482,9.0427,9.0427,8.9877,8.984,9.0391,8.8867,8.7692,8.7014,8.6978,8.6978,8.6978,8.6978,8.6978,8.6978,8.7124,8.7545,7.0499,7.2958,7.461,7.3377,7.4169,7.5307,7.5417,7.5909,7.6717,7.8295,7.8699,7.925,8.0718,8.1012,8.1489,8.2977,8.3801,8.4866,8.6721,8.8592,9.0611,9.2831,9.3932,9.4483,9.4483,9.5107,9.5528,9.5675,9.6318,9.6392,9.5712,9.5675,9.496,9.3345,9.3272,9.2941,9.217,9.2905,9.3272,9.3308,9.4538,9.485,9.4299,9.4887,9.485,9.4299,9.4153,9.3712,9.3088,9.2978,9.2464,9.1803,9.1803,9.1803,9.1803,9.1803,9.1363,9.0555,8.894,8.8206,8.7912,8.7215,8.7545,8.8059,8.7399,8.8793,9.0408,8.9473,9.0354,9.162,9.162,9.1693,9.1803,9.1803,9.1803,9.1803,9.1803,9.1803,9.1803,9.1803,9.1803,9.1803,9.1803,9.1803,9.1803,9.1803,9.1803,9.1803,9.1803,9.1803,9.1803,9.1803,9.1803,9.1473,9.0665,8.9987,8.9583,8.9583,9.0097,9.017,8.962,8.8042,8.7124,8.6978,8.6978,8.6978,8.6978,8.6978,8.6978,8.7014,8.7692,8.8096,6.9045,7.1123,7.2885,7.2569,7.5028,7.7561,7.7561,7.7488,7.7781,7.8993,7.9265,7.9617,8.0791,8.1012,8.1509,8.3124,8.4462,8.582,8.7435,8.9033,9.0611,9.2207,9.3125,9.3639,9.3639,9.4006,9.4538,9.5418,9.5437,9.5437,9.5492,9.5492,9.4758,9.3161,9.3529,9.3125,9.1803,9.2207,9.2648,9.3125,9.3859,9.4483,9.496,9.5308,9.5547,9.5584,9.5144,9.474,9.4336,9.3455,9.2868,9.2464,9.1987,9.1803,9.1803,9.1803,9.1033,8.984,8.9106,8.8262,8.7509,8.7124,8.7545,8.8133,8.7766,8.905,9.0519,9.0134,9.0886,9.1803,9.1803,9.1803,9.1803,9.1803,9.1803,9.1803,9.1803,9.1803,9.1803,9.1803,9.1803,9.1803,9.1803,9.1803,9.1803,9.1803,9.1803,9.1803,9.1803,9.1803,9.1803,9.1803,9.14,9.0849,9.0024,8.9216,8.8556,8.8115,8.8849,8.894,8.8152,8.7381,8.6978,8.6978,8.7435,8.7655,8.7655,8.8078,8.8299,8.8299,8.8666,8.9069,6.8178,6.9889,7.1784,7.2569,7.5579,7.8568,7.9339,7.8736,7.8332,7.9559,7.9816,8.0036,8.0865,8.1289,8.195,8.3197,8.4756,8.6371,8.7986,8.9417,9.0702,9.1693,9.2574,9.3015,9.2831,9.3161,9.3822,9.4868,9.4556,9.4483,9.4905,9.4941,9.4299,9.2831,9.3382,9.3088,9.1803,9.1803,9.2244,9.3088,9.3308,9.4153,9.5492,9.5675,9.6135,9.6685,9.6061,9.5584,9.5144,9.3896,9.3161,9.2721,9.206,9.1803,9.1803,9.1803,9.0776,8.94,8.94,8.8335,8.6978,8.6978,8.7545,8.8206,8.8206,8.9197,9.0317,9.0317,9.0922,9.1546,9.173,9.1803,9.1803,9.1803,9.1803,9.1803,9.1803,9.1803,9.1803,9.1803,9.1803,9.1803,9.1803,9.1803,9.1803,9.1803,9.1803,9.1803,9.1803,9.1803,9.1803,9.1803,9.1069,9.0207,8.9179,8.839,8.7729,8.7325,8.7692,8.7802,8.7565,8.7381,8.7344,8.7565,8.8169,8.85,8.85,8.9106,8.94,8.94,8.9583,8.9987,6.9536,7.1138,7.2606,7.3413,7.3891,7.4933,7.8002,7.7451,7.6937,7.9302,7.9816,8.0036,8.0865,8.2207,8.3271,8.3381,8.4756,8.6371,8.7986,8.8923,9.006,9.162,9.2574,9.2794,9.195,9.3308,9.3932,9.3308,9.3896,9.4006,9.3308,9.3272,9.2868,9.1913,9.195,9.1913,9.1803,9.1803,9.2244,9.3125,9.3859,9.4666,9.5528,9.6282,9.6649,9.6685,9.6649,9.5768,9.4373,9.4263,9.3308,9.1877,9.1803,9.1803,9.1803,9.1803,9.0776,8.94,8.94,8.8335,8.6978,8.6978,8.7545,8.8206,8.8206,8.8776,8.9473,8.9473,9.006,9.0849,9.162,9.1803,9.1803,9.1803,9.1803,9.1803,9.1803,9.1803,9.1803,9.1803,9.1803,9.1803,9.1803,9.1803,9.1803,9.1803,9.1803,9.1803,9.1803,9.1803,9.1803,9.1803,9.1069,8.9968,8.8426,8.7545,8.7399,8.8059,8.7472,8.7711,8.9179,8.85,8.8463,8.9216,8.929,8.9326,8.9326,8.9363,8.94,8.9436,9.017,9.0555,6.8435,7.0513,7.2679,7.3487,7.4441,7.5799,7.8075,7.8883,7.9543,8.0975,8.1285,8.1379,8.1672,8.2647,8.3564,8.4058,8.5086,8.6518,8.8629,8.9216,8.9987,9.162,9.2097,9.217,9.184,9.2354,9.2831,9.3088,9.2868,9.3051,9.3822,9.3859,9.3712,9.3345,9.3345,9.3125,9.2611,9.206,9.2501,9.3859,9.4153,9.496,9.6282,9.6575,9.6685,9.6685,9.6685,9.6061,9.4997,9.452,9.3639,9.2537,9.2024,9.1803,9.1803,9.1803,9.0776,8.94,8.94,8.8335,8.7088,8.7582,8.7619,8.7655,8.8629,8.9143,8.951,8.9987,9.0739,9.1289,9.1106,9.1436,9.1803,9.1803,9.1803,9.1803,9.1803,9.1803,9.1803,9.1803,9.1803,9.1803,9.1803,9.1803,9.1803,9.1803,9.1803,9.1803,9.1803,9.1803,9.1803,9.1803,9.0629,8.9179,8.7582,8.7161,8.7362,8.8133,8.7912,8.8243,8.9363,8.9106,8.9069,8.94,8.9877,9.0134,9.0134,9.0665,9.0886,9.0922,9.1216,9.1363,6.8091,7.0073,7.2386,7.345,7.4918,7.6607,7.8552,7.9617,8.0608,8.1929,8.2186,8.2186,8.2186,8.2847,8.3638,8.4462,8.549,8.6921,8.9106,8.962,9.028,9.1657,9.2024,9.2097,9.184,9.206,9.2354,9.2684,9.2134,9.2281,9.3455,9.3749,9.3786,9.3529,9.3786,9.3529,9.2684,9.2097,9.2501,9.3932,9.4189,9.5144,9.6685,9.6685,9.6685,9.6685,9.6685,9.6098,9.507,9.452,9.3639,9.2648,9.2024,9.1803,9.1803,9.1803,9.0959,8.9767,8.9767,8.8886,8.7858,8.839,8.8206,8.8005,8.9363,8.9583,8.9583,9.0354,9.0996,9.1289,9.0739,9.1216,9.1803,9.1803,9.1803,9.1803,9.1803,9.1803,9.1803,9.1803,9.1803,9.1803,9.1803,9.1803,9.1803,9.1803,9.1803,9.1803,9.1803,9.1803,9.1693,9.1436,9.0427,8.9216,8.7858,8.7748,8.8078,8.8904,8.8977,8.9197,8.9767,8.9767,8.9913,9.0134,9.0702,9.0996,9.0996,9.1546,9.1803,9.1803,9.1803,9.1803,6.8885,7.0059,7.1711,7.3303,7.4918,7.6754,7.9265,7.9192,7.9286,8.1709,8.2186,8.2186,8.2186,8.2847,8.3638,8.4462,8.593,8.7565,8.9179,9.0097,9.0886,9.1693,9.2574,9.2758,9.1877,9.2574,9.2721,9.184,9.1803,9.1803,9.1803,9.2648,9.2721,9.184,9.2648,9.2684,9.1803,9.1803,9.2244,9.3125,9.3896,9.5107,9.6685,9.6685,9.6685,9.6685,9.6685,9.5768,9.4299,9.4263,9.3308,9.1803,9.1803,9.1803,9.1803,9.1803,9.1289,9.0592,9.0592,9.006,8.94,8.94,8.94,8.9546,9.0354,9.006,8.9583,9.0391,9.0629,9.0629,9.0629,9.1216,9.1803,9.1803,9.1803,9.1803,9.1803,9.1803,9.1803,9.1803,9.1803,9.1803,9.1803,9.1803,9.1803,9.1803,9.1803,9.1803,9.1803,9.1803,9.1473,9.0702,9.0592,9.028,8.9473,8.94,8.973,9.0555,9.0592,9.0592,9.0629,9.0629,9.0996,9.1767,9.1803,9.1803,9.1803,9.1803,9.1803,9.1803,9.1803,9.1803,6.8201,7.0073,7.2386,7.345,7.5799,7.8332,8.0204,8.0461,8.0645,8.1929,8.2186,8.2186,8.2186,8.2847,8.3638,8.4462,8.549,8.6921,8.9106,8.962,9.0244,9.1657,9.2024,9.206,9.184,9.2024,9.206,9.1803,9.1803,9.206,9.2684,9.3492,9.3822,9.3565,9.3822,9.3529,9.2721,9.2097,9.2244,9.3088,9.3345,9.4006,9.5034,9.6171,9.6098,9.507,9.6208,9.5474,9.3418,9.2794,9.2244,9.1803,9.1803,9.1803,9.1803,9.1803,9.1289,9.0592,9.0592,9.006,8.9473,9.006,8.984,8.9657,9.1033,9.0886,9.0391,9.1216,9.1436,9.1436,9.1436,9.162,9.1803,9.1803,9.1803,9.1803,9.1803,9.1803,9.1803,9.1803,9.1803,9.1803,9.1803,9.1803,9.1803,9.1803,9.1803,9.1803,9.1803,9.1803,9.1473,9.0702,9.0592,9.028,8.9473,8.94,8.973,9.0555,9.0592,9.0849,9.1436,9.1436,9.1546,9.1803,9.1803,9.1803,9.1803,9.1803,9.1803,9.1803,9.1803,9.1803,6.9559,7.1505,7.3817,7.5285,7.7393,7.9507,8.1122,8.1489,8.1599,8.2113,8.2186,8.2296,8.2627,8.3324,8.4132,8.4939,8.6004,8.7362,8.9143,8.9693,9.0464,9.2134,9.2024,9.195,9.2281,9.1987,9.1803,9.1803,9.1803,9.2024,9.2574,9.3675,9.3969,9.3308,9.3932,9.3749,9.2611,9.206,9.206,9.2574,9.2941,9.3161,9.3382,9.5327,9.5878,9.5254,9.5584,9.4923,9.3492,9.2281,9.1803,9.1803,9.1803,9.1803,9.1803,9.1803,9.1473,9.1069,9.1069,9.0776,9.0445,9.0922,9.0739,9.0537,9.151,9.1473,9.1179,9.1657,9.1803,9.1803,9.1803,9.1803,9.1803,9.1803,9.1803,9.1803,9.1803,9.1803,9.1803,9.1803,9.1803,9.1803,9.1803,9.1803,9.1803,9.1803,9.1803,9.1803,9.1803,9.1803,9.162,9.1143,9.1069,9.0886,9.0391,9.0354,9.0537,9.1069,9.1069,9.1289,9.1767,9.1803,9.1803,9.1803,9.1803,9.1803,9.1803,9.1803,9.1803,9.1803,9.1803,9.1803,7.1982,7.356,7.538,7.7965,7.9339,8.0404,8.1872,8.2186,8.2186,8.2186,8.2186,8.2406,8.3161,8.4022,8.4829,8.5563,8.7031,8.839,8.929,9.0024,9.1088,9.2794,9.2281,9.2097,9.2905,9.2244,9.184,9.1913,9.184,9.1877,9.2024,9.3382,9.3492,9.195,9.3382,9.3418,9.1803,9.1803,9.1803,9.1803,9.2611,9.2611,9.1987,9.4336,9.5804,9.6392,9.485,9.4189,9.4079,9.2464,9.1803,9.1803,9.1803,9.1803,9.1803,9.1803,9.1803,9.1803,9.1803,9.1803,9.1803,9.1803,9.1803,9.1803,9.1803,9.1803,9.1803,9.1803,9.1803,9.1803,9.1803,9.1803,9.1803,9.1803,9.1803,9.1803,9.1803,9.1803,9.1803,9.1803,9.1803,9.1803,9.1803,9.1803,9.1803,9.1803,9.1803,9.1803,9.1803,9.1803,9.1803,9.1803,9.1803,9.1803,9.1803,9.1803,9.1803,9.1803,9.1803,9.1803,9.1803,9.1803,9.184,9.1913,9.1913,9.195,9.2024,9.195,9.1913,9.1913,9.184,9.1803,7.1454,7.2753,7.4698,7.7818,8.0131,8.1746,8.2113,8.2186,8.2186,8.2186,8.2186,8.226,8.2443,8.3618,8.4646,8.4829,8.6224,8.7748,8.9216,8.9546,9.0244,9.1877,9.1913,9.1877,9.206,9.1913,9.206,9.2758,9.217,9.2354,9.3675,9.3492,9.3198,9.2831,9.3161,9.2868,9.1803,9.1803,9.1803,9.1803,9.1987,9.2354,9.2868,9.4042,9.463,9.474,9.3786,9.3345,9.3272,9.2244,9.1803,9.1803,9.1803,9.1803,9.1803,9.1803,9.1803,9.1803,9.1803,9.1803,9.1803,9.1803,9.1803,9.1803,9.1803,9.1803,9.1803,9.1803,9.1803,9.1803,9.1803,9.1803,9.1803,9.1803,9.1803,9.1803,9.1803,9.1803,9.1803,9.1803,9.1803,9.1803,9.1803,9.1803,9.1803,9.1803,9.1803,9.1803,9.1803,9.1803,9.1803,9.1803,9.1803,9.1803,9.1803,9.1803,9.1803,9.1803,9.1803,9.1803,9.1803,9.1803,9.2134,9.2831,9.2831,9.3125,9.3749,9.3125,9.2831,9.2794,9.2134,9.1803,7.2591,7.3927,7.5726,7.9396,8.1269,8.2186,8.2186,8.2186,8.2296,8.27,8.2774,8.2994,8.3765,8.4609,8.5306,8.571,8.6775,8.8005,8.9216,8.973,9.0574,9.2244,9.206,9.195,9.2391,9.2024,9.1987,9.2427,9.206,9.2354,9.3639,9.3675,9.3492,9.3125,9.3455,9.3051,9.1803,9.1803,9.1803,9.1803,9.1803,9.2024,9.2537,9.3749,9.4299,9.4263,9.3455,9.3088,9.3015,9.217,9.1803,9.1803,9.1803,9.1803,9.1803,9.1803,9.1803,9.1803,9.1803,9.1803,9.1803,9.1803,9.1803,9.1803,9.1803,9.1803,9.1803,9.1803,9.1803,9.1803,9.1803,9.1803,9.1803,9.1803,9.1803,9.1803,9.1803,9.1803,9.1803,9.1803,9.1803,9.1803,9.1803,9.1803,9.1803,9.1803,9.1803,9.1803,9.1803,9.1803,9.1803,9.1803,9.1803,9.1803,9.1803,9.1803,9.1803,9.1803,9.1803,9.1803,9.1803,9.1803,9.2024,9.2464,9.2905,9.3308,9.3712,9.3675,9.3492,9.3088,9.3015,9.2794,7.3413,7.5285,7.7414,8.1085,8.2113,8.2186,8.2186,8.2186,8.2443,8.3234,8.3381,8.3858,8.5306,8.571,8.604,8.6867,8.7692,8.8536,8.9473,9.017,9.1179,9.2684,9.2244,9.206,9.2831,9.2354,9.2024,9.2024,9.2134,9.2611,9.3492,9.4006,9.3969,9.3345,9.3822,9.3345,9.1803,9.195,9.2024,9.2024,9.2024,9.195,9.184,9.3235,9.3859,9.3822,9.3308,9.3015,9.2831,9.2097,9.1803,9.1803,9.1803,9.1803,9.1803,9.1803,9.1803,9.1803,9.1803,9.1803,9.1803,9.1803,9.1803,9.1803,9.1803,9.1803,9.1803,9.1803,9.1803,9.1803,9.1803,9.1803,9.1803,9.1803,9.1803,9.1803,9.1803,9.1803,9.1803,9.1803,9.1803,9.1803,9.1803,9.1803,9.1803,9.1803,9.1803,9.1803,9.1803,9.1803,9.1803,9.1803,9.1803,9.1803,9.1803,9.1803,9.1803,9.1803,9.1803,9.1803,9.1803,9.1803,9.1803,9.1803,9.2648,9.3161,9.3308,9.3822,9.3822,9.3308,9.3859,9.3822,7.0807,7.4404,7.8736,8.0681,8.1672,8.2186,8.2186,8.2186,8.2443,8.3234,8.3381,8.3675,8.4609,8.5306,8.604,8.6867,8.7692,8.872,9.0207,9.0537,9.0959,9.184,9.1877,9.184,9.195,9.2537,9.2941,9.2941,9.3565,9.4336,9.5125,9.463,9.4226,9.4153,9.3565,9.2794,9.1803,9.2537,9.2941,9.2941,9.2941,9.2537,9.1803,9.2024,9.2134,9.217,9.2831,9.2684,9.195,9.184,9.1803,9.1803,9.1803,9.1803,9.1803,9.1803,9.1803,9.1803,9.1803,9.1803,9.1803,9.1803,9.1803,9.1803,9.1803,9.1803,9.1803,9.1803,9.1803,9.1803,9.1803,9.1803,9.1803,9.1803,9.1803,9.1803,9.1803,9.1803,9.1803,9.1803,9.1803,9.1803,9.1803,9.1803,9.1803,9.1803,9.1803,9.1803,9.1803,9.1803,9.1803,9.1803,9.1803,9.1803,9.1803,9.1803,9.1803,9.1803,9.1803,9.1803,9.1803,9.1803,9.1803,9.1803,9.2648,9.3455,9.4153,9.3565,9.3565,9.4116,9.3529,9.3565,7.0917,7.4588,7.839,8.0498,8.1599,8.2186,8.2186,8.2186,8.2443,8.3234,8.3748,8.4315,8.5123,8.6297,8.7252,8.7619,8.872,8.9784,9.0519,9.0996,9.14,9.1767,9.1803,9.1803,9.1803,9.2134,9.2574,9.3051,9.3418,9.4189,9.5418,9.518,9.496,9.496,9.463,9.3822,9.2537,9.3345,9.3565,9.3088,9.3088,9.2648,9.1803,9.1803,9.1803,9.1803,9.2207,9.2134,9.1803,9.1803,9.1803,9.1803,9.1803,9.1803,9.1803,9.1803,9.1803,9.1803,9.1803,9.1803,9.1803,9.1803,9.1803,9.1803,9.1803,9.1803,9.1803,9.1803,9.1803,9.1803,9.1803,9.1803,9.1803,9.1803,9.1803,9.1803,9.1803,9.1803,9.1803,9.1803,9.1803,9.1803,9.1803,9.1803,9.1803,9.1803,9.1803,9.1803,9.1803,9.1803,9.1803,9.1803,9.1803,9.1803,9.1803,9.1803,9.1803,9.1803,9.1803,9.1803,9.1803,9.1803,9.1803,9.1803,9.2648,9.3272,9.3639,9.3712,9.3712,9.3639,9.3712,9.3969,7.066,7.3802,7.6702,7.9381,8.0828,8.1725,8.2113,8.2186,8.237,8.2994,8.3911,8.4792,8.538,8.6995,8.828,8.8463,8.9674,9.0665,9.0886,9.1436,9.1803,9.1803,9.1803,9.1803,9.1803,9.217,9.2611,9.3088,9.3675,9.4446,9.5455,9.5675,9.5712,9.5492,9.5492,9.485,9.3418,9.4006,9.4006,9.3418,9.3198,9.2648,9.1803,9.1803,9.1803,9.1803,9.1803,9.1803,9.1803,9.1803,9.1803,9.1803,9.1803,9.1803,9.1803,9.1803,9.1803,9.1803,9.1803,9.1803,9.1803,9.1803,9.1803,9.1803,9.1803,9.1803,9.1803,9.1803,9.1803,9.1803,9.1803,9.1803,9.1803,9.1803,9.1803,9.1803,9.1803,9.1803,9.1803,9.1803,9.1803,9.1803,9.1803,9.1803,9.1803,9.1803,9.1803,9.1803,9.1803,9.1803,9.1803,9.1803,9.1803,9.1803,9.1803,9.1803,9.1803,9.1803,9.1803,9.1803,9.1803,9.1803,9.1803,9.1803,9.2427,9.2758,9.2758,9.3382,9.3455,9.3125,9.3712,9.4079,6.8641,7.0881,7.3509,7.6702,7.8736,8.033,8.1856,8.2186,8.2186,8.226,8.3508,8.4609,8.4646,8.6591,8.8463,8.9216,9.006,9.0886,9.162,9.1767,9.1803,9.1803,9.1803,9.1803,9.1803,9.3235,9.3859,9.3161,9.5217,9.6208,9.5528,9.6208,9.6282,9.5528,9.5492,9.5107,9.4226,9.4263,9.4263,9.4226,9.3455,9.2648,9.1803,9.1803,9.1803,9.1803,9.1803,9.1803,9.1803,9.1803,9.1803,9.1803,9.1803,9.1803,9.1803,9.1803,9.1803,9.1803,9.1803,9.1803,9.1803,9.1803,9.1803,9.1803,9.1803,9.1803,9.1803,9.1803,9.1803,9.1803,9.1803,9.1803,9.1803,9.1803,9.1803,9.1803,9.1803,9.1803,9.1803,9.1803,9.1803,9.1803,9.1803,9.1803,9.1803,9.1803,9.1803,9.1803,9.1803,9.1803,9.1803,9.1803,9.1803,9.1803,9.1803,9.1803,9.1803,9.1803,9.1803,9.1803,9.1803,9.1803,9.1803,9.1803,9.184,9.1877,9.1877,9.1913,9.2317,9.3088,9.3125,9.3565,6.7834,7.0257,7.2995,7.5197,7.7414,7.9176,7.9764,8.0681,8.1415,8.1415,8.3104,8.4609,8.4609,8.6554,8.8463,8.9253,9.006,9.1069,9.2427,9.2648,9.2831,9.3345,9.2941,9.2648,9.2648,9.2684,9.3015,9.3822,9.4666,9.5474,9.6245,9.6539,9.6575,9.6282,9.6282,9.6135,9.5841,9.5327,9.507,9.507,9.4777,9.3932,9.2648,9.2648,9.2317,9.1803,9.1803,9.1803,9.1803,9.1803,9.1803,9.1803,9.1803,9.1803,9.1803,9.1803,9.1803,9.1803,9.1803,9.1803,9.1803,9.1803,9.1803,9.1803,9.1803,9.1803,9.1803,9.1803,9.1803,9.1803,9.1803,9.1803,9.1803,9.1803,9.1803,9.1803,9.1803,9.1803,9.1803,9.1803,9.1803,9.1803,9.1803,9.1803,9.1803,9.1803,9.1803,9.1803,9.1803,9.1803,9.1803,9.1803,9.1803,9.1803,9.1803,9.1803,9.1803,9.1803,9.1803,9.1803,9.1803,9.1803,9.1803,9.1803,9.1803,9.1803,9.1803,9.1803,9.195,9.2281,9.2281,9.3015,6.7223,6.9449,7.2165,7.4037,7.5946,7.7635,7.8736,7.9837,8.0681,8.0938,8.27,8.4278,8.4535,8.6114,8.7839,8.9179,9.006,9.1069,9.2464,9.2941,9.3308,9.3822,9.3418,9.3198,9.3492,9.2721,9.2905,9.4593,9.4446,9.4887,9.6245,9.6318,9.6428,9.6685,9.6685,9.6685,9.6685,9.5914,9.5345,9.5107,9.4813,9.4006,9.2648,9.2648,9.2354,9.1803,9.1803,9.1803,9.1803,9.1803,9.1803,9.1803,9.1803,9.1803,9.1803,9.1803,9.1803,9.1803,9.1803,9.1803,9.1803,9.1803,9.1803,9.1803,9.1803,9.1803,9.1803,9.1803,9.1803,9.1877,9.217,9.2427,9.2574,9.2281,9.2427,9.2574,9.2281,9.2024,9.1803,9.1803,9.1803,9.1803,9.1803,9.1803,9.1803,9.1803,9.206,9.2244,9.2244,9.2244,9.2244,9.2244,9.195,9.1803,9.1803,9.1803,9.1803,9.1803,9.1803,9.1803,9.1803,9.1803,9.1803,9.1803,9.1803,9.195,9.2244,9.195,9.195,9.2244,9.2244,9.3125,0.0,0.0,0.0,7.3061,7.4258,7.5689,7.8898,7.9669,7.9963,8.0755,8.2207,8.3601,8.4425,8.5233,8.6591,8.8959,9.0024,9.0849,9.173,9.2574,9.3161,9.3161,9.3161,9.3492,9.4263,9.3602,9.3786,9.5382,9.474,9.4666,9.5455,9.5492,9.5878,9.6685,9.6685,9.6685,9.6685,9.5951,9.5144,9.4336,9.3529,9.2721,9.184,9.184,9.1803,9.1803,9.1803,9.1803,9.1803,9.1803,9.1803,9.1803,9.1803,9.1803,9.1803,9.1803,9.1803,9.1803,9.1803,9.1803,9.1803,9.1803,9.1803,9.1803,9.1803,9.1803,9.1803,9.184,9.184,9.2024,9.2868,9.3675,9.4079,9.3308,9.3712,9.4042,9.3308,9.2464,9.1877,9.184,9.184,9.184,9.184,9.184,9.184,9.1803,9.2537,9.3088,9.3088,9.3088,9.3125,9.3125,9.2354,9.184,9.184,9.1803,9.1803,9.1803,9.1803,9.1803,9.1803,9.1803,9.1803,9.1803,9.1803,9.2244,9.3088,9.2244,9.2281,9.3125,9.3161,9.4006,6.7444,0.0,0.0,0.0,0.0,0.0,7.519,7.6754,7.8206,7.9103,8.1012,8.2774,8.3564,8.4866,8.6407,8.8243,8.9216,9.0427,9.2464,9.3455,9.4189,9.4777,9.4831,9.4905,9.5144,9.4446,9.441,9.5418,9.474,9.4666,9.5455,9.5492,9.5878,9.6685,9.6685,9.6685,9.6685,9.6502,9.5951,9.518,9.4941,9.4116,9.2758,9.2758,9.2391,9.1803,9.1803,9.1803,9.1803,9.1803,9.1803,9.1803,9.1803,9.1803,9.1803,9.1803,9.1803,9.1803,9.1803,9.1803,9.1803,9.1803,9.1803,9.1803,9.1803,9.1803,9.1913,9.2574,9.2758,9.2794,9.3051,9.3272,9.3382,9.3161,9.3272,9.3529,9.3896,9.3786,9.3418,9.2868,9.2758,9.2758,9.2758,9.2758,9.2537,9.1877,9.2024,9.2391,9.3015,9.3088,9.3308,9.3896,9.3235,9.2758,9.2758,9.217,9.1803,9.1803,9.1803,9.1803,9.1803,9.1803,9.1803,9.1803,9.1803,9.2244,9.3088,9.2868,9.3161,9.3969,9.4556,9.5051,6.7811,6.8875,7.0293,7.1087,0.0,0.0,7.4478,7.5799,7.7142,7.8369,8.0241,8.1966,8.2737,8.3948,8.5453,8.7399,8.839,8.9767,9.2207,9.3272,9.4116,9.4887,9.4703,9.4868,9.5914,9.4666,9.441,9.5878,9.463,9.4153,9.496,9.5327,9.5878,9.6685,9.6685,9.6685,9.6685,9.6685,9.6318,9.5492,9.518,9.4336,9.3088,9.2721,9.2281,9.1803,9.1803,9.1803,9.1803,9.1803,9.1803,9.1803,9.1803,9.1803,9.1803,9.1803,9.1803,9.1803,9.1803,9.1803,9.1803,9.1803,9.1803,9.1803,9.1803,9.1803,9.1913,9.2427,9.2831,9.3088,9.3088,9.3602,9.4042,9.3675,9.4116,9.463,9.4777,9.452,9.4153,9.3675,9.3602,9.3602,9.3602,9.3602,9.3418,9.2905,9.2831,9.3015,9.3529,9.3308,9.3272,9.3749,9.3382,9.3088,9.3088,9.2941,9.2831,9.2831,9.2831,9.2831,9.2831,9.2831,9.2684,9.2354,9.2354,9.2758,9.3602,9.3272,9.3675,9.4813,9.5621,9.6025,6.8274,6.9119,7.044,7.1233,7.2041,0.0,7.5322,7.5983,7.657,7.8259,7.9727,8.1048,8.2003,8.2774,8.4042,8.6354,8.7472,8.8904,9.1326,9.2501,9.3382,9.4079,9.3675,9.4226,9.6355,9.4703,9.441,9.6539,9.463,9.3675,9.441,9.5107,9.5878,9.6685,9.6685,9.6685,9.6685,9.6612,9.6171,9.5345,9.4556,9.3749,9.2941,9.2134,9.1803,9.1803,9.1803,9.184,9.195,9.184,9.1803,9.1803,9.1803,9.1803,9.1803,9.1803,9.1803,9.1803,9.1803,9.1803,9.1803,9.1803,9.1803,9.1803,9.1803,9.1803,9.184,9.2024,9.2648,9.3235,9.3235,9.4226,9.507,9.4336,9.5327,9.6245,9.5528,9.4887,9.441,9.4299,9.4299,9.4299,9.4299,9.4373,9.441,9.4299,9.4226,9.4189,9.4299,9.3602,9.3125,9.3235,9.3161,9.3088,9.3088,9.3749,9.4153,9.4153,9.4226,9.4299,9.4299,9.4299,9.3969,9.3235,9.3308,9.3712,9.441,9.3786,9.4226,9.5639,9.6392,9.6685,7.0646,7.083,7.127,7.2041,7.2863,0.0,7.4037,7.5175,7.657,7.8259,7.8846,7.9727,8.1819,8.2333,8.2994,8.4792,8.6297,8.8096,9.0482,9.2134,9.3161,9.3308,9.4336,9.5198,9.5675,9.5878,9.6208,9.6649,9.5658,9.5088,9.5254,9.5418,9.5878,9.6685,9.6685,9.6685,9.6685,9.6061,9.5327,9.452,9.3712,9.2868,9.206,9.1877,9.1803,9.1803,9.1803,9.2207,9.2794,9.2097,9.1803,9.1803,9.1803,9.1803,9.1803,9.1803,9.1803,9.1803,9.1803,9.1803,9.1803,9.1803,9.1803,9.1803,9.1803,9.1803,9.206,9.3418,9.3932,9.4079,9.4079,9.3822,9.3529,9.3382,9.4079,9.474,9.4556,9.4923,9.507,9.441,9.4299,9.4299,9.4299,9.485,9.507,9.441,9.3749,9.3565,9.4226,9.3602,9.3345,9.4006,9.3492,9.3088,9.3088,9.3235,9.3345,9.3345,9.3932,9.4299,9.4299,9.4299,9.4226,9.4079,9.4703,9.5088,9.529,9.5768,9.6171,9.6465,9.6649,9.6685,7.0917,7.0977,7.149,7.2312,7.3083,0.0,0.0,7.5506,7.646,7.7708,7.8295,7.9103,8.0734,8.1342,8.215,8.3765,8.5013,8.6371,8.7986,9.0298,9.217,9.3015,9.3418,9.3969,9.4813,9.5254,9.5658,9.6061,9.6098,9.5768,9.496,9.5658,9.6098,9.6098,9.6502,9.6685,9.6685,9.5914,9.5308,9.4887,9.3675,9.2868,9.2427,9.1987,9.1803,9.1803,9.1803,9.2281,9.3088,9.2648,9.2464,9.2464,9.2464,9.2684,9.3051,9.3051,9.3051,9.2978,9.2574,9.2464,9.2391,9.195,9.1803,9.1803,9.1803,9.2097,9.2794,9.4446,9.4336,9.3786,9.4189,9.3712,9.3088,9.3088,9.3712,9.4299,9.4299,9.4299,9.4189,9.3786,9.3712,9.3822,9.4226,9.529,9.5841,9.5034,9.4556,9.4299,9.4299,9.3602,9.3088,9.3051,9.3088,9.3088,9.3088,9.3455,9.3859,9.4263,9.4703,9.507,9.5474,9.5511,9.5327,9.4923,9.529,9.5492,9.5492,9.6318,9.6685,9.6685,9.6685,9.6685,7.1468,7.1615,7.2334,7.2863,7.367,7.4698,0.0,0.0,0.0,7.7362,7.7986,7.8662,7.9633,8.0314,8.1232,8.2684,8.3748,8.4646,8.5453,8.7949,9.0298,9.195,9.1657,9.1913,9.3418,9.3602,9.4042,9.518,9.5584,9.5401,9.4593,9.5768,9.6245,9.5749,9.6355,9.6685,9.6685,9.5768,9.529,9.5235,9.3639,9.2868,9.2831,9.2134,9.1803,9.1803,9.1987,9.2537,9.3345,9.3345,9.3529,9.3749,9.3455,9.3639,9.4079,9.4226,9.4299,9.4189,9.3382,9.3088,9.2978,9.206,9.1913,9.206,9.206,9.2648,9.3639,9.5088,9.4446,9.3529,9.4299,9.3932,9.3308,9.3125,9.3712,9.4189,9.3896,9.3455,9.3051,9.2868,9.2978,9.3308,9.3969,9.5254,9.6061,9.5565,9.5345,9.5034,9.4373,9.3602,9.2831,9.2134,9.2537,9.2941,9.3088,9.3822,9.4593,9.5254,9.5584,9.6025,9.6685,9.6685,9.6392,9.5749,9.5712,9.5712,9.5712,9.6392,9.6685,9.6685,9.6685,9.6685,7.4793,7.494,7.5432,7.4793,7.5784,7.6738,7.624,0.0,7.7399,7.8259,0.0,7.7913,7.9522,0.0,0.0,8.1122,8.2537,8.3821,8.4609,8.5673,8.6958,8.8573,8.9307,9.0024,9.0922,9.1033,9.1987,9.4263,9.3217,9.3308,9.5254,9.5528,9.5914,9.6539,9.6649,9.6685,9.6685,9.518,9.4446,9.441,9.2721,9.195,9.195,9.184,9.1803,9.184,9.2611,9.3418,9.4153,9.4153,9.4997,9.6135,9.4703,9.3786,9.3308,9.4042,9.4299,9.4189,9.3382,9.3088,9.2978,9.206,9.2317,9.2941,9.2941,9.3529,9.4336,9.5235,9.485,9.4336,9.5144,9.4777,9.3969,9.3272,9.3712,9.3896,9.2391,9.2611,9.2868,9.2097,9.2574,9.3125,9.3235,9.3969,9.4777,9.5418,9.4887,9.441,9.4299,9.3602,9.3051,9.2978,9.2354,9.2244,9.3015,9.3822,9.4336,9.441,9.5768,9.6612,9.6685,9.6685,9.6649,9.6575,9.6575,9.6575,9.6575,9.6649,9.6685,9.6685,9.6685,9.6685,7.5197,7.5491,7.6019,7.5689,7.6445,7.7215,7.6885,7.7069,7.7399,7.7766,0.0,0.0,0.0,0.0,0.0,0.0,8.1966,8.281,8.3141,8.3508,8.4646,8.7215,8.7785,8.8519,8.9767,8.9491,9.0445,9.3382,9.2501,9.2501,9.4042,9.4978,9.5437,9.529,9.6208,9.6685,9.6685,9.5584,9.4777,9.4299,9.3125,9.2281,9.1803,9.1803,9.206,9.2574,9.2941,9.3822,9.4997,9.4997,9.5401,9.5988,9.5768,9.5474,9.5217,9.5584,9.5694,9.5584,9.4777,9.4483,9.4373,9.3529,9.3492,9.3896,9.4373,9.474,9.518,9.5988,9.5621,9.507,9.5418,9.4887,9.4079,9.3308,9.3345,9.3272,9.206,9.2464,9.2978,9.2648,9.3235,9.3786,9.3786,9.4465,9.4923,9.4813,9.5327,9.5511,9.5052,9.4703,9.4299,9.3859,9.3455,9.3382,9.3749,9.4116,9.4483,9.496,9.6061,9.6685,9.6685,9.6685,9.6685,9.6685,9.6685,9.6685,9.6685,9.6685,9.6685,9.6685,9.6685,9.6685,7.5784,7.6166,7.668,7.6203,7.6885,7.7472,7.6812,7.7179,7.7582,7.7362,7.7656,0.0,0.0,0.0,8.0314,8.0901,0.0,8.2186,8.2186,8.2186,8.3141,8.5693,8.6407,8.7325,8.8923,8.7949,8.8573,9.184,9.0886,9.0812,9.2317,9.3749,9.4336,9.3969,9.5327,9.6025,9.6025,9.5474,9.4777,9.3969,9.3382,9.2648,9.1803,9.206,9.2501,9.3125,9.3565,9.4427,9.5528,9.5749,9.5822,9.5914,9.6465,9.6685,9.6685,9.6685,9.6685,9.6575,9.5804,9.5345,9.507,9.4483,9.4446,9.474,9.5308,9.5639,9.5951,9.6539,9.6282,9.5822,9.5822,9.5401,9.474,9.3969,9.3786,9.3529,9.2684,9.2794,9.3161,9.3382,9.3712,9.4042,9.4263,9.4795,9.5052,9.4666,9.5621,9.6171,9.5584,9.5511,9.5272,9.4703,9.441,9.4373,9.4593,9.463,9.496,9.5804,9.6392,9.6685,9.6685,9.6685,9.6685,9.6685,9.6685,9.6685,9.6685,9.6685,9.6685,9.6685,9.6685,9.6685,7.7472,7.7839,7.8112,7.6497,7.7341,7.7928,7.5527,7.6827,7.8332,7.7472,7.8589,7.9743,7.9779,8.0424,8.0975,8.1012,8.1672,0.0,0.0,8.2186,8.2517,8.3418,8.4903,8.6481,8.8096,8.6114,8.604,8.929,8.7325,8.7362,9.0519,9.151,9.2354,9.3125,9.3932,9.4373,9.4373,9.4336,9.3932,9.3125,9.3125,9.2648,9.184,9.2684,9.3088,9.3198,9.4758,9.5455,9.5565,9.6355,9.6649,9.6649,9.6685,9.6685,9.6685,9.6685,9.6685,9.6575,9.5804,9.4997,9.4336,9.4299,9.4813,9.5455,9.5492,9.6061,9.6685,9.6685,9.6685,9.6649,9.6649,9.6649,9.6428,9.5602,9.5418,9.5198,9.4373,9.3639,9.3345,9.4116,9.3639,9.3382,9.4153,9.4299,9.4593,9.5345,9.5492,9.5528,9.5492,9.5492,9.5492,9.5455,9.4777,9.463,9.5382,9.5455,9.5785,9.6612,9.6685,9.6685,9.6685,9.6685,9.6685,9.6685,9.6685,9.6685,9.6685,9.6685,9.6685,9.6685,9.6685,9.6685,7.8405,7.914,7.98,7.8148,7.8185,7.8222,7.6812,7.7142,7.7803,7.8112,7.9029,7.9816,7.9816,8.0461,8.1012,8.1012,8.1672,8.2186,0.0,8.2186,8.248,8.3308,8.3858,8.4425,8.4959,8.4298,8.4922,8.7601,8.6077,8.6407,8.962,9.0592,9.1436,9.2281,9.4116,9.5107,9.5107,9.5107,9.4703,9.3896,9.3345,9.2648,9.1803,9.2097,9.2537,9.3161,9.4226,9.4997,9.5547,9.6355,9.6685,9.6685,9.6685,9.6685,9.6685,9.6685,9.6685,9.6649,9.6392,9.6135,9.5878,9.5878,9.6061,9.6282,9.6282,9.6502,9.6685,9.6685,9.6685,9.6685,9.6685,9.6685,9.6502,9.5675,9.5492,9.5272,9.4483,9.452,9.4777,9.5034,9.529,9.5584,9.5841,9.5878,9.5804,9.5528,9.5951,9.6282,9.6282,9.6282,9.6282,9.6282,9.6061,9.5988,9.6282,9.6282,9.6428,9.6685,9.6685,9.6685,9.6685,9.6685,9.6685,9.6685,9.6685,9.6685,9.6685,9.6685,9.6685,9.6685,9.6685,9.6685,7.9192,7.9764,8.0241,7.8919,7.8809,7.8736,7.7546,7.7986,7.8794,7.9323,8.0094,8.0734,8.1012,8.1269,8.1415,8.1415,8.1856,8.2186,0.0,8.2186,8.237,8.292,8.3234,8.3491,8.3785,8.3564,8.4152,8.6004,8.4939,8.5179,8.7565,8.9014,9.0005,9.0573,9.2941,9.4189,9.4189,9.4483,9.4226,9.3418,9.3492,9.3088,9.2281,9.2574,9.3161,9.4006,9.452,9.518,9.597,9.6502,9.6685,9.6685,9.6685,9.6685,9.6685,9.6685,9.6685,9.6685,9.6685,9.6685,9.6685,9.6685,9.6685,9.6685,9.6685,9.6685,9.6685,9.6685,9.6685,9.6685,9.6685,9.6685,9.6575,9.6061,9.5951,9.5768,9.5254,9.5327,9.5565,9.5878,9.6098,9.6355,9.6649,9.6685,9.6539,9.6025,9.6392,9.6685,9.6685,9.6685,9.6685,9.6685,9.6685,9.6685,9.6685,9.6685,9.6685,9.6685,9.6685,9.6685,9.6685,9.6685,9.6685,9.6685,9.6685,9.6685,9.6685,9.6685,9.6685,9.6685,9.6685,9.6685]}]]